<?xml version="1.0" encoding="UTF-8" standalone="no" ?>
<gpx xmlns="http://www.topografix.com/GPX/1/1" xmlns:xsi="http://www.w3.org/2001/XMLSchema-instance" xsi:schemaLocation="http://www.topografix.com/GPX/1/1 http://www.topografix.com/GPX/1/1/gpx.xsd" version="1.1" creator="VisuGPX - https://www.visugpx.com">
  <metadata>
    <name>Grand Caunet</name>
    <desc><![CDATA[boucle via Roquefort La Bédoule]]></desc>
  </metadata>
  <trk>
    <name><![CDATA[2020-09-13 Grand Caunet]]></name>
    <desc><![CDATA[JL]]></desc>
    <trkseg>
      <trkpt lat="43.23504" lon="5.67036">
        <ele>395.23828125</ele>
        <time>2020-09-13T07:02:17Z</time>
      </trkpt>
      <trkpt lat="43.23503" lon="5.67039">
        <ele>395.12109375</ele>
        <time>2020-09-13T07:02:38Z</time>
      </trkpt>
      <trkpt lat="43.23503" lon="5.67039">
        <ele>395.1171875</ele>
        <time>2020-09-13T07:02:39Z</time>
      </trkpt>
      <trkpt lat="43.23506" lon="5.67044">
        <ele>394.99609375</ele>
        <time>2020-09-13T07:02:59Z</time>
      </trkpt>
      <trkpt lat="43.23507" lon="5.67042">
        <ele>395.046875</ele>
        <time>2020-09-13T07:03:42Z</time>
      </trkpt>
      <trkpt lat="43.23513" lon="5.67038">
        <ele>395.1875</ele>
        <time>2020-09-13T07:04:21Z</time>
      </trkpt>
      <trkpt lat="43.23514" lon="5.67039">
        <ele>395.140625</ele>
        <time>2020-09-13T07:04:52Z</time>
      </trkpt>
      <trkpt lat="43.23513" lon="5.67039">
        <ele>395.171875</ele>
        <time>2020-09-13T07:05:26Z</time>
      </trkpt>
      <trkpt lat="43.23511" lon="5.67035">
        <ele>395.3125</ele>
        <time>2020-09-13T07:06:00Z</time>
      </trkpt>
      <trkpt lat="43.23509" lon="5.67037">
        <ele>395.22265625</ele>
        <time>2020-09-13T07:06:21Z</time>
      </trkpt>
      <trkpt lat="43.23507" lon="5.67037">
        <ele>395.234375</ele>
        <time>2020-09-13T07:06:38Z</time>
      </trkpt>
      <trkpt lat="43.23504" lon="5.67036">
        <ele>395.23828125</ele>
        <time>2020-09-13T07:06:59Z</time>
      </trkpt>
      <trkpt lat="43.23503" lon="5.67037">
        <ele>395.171875</ele>
        <time>2020-09-13T07:07:17Z</time>
      </trkpt>
      <trkpt lat="43.23489" lon="5.67048">
        <ele>394.26953125</ele>
        <time>2020-09-13T07:07:27Z</time>
      </trkpt>
      <trkpt lat="43.23489" lon="5.67051">
        <ele>394.1484375</ele>
        <time>2020-09-13T07:07:28Z</time>
      </trkpt>
      <trkpt lat="43.2349" lon="5.67055">
        <ele>394.0546875</ele>
        <time>2020-09-13T07:07:29Z</time>
      </trkpt>
      <trkpt lat="43.23491" lon="5.67058">
        <ele>393.99609375</ele>
        <time>2020-09-13T07:07:30Z</time>
      </trkpt>
      <trkpt lat="43.23493" lon="5.6706">
        <ele>394.00390625</ele>
        <time>2020-09-13T07:07:31Z</time>
      </trkpt>
      <trkpt lat="43.23496" lon="5.6706">
        <ele>394.07421875</ele>
        <time>2020-09-13T07:07:32Z</time>
      </trkpt>
      <trkpt lat="43.23499" lon="5.6706">
        <ele>394.20703125</ele>
        <time>2020-09-13T07:07:33Z</time>
      </trkpt>
      <trkpt lat="43.23503" lon="5.6706">
        <ele>394.3671875</ele>
        <time>2020-09-13T07:07:34Z</time>
      </trkpt>
      <trkpt lat="43.23507" lon="5.67058">
        <ele>394.46875</ele>
        <time>2020-09-13T07:07:35Z</time>
      </trkpt>
      <trkpt lat="43.23525" lon="5.6705">
        <ele>394.75390625</ele>
        <time>2020-09-13T07:07:42Z</time>
      </trkpt>
      <trkpt lat="43.23532" lon="5.67049">
        <ele>394.80078125</ele>
        <time>2020-09-13T07:07:51Z</time>
      </trkpt>
      <trkpt lat="43.23557" lon="5.67033">
        <ele>395.03515625</ele>
        <time>2020-09-13T07:08:00Z</time>
      </trkpt>
      <trkpt lat="43.23567" lon="5.67031">
        <ele>395</ele>
        <time>2020-09-13T07:08:03Z</time>
      </trkpt>
      <trkpt lat="43.2357" lon="5.67032">
        <ele>395</ele>
        <time>2020-09-13T07:08:04Z</time>
      </trkpt>
      <trkpt lat="43.23574" lon="5.67034">
        <ele>395</ele>
        <time>2020-09-13T07:08:05Z</time>
      </trkpt>
      <trkpt lat="43.23579" lon="5.67036">
        <ele>395</ele>
        <time>2020-09-13T07:08:06Z</time>
      </trkpt>
      <trkpt lat="43.23584" lon="5.67038">
        <ele>395</ele>
        <time>2020-09-13T07:08:07Z</time>
      </trkpt>
      <trkpt lat="43.23591" lon="5.67038">
        <ele>395.0859375</ele>
        <time>2020-09-13T07:08:08Z</time>
      </trkpt>
      <trkpt lat="43.23597" lon="5.6704">
        <ele>395.296875</ele>
        <time>2020-09-13T07:08:09Z</time>
      </trkpt>
      <trkpt lat="43.23612" lon="5.67041">
        <ele>395.76953125</ele>
        <time>2020-09-13T07:08:11Z</time>
      </trkpt>
      <trkpt lat="43.23618" lon="5.6704">
        <ele>396.06640625</ele>
        <time>2020-09-13T07:08:12Z</time>
      </trkpt>
      <trkpt lat="43.23624" lon="5.67039">
        <ele>396.421875</ele>
        <time>2020-09-13T07:08:13Z</time>
      </trkpt>
      <trkpt lat="43.23628" lon="5.67037">
        <ele>396.69140625</ele>
        <time>2020-09-13T07:08:14Z</time>
      </trkpt>
      <trkpt lat="43.23632" lon="5.67035">
        <ele>396.87109375</ele>
        <time>2020-09-13T07:08:15Z</time>
      </trkpt>
      <trkpt lat="43.23635" lon="5.67033">
        <ele>397.0625</ele>
        <time>2020-09-13T07:08:16Z</time>
      </trkpt>
      <trkpt lat="43.23639" lon="5.67032">
        <ele>397.25390625</ele>
        <time>2020-09-13T07:08:17Z</time>
      </trkpt>
      <trkpt lat="43.23642" lon="5.67031">
        <ele>397.41796875</ele>
        <time>2020-09-13T07:08:18Z</time>
      </trkpt>
      <trkpt lat="43.23657" lon="5.67027">
        <ele>398.859375</ele>
        <time>2020-09-13T07:08:24Z</time>
      </trkpt>
      <trkpt lat="43.23683" lon="5.67022">
        <ele>401.09765625</ele>
        <time>2020-09-13T07:08:36Z</time>
      </trkpt>
      <trkpt lat="43.23687" lon="5.67028">
        <ele>401.546875</ele>
        <time>2020-09-13T07:08:39Z</time>
      </trkpt>
      <trkpt lat="43.23691" lon="5.67071">
        <ele>402.453125</ele>
        <time>2020-09-13T07:08:53Z</time>
      </trkpt>
      <trkpt lat="43.23698" lon="5.67123">
        <ele>404.73046875</ele>
        <time>2020-09-13T07:09:07Z</time>
      </trkpt>
      <trkpt lat="43.23714" lon="5.67178">
        <ele>407.03515625</ele>
        <time>2020-09-13T07:09:23Z</time>
      </trkpt>
      <trkpt lat="43.23726" lon="5.67222">
        <ele>408.5390625</ele>
        <time>2020-09-13T07:09:38Z</time>
      </trkpt>
      <trkpt lat="43.23731" lon="5.67227">
        <ele>408.77734375</ele>
        <time>2020-09-13T07:09:41Z</time>
      </trkpt>
      <trkpt lat="43.23732" lon="5.67229">
        <ele>408.8125</ele>
        <time>2020-09-13T07:09:42Z</time>
      </trkpt>
      <trkpt lat="43.23742" lon="5.67243">
        <ele>409.63671875</ele>
        <time>2020-09-13T07:09:50Z</time>
      </trkpt>
      <trkpt lat="43.23743" lon="5.67244">
        <ele>409.7734375</ele>
        <time>2020-09-13T07:09:51Z</time>
      </trkpt>
      <trkpt lat="43.23744" lon="5.67246">
        <ele>409.88671875</ele>
        <time>2020-09-13T07:09:52Z</time>
      </trkpt>
      <trkpt lat="43.23745" lon="5.67248">
        <ele>410.0078125</ele>
        <time>2020-09-13T07:09:53Z</time>
      </trkpt>
      <trkpt lat="43.23747" lon="5.67249">
        <ele>410.14453125</ele>
        <time>2020-09-13T07:09:54Z</time>
      </trkpt>
      <trkpt lat="43.23748" lon="5.6725">
        <ele>410.29296875</ele>
        <time>2020-09-13T07:09:55Z</time>
      </trkpt>
      <trkpt lat="43.23749" lon="5.67252">
        <ele>410.44140625</ele>
        <time>2020-09-13T07:09:56Z</time>
      </trkpt>
      <trkpt lat="43.23751" lon="5.67254">
        <ele>410.5859375</ele>
        <time>2020-09-13T07:09:57Z</time>
      </trkpt>
      <trkpt lat="43.23752" lon="5.67256">
        <ele>410.74609375</ele>
        <time>2020-09-13T07:09:58Z</time>
      </trkpt>
      <trkpt lat="43.23754" lon="5.67257">
        <ele>410.91015625</ele>
        <time>2020-09-13T07:09:59Z</time>
      </trkpt>
      <trkpt lat="43.23755" lon="5.67258">
        <ele>411.0546875</ele>
        <time>2020-09-13T07:10:00Z</time>
      </trkpt>
      <trkpt lat="43.23757" lon="5.67259">
        <ele>411.171875</ele>
        <time>2020-09-13T07:10:01Z</time>
      </trkpt>
      <trkpt lat="43.23758" lon="5.67259">
        <ele>411.26171875</ele>
        <time>2020-09-13T07:10:02Z</time>
      </trkpt>
      <trkpt lat="43.23759" lon="5.6726">
        <ele>411.3515625</ele>
        <time>2020-09-13T07:10:03Z</time>
      </trkpt>
      <trkpt lat="43.2376" lon="5.67261">
        <ele>411.42578125</ele>
        <time>2020-09-13T07:10:04Z</time>
      </trkpt>
      <trkpt lat="43.23761" lon="5.67262">
        <ele>411.50390625</ele>
        <time>2020-09-13T07:10:05Z</time>
      </trkpt>
      <trkpt lat="43.23778" lon="5.67285">
        <ele>412.625</ele>
        <time>2020-09-13T07:10:21Z</time>
      </trkpt>
      <trkpt lat="43.23786" lon="5.67294">
        <ele>413.29296875</ele>
        <time>2020-09-13T07:10:28Z</time>
      </trkpt>
      <trkpt lat="43.2381" lon="5.67326">
        <ele>414.81640625</ele>
        <time>2020-09-13T07:10:44Z</time>
      </trkpt>
      <trkpt lat="43.23833" lon="5.67342">
        <ele>416.35546875</ele>
        <time>2020-09-13T07:10:58Z</time>
      </trkpt>
      <trkpt lat="43.23846" lon="5.67348">
        <ele>417.6171875</ele>
        <time>2020-09-13T07:11:07Z</time>
      </trkpt>
      <trkpt lat="43.23847" lon="5.6735">
        <ele>417.6875</ele>
        <time>2020-09-13T07:11:08Z</time>
      </trkpt>
      <trkpt lat="43.23849" lon="5.67352">
        <ele>417.77734375</ele>
        <time>2020-09-13T07:11:09Z</time>
      </trkpt>
      <trkpt lat="43.2385" lon="5.67353">
        <ele>417.87109375</ele>
        <time>2020-09-13T07:11:10Z</time>
      </trkpt>
      <trkpt lat="43.23851" lon="5.67354">
        <ele>417.94140625</ele>
        <time>2020-09-13T07:11:11Z</time>
      </trkpt>
      <trkpt lat="43.23852" lon="5.67356">
        <ele>418.0234375</ele>
        <time>2020-09-13T07:11:12Z</time>
      </trkpt>
      <trkpt lat="43.2387" lon="5.67378">
        <ele>419.18359375</ele>
        <time>2020-09-13T07:11:27Z</time>
      </trkpt>
      <trkpt lat="43.23886" lon="5.674">
        <ele>420.39453125</ele>
        <time>2020-09-13T07:11:40Z</time>
      </trkpt>
      <trkpt lat="43.23888" lon="5.67402">
        <ele>420.515625</ele>
        <time>2020-09-13T07:11:41Z</time>
      </trkpt>
      <trkpt lat="43.23889" lon="5.67403">
        <ele>420.640625</ele>
        <time>2020-09-13T07:11:42Z</time>
      </trkpt>
      <trkpt lat="43.2389" lon="5.67405">
        <ele>420.73828125</ele>
        <time>2020-09-13T07:11:43Z</time>
      </trkpt>
      <trkpt lat="43.23891" lon="5.67407">
        <ele>420.81640625</ele>
        <time>2020-09-13T07:11:44Z</time>
      </trkpt>
      <trkpt lat="43.23892" lon="5.67408">
        <ele>420.92578125</ele>
        <time>2020-09-13T07:11:45Z</time>
      </trkpt>
      <trkpt lat="43.23894" lon="5.6741">
        <ele>421.015625</ele>
        <time>2020-09-13T07:11:46Z</time>
      </trkpt>
      <trkpt lat="43.23895" lon="5.67412">
        <ele>421.05859375</ele>
        <time>2020-09-13T07:11:47Z</time>
      </trkpt>
      <trkpt lat="43.23896" lon="5.67414">
        <ele>421.09375</ele>
        <time>2020-09-13T07:11:48Z</time>
      </trkpt>
      <trkpt lat="43.23918" lon="5.67436">
        <ele>421.8828125</ele>
        <time>2020-09-13T07:12:04Z</time>
      </trkpt>
      <trkpt lat="43.23941" lon="5.67448">
        <ele>422.70703125</ele>
        <time>2020-09-13T07:12:18Z</time>
      </trkpt>
      <trkpt lat="43.23957" lon="5.67468">
        <ele>423.7890625</ele>
        <time>2020-09-13T07:12:30Z</time>
      </trkpt>
      <trkpt lat="43.23979" lon="5.67492">
        <ele>425.078125</ele>
        <time>2020-09-13T07:12:44Z</time>
      </trkpt>
      <trkpt lat="43.24004" lon="5.67513">
        <ele>425.97265625</ele>
        <time>2020-09-13T07:12:59Z</time>
      </trkpt>
      <trkpt lat="43.24028" lon="5.67539">
        <ele>426.84765625</ele>
        <time>2020-09-13T07:13:14Z</time>
      </trkpt>
      <trkpt lat="43.24042" lon="5.67563">
        <ele>427.34765625</ele>
        <time>2020-09-13T07:13:26Z</time>
      </trkpt>
      <trkpt lat="43.24048" lon="5.67599">
        <ele>427.56640625</ele>
        <time>2020-09-13T07:13:40Z</time>
      </trkpt>
      <trkpt lat="43.24062" lon="5.67633">
        <ele>428.1484375</ele>
        <time>2020-09-13T07:13:53Z</time>
      </trkpt>
      <trkpt lat="43.24091" lon="5.67651">
        <ele>430.12109375</ele>
        <time>2020-09-13T07:14:06Z</time>
      </trkpt>
      <trkpt lat="43.24099" lon="5.67651">
        <ele>430.4140625</ele>
        <time>2020-09-13T07:14:10Z</time>
      </trkpt>
      <trkpt lat="43.24101" lon="5.6765">
        <ele>430.4921875</ele>
        <time>2020-09-13T07:14:11Z</time>
      </trkpt>
      <trkpt lat="43.24103" lon="5.67649">
        <ele>430.5703125</ele>
        <time>2020-09-13T07:14:12Z</time>
      </trkpt>
      <trkpt lat="43.2413" lon="5.67635">
        <ele>431.51953125</ele>
        <time>2020-09-13T07:14:24Z</time>
      </trkpt>
      <trkpt lat="43.24143" lon="5.67631">
        <ele>432.00390625</ele>
        <time>2020-09-13T07:14:30Z</time>
      </trkpt>
      <trkpt lat="43.24146" lon="5.67632">
        <ele>432.09375</ele>
        <time>2020-09-13T07:14:31Z</time>
      </trkpt>
      <trkpt lat="43.24148" lon="5.67633">
        <ele>432.171875</ele>
        <time>2020-09-13T07:14:32Z</time>
      </trkpt>
      <trkpt lat="43.24167" lon="5.67653">
        <ele>432.87109375</ele>
        <time>2020-09-13T07:14:42Z</time>
      </trkpt>
      <trkpt lat="43.24168" lon="5.67656">
        <ele>432.9140625</ele>
        <time>2020-09-13T07:14:43Z</time>
      </trkpt>
      <trkpt lat="43.2417" lon="5.67658">
        <ele>432.96875</ele>
        <time>2020-09-13T07:14:44Z</time>
      </trkpt>
      <trkpt lat="43.24172" lon="5.6766">
        <ele>433.04296875</ele>
        <time>2020-09-13T07:14:45Z</time>
      </trkpt>
      <trkpt lat="43.24174" lon="5.67661">
        <ele>433.125</ele>
        <time>2020-09-13T07:14:46Z</time>
      </trkpt>
      <trkpt lat="43.24175" lon="5.67663">
        <ele>433.2109375</ele>
        <time>2020-09-13T07:14:47Z</time>
      </trkpt>
      <trkpt lat="43.24201" lon="5.67682">
        <ele>435.1015625</ele>
        <time>2020-09-13T07:15:01Z</time>
      </trkpt>
      <trkpt lat="43.24216" lon="5.67702">
        <ele>435.6171875</ele>
        <time>2020-09-13T07:15:11Z</time>
      </trkpt>
      <trkpt lat="43.24217" lon="5.67704">
        <ele>435.671875</ele>
        <time>2020-09-13T07:15:12Z</time>
      </trkpt>
      <trkpt lat="43.24219" lon="5.67707">
        <ele>435.734375</ele>
        <time>2020-09-13T07:15:13Z</time>
      </trkpt>
      <trkpt lat="43.24221" lon="5.67709">
        <ele>435.80078125</ele>
        <time>2020-09-13T07:15:14Z</time>
      </trkpt>
      <trkpt lat="43.24223" lon="5.67711">
        <ele>435.9140625</ele>
        <time>2020-09-13T07:15:15Z</time>
      </trkpt>
      <trkpt lat="43.24241" lon="5.67733">
        <ele>437.453125</ele>
        <time>2020-09-13T07:15:27Z</time>
      </trkpt>
      <trkpt lat="43.24262" lon="5.67747">
        <ele>438.92578125</ele>
        <time>2020-09-13T07:15:39Z</time>
      </trkpt>
      <trkpt lat="43.24282" lon="5.67761">
        <ele>440.859375</ele>
        <time>2020-09-13T07:15:51Z</time>
      </trkpt>
      <trkpt lat="43.24304" lon="5.67784">
        <ele>442.3203125</ele>
        <time>2020-09-13T07:16:05Z</time>
      </trkpt>
      <trkpt lat="43.24321" lon="5.678">
        <ele>444.0546875</ele>
        <time>2020-09-13T07:16:17Z</time>
      </trkpt>
      <trkpt lat="43.24337" lon="5.67821">
        <ele>446.00390625</ele>
        <time>2020-09-13T07:16:28Z</time>
      </trkpt>
      <trkpt lat="43.24339" lon="5.67822">
        <ele>446.0703125</ele>
        <time>2020-09-13T07:16:29Z</time>
      </trkpt>
      <trkpt lat="43.24341" lon="5.67824">
        <ele>446.125</ele>
        <time>2020-09-13T07:16:30Z</time>
      </trkpt>
      <trkpt lat="43.24342" lon="5.67826">
        <ele>446.1796875</ele>
        <time>2020-09-13T07:16:31Z</time>
      </trkpt>
      <trkpt lat="43.24343" lon="5.67828">
        <ele>446.2421875</ele>
        <time>2020-09-13T07:16:32Z</time>
      </trkpt>
      <trkpt lat="43.2436" lon="5.67848">
        <ele>447.62890625</ele>
        <time>2020-09-13T07:16:45Z</time>
      </trkpt>
      <trkpt lat="43.24383" lon="5.67861">
        <ele>448.90234375</ele>
        <time>2020-09-13T07:16:59Z</time>
      </trkpt>
      <trkpt lat="43.24386" lon="5.67862">
        <ele>449.1484375</ele>
        <time>2020-09-13T07:17:01Z</time>
      </trkpt>
      <trkpt lat="43.24388" lon="5.67864">
        <ele>449.3046875</ele>
        <time>2020-09-13T07:17:02Z</time>
      </trkpt>
      <trkpt lat="43.2439" lon="5.67866">
        <ele>449.453125</ele>
        <time>2020-09-13T07:17:03Z</time>
      </trkpt>
      <trkpt lat="43.24405" lon="5.67889">
        <ele>450.6640625</ele>
        <time>2020-09-13T07:17:16Z</time>
      </trkpt>
      <trkpt lat="43.24417" lon="5.67914">
        <ele>451.76171875</ele>
        <time>2020-09-13T07:17:28Z</time>
      </trkpt>
      <trkpt lat="43.24436" lon="5.67938">
        <ele>451.328125</ele>
        <time>2020-09-13T07:17:42Z</time>
      </trkpt>
      <trkpt lat="43.24444" lon="5.67951">
        <ele>451.046875</ele>
        <time>2020-09-13T07:17:48Z</time>
      </trkpt>
      <trkpt lat="43.2445" lon="5.67976">
        <ele>451.02734375</ele>
        <time>2020-09-13T07:17:59Z</time>
      </trkpt>
      <trkpt lat="43.24459" lon="5.68003">
        <ele>451.375</ele>
        <time>2020-09-13T07:18:10Z</time>
      </trkpt>
      <trkpt lat="43.24459" lon="5.68006">
        <ele>451.3828125</ele>
        <time>2020-09-13T07:18:11Z</time>
      </trkpt>
      <trkpt lat="43.24459" lon="5.68008">
        <ele>451.390625</ele>
        <time>2020-09-13T07:18:12Z</time>
      </trkpt>
      <trkpt lat="43.24459" lon="5.68011">
        <ele>451.390625</ele>
        <time>2020-09-13T07:18:13Z</time>
      </trkpt>
      <trkpt lat="43.24459" lon="5.68014">
        <ele>451.390625</ele>
        <time>2020-09-13T07:18:14Z</time>
      </trkpt>
      <trkpt lat="43.24459" lon="5.68016">
        <ele>451.3828125</ele>
        <time>2020-09-13T07:18:15Z</time>
      </trkpt>
      <trkpt lat="43.24459" lon="5.68019">
        <ele>451.390625</ele>
        <time>2020-09-13T07:18:16Z</time>
      </trkpt>
      <trkpt lat="43.2446" lon="5.68022">
        <ele>451.41015625</ele>
        <time>2020-09-13T07:18:17Z</time>
      </trkpt>
      <trkpt lat="43.24461" lon="5.68039">
        <ele>451.44140625</ele>
        <time>2020-09-13T07:18:22Z</time>
      </trkpt>
      <trkpt lat="43.24461" lon="5.68041">
        <ele>451.43359375</ele>
        <time>2020-09-13T07:18:23Z</time>
      </trkpt>
      <trkpt lat="43.24456" lon="5.68087">
        <ele>451.11328125</ele>
        <time>2020-09-13T07:18:35Z</time>
      </trkpt>
      <trkpt lat="43.24437" lon="5.68118">
        <ele>450.28125</ele>
        <time>2020-09-13T07:18:47Z</time>
      </trkpt>
      <trkpt lat="43.24436" lon="5.68122">
        <ele>450.15234375</ele>
        <time>2020-09-13T07:18:48Z</time>
      </trkpt>
      <trkpt lat="43.24435" lon="5.68125">
        <ele>450.0234375</ele>
        <time>2020-09-13T07:18:49Z</time>
      </trkpt>
      <trkpt lat="43.24435" lon="5.68129">
        <ele>449.94140625</ele>
        <time>2020-09-13T07:18:50Z</time>
      </trkpt>
      <trkpt lat="43.24433" lon="5.68133">
        <ele>449.88671875</ele>
        <time>2020-09-13T07:18:51Z</time>
      </trkpt>
      <trkpt lat="43.24432" lon="5.68136">
        <ele>449.84375</ele>
        <time>2020-09-13T07:18:52Z</time>
      </trkpt>
      <trkpt lat="43.24431" lon="5.6814">
        <ele>449.8125</ele>
        <time>2020-09-13T07:18:53Z</time>
      </trkpt>
      <trkpt lat="43.24415" lon="5.68211">
        <ele>446.30859375</ele>
        <time>2020-09-13T07:19:09Z</time>
      </trkpt>
      <trkpt lat="43.24396" lon="5.68268">
        <ele>444.50390625</ele>
        <time>2020-09-13T07:19:22Z</time>
      </trkpt>
      <trkpt lat="43.24401" lon="5.6833">
        <ele>442.37109375</ele>
        <time>2020-09-13T07:19:36Z</time>
      </trkpt>
      <trkpt lat="43.24414" lon="5.68397">
        <ele>438.98828125</ele>
        <time>2020-09-13T07:19:53Z</time>
      </trkpt>
      <trkpt lat="43.24419" lon="5.68444">
        <ele>436.43359375</ele>
        <time>2020-09-13T07:20:03Z</time>
      </trkpt>
      <trkpt lat="43.24417" lon="5.6845">
        <ele>436.15625</ele>
        <time>2020-09-13T07:20:04Z</time>
      </trkpt>
      <trkpt lat="43.24415" lon="5.68457">
        <ele>435.98828125</ele>
        <time>2020-09-13T07:20:05Z</time>
      </trkpt>
      <trkpt lat="43.24412" lon="5.68464">
        <ele>435.90625</ele>
        <time>2020-09-13T07:20:06Z</time>
      </trkpt>
      <trkpt lat="43.24409" lon="5.6847">
        <ele>435.94921875</ele>
        <time>2020-09-13T07:20:07Z</time>
      </trkpt>
      <trkpt lat="43.24404" lon="5.68477">
        <ele>436.10546875</ele>
        <time>2020-09-13T07:20:08Z</time>
      </trkpt>
      <trkpt lat="43.244" lon="5.68483">
        <ele>436.3515625</ele>
        <time>2020-09-13T07:20:09Z</time>
      </trkpt>
      <trkpt lat="43.24346" lon="5.68546">
        <ele>434.34375</ele>
        <time>2020-09-13T07:20:18Z</time>
      </trkpt>
      <trkpt lat="43.24332" lon="5.68557">
        <ele>433.421875</ele>
        <time>2020-09-13T07:20:20Z</time>
      </trkpt>
      <trkpt lat="43.24316" lon="5.68568">
        <ele>432.234375</ele>
        <time>2020-09-13T07:20:22Z</time>
      </trkpt>
      <trkpt lat="43.24287" lon="5.68594">
        <ele>430.29296875</ele>
        <time>2020-09-13T07:20:26Z</time>
      </trkpt>
      <trkpt lat="43.24223" lon="5.6865">
        <ele>424.6171875</ele>
        <time>2020-09-13T07:20:35Z</time>
      </trkpt>
      <trkpt lat="43.24202" lon="5.68668">
        <ele>424.30859375</ele>
        <time>2020-09-13T07:20:38Z</time>
      </trkpt>
      <trkpt lat="43.24172" lon="5.68692">
        <ele>422.1953125</ele>
        <time>2020-09-13T07:20:42Z</time>
      </trkpt>
      <trkpt lat="43.24136" lon="5.68721">
        <ele>420.12890625</ele>
        <time>2020-09-13T07:20:47Z</time>
      </trkpt>
      <trkpt lat="43.24119" lon="5.68736">
        <ele>419.078125</ele>
        <time>2020-09-13T07:20:50Z</time>
      </trkpt>
      <trkpt lat="43.24062" lon="5.68789">
        <ele>416.16015625</ele>
        <time>2020-09-13T07:21:00Z</time>
      </trkpt>
      <trkpt lat="43.24056" lon="5.68794">
        <ele>415.9453125</ele>
        <time>2020-09-13T07:21:01Z</time>
      </trkpt>
      <trkpt lat="43.24035" lon="5.68815">
        <ele>415.8984375</ele>
        <time>2020-09-13T07:21:06Z</time>
      </trkpt>
      <trkpt lat="43.24036" lon="5.6882">
        <ele>415.87109375</ele>
        <time>2020-09-13T07:21:07Z</time>
      </trkpt>
      <trkpt lat="43.24038" lon="5.68823">
        <ele>415.69140625</ele>
        <time>2020-09-13T07:21:08Z</time>
      </trkpt>
      <trkpt lat="43.2404" lon="5.68826">
        <ele>415.4765625</ele>
        <time>2020-09-13T07:21:09Z</time>
      </trkpt>
      <trkpt lat="43.24042" lon="5.68831">
        <ele>415.25390625</ele>
        <time>2020-09-13T07:21:10Z</time>
      </trkpt>
      <trkpt lat="43.24043" lon="5.68835">
        <ele>415.07421875</ele>
        <time>2020-09-13T07:21:11Z</time>
      </trkpt>
      <trkpt lat="43.24046" lon="5.68846">
        <ele>414.578125</ele>
        <time>2020-09-13T07:21:14Z</time>
      </trkpt>
      <trkpt lat="43.24046" lon="5.68849">
        <ele>414.5234375</ele>
        <time>2020-09-13T07:21:15Z</time>
      </trkpt>
      <trkpt lat="43.24046" lon="5.68851">
        <ele>414.57421875</ele>
        <time>2020-09-13T07:21:16Z</time>
      </trkpt>
      <trkpt lat="43.24046" lon="5.68857">
        <ele>414.6875</ele>
        <time>2020-09-13T07:21:28Z</time>
      </trkpt>
      <trkpt lat="43.24047" lon="5.68858">
        <ele>414.65625</ele>
        <time>2020-09-13T07:22:00Z</time>
      </trkpt>
      <trkpt lat="43.24048" lon="5.68859">
        <ele>414.5859375</ele>
        <time>2020-09-13T07:22:27Z</time>
      </trkpt>
      <trkpt lat="43.2405" lon="5.68859">
        <ele>414.5078125</ele>
        <time>2020-09-13T07:22:28Z</time>
      </trkpt>
      <trkpt lat="43.24052" lon="5.6886">
        <ele>414.421875</ele>
        <time>2020-09-13T07:22:29Z</time>
      </trkpt>
      <trkpt lat="43.24054" lon="5.68861">
        <ele>414.328125</ele>
        <time>2020-09-13T07:22:30Z</time>
      </trkpt>
      <trkpt lat="43.24056" lon="5.68863">
        <ele>414.203125</ele>
        <time>2020-09-13T07:22:31Z</time>
      </trkpt>
      <trkpt lat="43.24088" lon="5.68891">
        <ele>413.54296875</ele>
        <time>2020-09-13T07:22:42Z</time>
      </trkpt>
      <trkpt lat="43.2409" lon="5.6889">
        <ele>413.37109375</ele>
        <time>2020-09-13T07:22:53Z</time>
      </trkpt>
      <trkpt lat="43.2409" lon="5.68891">
        <ele>413.41796875</ele>
        <time>2020-09-13T07:23:13Z</time>
      </trkpt>
      <trkpt lat="43.2411" lon="5.68888">
        <ele>412.21484375</ele>
        <time>2020-09-13T07:23:20Z</time>
      </trkpt>
      <trkpt lat="43.2412" lon="5.68887">
        <ele>411.57421875</ele>
        <time>2020-09-13T07:23:22Z</time>
      </trkpt>
      <trkpt lat="43.24126" lon="5.68887">
        <ele>411.28125</ele>
        <time>2020-09-13T07:23:23Z</time>
      </trkpt>
      <trkpt lat="43.24141" lon="5.68885">
        <ele>410.43359375</ele>
        <time>2020-09-13T07:23:27Z</time>
      </trkpt>
      <trkpt lat="43.24157" lon="5.68882">
        <ele>409.70703125</ele>
        <time>2020-09-13T07:23:38Z</time>
      </trkpt>
      <trkpt lat="43.24172" lon="5.68885">
        <ele>409.26171875</ele>
        <time>2020-09-13T07:23:43Z</time>
      </trkpt>
      <trkpt lat="43.24186" lon="5.68889">
        <ele>408.671875</ele>
        <time>2020-09-13T07:23:46Z</time>
      </trkpt>
      <trkpt lat="43.24208" lon="5.68892">
        <ele>407.3359375</ele>
        <time>2020-09-13T07:23:50Z</time>
      </trkpt>
      <trkpt lat="43.24213" lon="5.68892">
        <ele>406.77734375</ele>
        <time>2020-09-13T07:23:51Z</time>
      </trkpt>
      <trkpt lat="43.2422" lon="5.68891">
        <ele>406.16796875</ele>
        <time>2020-09-13T07:23:52Z</time>
      </trkpt>
      <trkpt lat="43.24226" lon="5.68891">
        <ele>405.59375</ele>
        <time>2020-09-13T07:23:53Z</time>
      </trkpt>
      <trkpt lat="43.24232" lon="5.68892">
        <ele>404.96875</ele>
        <time>2020-09-13T07:23:54Z</time>
      </trkpt>
      <trkpt lat="43.24238" lon="5.68893">
        <ele>404.37890625</ele>
        <time>2020-09-13T07:23:55Z</time>
      </trkpt>
      <trkpt lat="43.24244" lon="5.68895">
        <ele>403.8125</ele>
        <time>2020-09-13T07:23:56Z</time>
      </trkpt>
      <trkpt lat="43.2425" lon="5.68897">
        <ele>403.26171875</ele>
        <time>2020-09-13T07:23:57Z</time>
      </trkpt>
      <trkpt lat="43.24255" lon="5.68898">
        <ele>402.703125</ele>
        <time>2020-09-13T07:23:58Z</time>
      </trkpt>
      <trkpt lat="43.24261" lon="5.68899">
        <ele>402.17578125</ele>
        <time>2020-09-13T07:23:59Z</time>
      </trkpt>
      <trkpt lat="43.24277" lon="5.68904">
        <ele>400.5546875</ele>
        <time>2020-09-13T07:24:02Z</time>
      </trkpt>
      <trkpt lat="43.24292" lon="5.68907">
        <ele>398.91015625</ele>
        <time>2020-09-13T07:24:05Z</time>
      </trkpt>
      <trkpt lat="43.24297" lon="5.6891">
        <ele>398.3671875</ele>
        <time>2020-09-13T07:24:06Z</time>
      </trkpt>
      <trkpt lat="43.24302" lon="5.68914">
        <ele>397.828125</ele>
        <time>2020-09-13T07:24:07Z</time>
      </trkpt>
      <trkpt lat="43.24307" lon="5.68918">
        <ele>397.30859375</ele>
        <time>2020-09-13T07:24:08Z</time>
      </trkpt>
      <trkpt lat="43.24311" lon="5.68923">
        <ele>396.8359375</ele>
        <time>2020-09-13T07:24:09Z</time>
      </trkpt>
      <trkpt lat="43.24315" lon="5.68927">
        <ele>396.41796875</ele>
        <time>2020-09-13T07:24:10Z</time>
      </trkpt>
      <trkpt lat="43.24321" lon="5.68933">
        <ele>395.88671875</ele>
        <time>2020-09-13T07:24:13Z</time>
      </trkpt>
      <trkpt lat="43.24328" lon="5.68967">
        <ele>397.16796875</ele>
        <time>2020-09-13T07:24:26Z</time>
      </trkpt>
      <trkpt lat="43.24331" lon="5.68997">
        <ele>400.1953125</ele>
        <time>2020-09-13T07:24:36Z</time>
      </trkpt>
      <trkpt lat="43.24333" lon="5.68999">
        <ele>400.25390625</ele>
        <time>2020-09-13T07:24:37Z</time>
      </trkpt>
      <trkpt lat="43.24336" lon="5.69">
        <ele>400.13671875</ele>
        <time>2020-09-13T07:24:38Z</time>
      </trkpt>
      <trkpt lat="43.24338" lon="5.69002">
        <ele>400.0625</ele>
        <time>2020-09-13T07:24:39Z</time>
      </trkpt>
      <trkpt lat="43.2434" lon="5.69003">
        <ele>400.12109375</ele>
        <time>2020-09-13T07:24:40Z</time>
      </trkpt>
      <trkpt lat="43.24343" lon="5.69005">
        <ele>400.16015625</ele>
        <time>2020-09-13T07:24:41Z</time>
      </trkpt>
      <trkpt lat="43.24345" lon="5.69006">
        <ele>400.20703125</ele>
        <time>2020-09-13T07:24:42Z</time>
      </trkpt>
      <trkpt lat="43.24347" lon="5.69008">
        <ele>400.36328125</ele>
        <time>2020-09-13T07:24:43Z</time>
      </trkpt>
      <trkpt lat="43.24349" lon="5.6901">
        <ele>400.53125</ele>
        <time>2020-09-13T07:24:44Z</time>
      </trkpt>
      <trkpt lat="43.24351" lon="5.69012">
        <ele>400.671875</ele>
        <time>2020-09-13T07:24:45Z</time>
      </trkpt>
      <trkpt lat="43.24353" lon="5.69014">
        <ele>400.8125</ele>
        <time>2020-09-13T07:24:46Z</time>
      </trkpt>
      <trkpt lat="43.24365" lon="5.69026">
        <ele>401.24609375</ele>
        <time>2020-09-13T07:24:52Z</time>
      </trkpt>
      <trkpt lat="43.24388" lon="5.69051">
        <ele>401.1796875</ele>
        <time>2020-09-13T07:25:05Z</time>
      </trkpt>
      <trkpt lat="43.24408" lon="5.69083">
        <ele>399.8671875</ele>
        <time>2020-09-13T07:25:18Z</time>
      </trkpt>
      <trkpt lat="43.24412" lon="5.69117">
        <ele>401.49609375</ele>
        <time>2020-09-13T07:25:29Z</time>
      </trkpt>
      <trkpt lat="43.24413" lon="5.69125">
        <ele>402.015625</ele>
        <time>2020-09-13T07:25:41Z</time>
      </trkpt>
      <trkpt lat="43.24415" lon="5.69126">
        <ele>401.55078125</ele>
        <time>2020-09-13T07:26:03Z</time>
      </trkpt>
      <trkpt lat="43.24416" lon="5.69147">
        <ele>402.69140625</ele>
        <time>2020-09-13T07:26:16Z</time>
      </trkpt>
      <trkpt lat="43.24416" lon="5.69157">
        <ele>403.40625</ele>
        <time>2020-09-13T07:26:20Z</time>
      </trkpt>
      <trkpt lat="43.24416" lon="5.6916">
        <ele>403.46484375</ele>
        <time>2020-09-13T07:26:21Z</time>
      </trkpt>
      <trkpt lat="43.24418" lon="5.69197">
        <ele>406.41796875</ele>
        <time>2020-09-13T07:26:35Z</time>
      </trkpt>
      <trkpt lat="43.24419" lon="5.69236">
        <ele>412.21484375</ele>
        <time>2020-09-13T07:26:48Z</time>
      </trkpt>
      <trkpt lat="43.24435" lon="5.69269">
        <ele>416.70703125</ele>
        <time>2020-09-13T07:27:02Z</time>
      </trkpt>
      <trkpt lat="43.24449" lon="5.6929">
        <ele>419.5390625</ele>
        <time>2020-09-13T07:27:12Z</time>
      </trkpt>
      <trkpt lat="43.24451" lon="5.69291">
        <ele>419.6953125</ele>
        <time>2020-09-13T07:27:13Z</time>
      </trkpt>
      <trkpt lat="43.24452" lon="5.69293">
        <ele>419.82421875</ele>
        <time>2020-09-13T07:27:14Z</time>
      </trkpt>
      <trkpt lat="43.24474" lon="5.69316">
        <ele>421.54296875</ele>
        <time>2020-09-13T07:27:28Z</time>
      </trkpt>
      <trkpt lat="43.24492" lon="5.69336">
        <ele>423.38671875</ele>
        <time>2020-09-13T07:27:40Z</time>
      </trkpt>
      <trkpt lat="43.2451" lon="5.69364">
        <ele>424.4453125</ele>
        <time>2020-09-13T07:27:53Z</time>
      </trkpt>
      <trkpt lat="43.24523" lon="5.6938">
        <ele>424.1484375</ele>
        <time>2020-09-13T07:28:03Z</time>
      </trkpt>
      <trkpt lat="43.24525" lon="5.69379">
        <ele>424.1015625</ele>
        <time>2020-09-13T07:28:16Z</time>
      </trkpt>
      <trkpt lat="43.24526" lon="5.69378">
        <ele>424.11328125</ele>
        <time>2020-09-13T07:28:39Z</time>
      </trkpt>
      <trkpt lat="43.24524" lon="5.69376">
        <ele>424.25</ele>
        <time>2020-09-13T07:29:09Z</time>
      </trkpt>
      <trkpt lat="43.24535" lon="5.69379">
        <ele>423.96875</ele>
        <time>2020-09-13T07:29:29Z</time>
      </trkpt>
      <trkpt lat="43.24558" lon="5.69389">
        <ele>424.453125</ele>
        <time>2020-09-13T07:29:42Z</time>
      </trkpt>
      <trkpt lat="43.2458" lon="5.6939">
        <ele>425.56640625</ele>
        <time>2020-09-13T07:29:55Z</time>
      </trkpt>
      <trkpt lat="43.24585" lon="5.69394">
        <ele>425.57421875</ele>
        <time>2020-09-13T07:29:58Z</time>
      </trkpt>
      <trkpt lat="43.24586" lon="5.69395">
        <ele>425.51171875</ele>
        <time>2020-09-13T07:29:59Z</time>
      </trkpt>
      <trkpt lat="43.24588" lon="5.69397">
        <ele>425.46484375</ele>
        <time>2020-09-13T07:30:00Z</time>
      </trkpt>
      <trkpt lat="43.2459" lon="5.69399">
        <ele>425.40625</ele>
        <time>2020-09-13T07:30:01Z</time>
      </trkpt>
      <trkpt lat="43.24591" lon="5.69401">
        <ele>425.3046875</ele>
        <time>2020-09-13T07:30:02Z</time>
      </trkpt>
      <trkpt lat="43.24618" lon="5.69427">
        <ele>426.25</ele>
        <time>2020-09-13T07:30:12Z</time>
      </trkpt>
      <trkpt lat="43.24624" lon="5.69429">
        <ele>426.609375</ele>
        <time>2020-09-13T07:30:13Z</time>
      </trkpt>
      <trkpt lat="43.24628" lon="5.69429">
        <ele>426.953125</ele>
        <time>2020-09-13T07:30:14Z</time>
      </trkpt>
      <trkpt lat="43.2466" lon="5.69436">
        <ele>429.44921875</ele>
        <time>2020-09-13T07:30:24Z</time>
      </trkpt>
      <trkpt lat="43.24664" lon="5.69455">
        <ele>430.40625</ele>
        <time>2020-09-13T07:30:28Z</time>
      </trkpt>
      <trkpt lat="43.2466" lon="5.69468">
        <ele>430.52734375</ele>
        <time>2020-09-13T07:30:32Z</time>
      </trkpt>
      <trkpt lat="43.24658" lon="5.69468">
        <ele>430.44921875</ele>
        <time>2020-09-13T07:30:33Z</time>
      </trkpt>
      <trkpt lat="43.24656" lon="5.69465">
        <ele>430.21875</ele>
        <time>2020-09-13T07:30:43Z</time>
      </trkpt>
      <trkpt lat="43.24655" lon="5.69463">
        <ele>430.03515625</ele>
        <time>2020-09-13T07:30:44Z</time>
      </trkpt>
      <trkpt lat="43.24653" lon="5.69459">
        <ele>429.796875</ele>
        <time>2020-09-13T07:30:45Z</time>
      </trkpt>
      <trkpt lat="43.24651" lon="5.69455">
        <ele>429.484375</ele>
        <time>2020-09-13T07:30:46Z</time>
      </trkpt>
      <trkpt lat="43.24648" lon="5.69453">
        <ele>429.1484375</ele>
        <time>2020-09-13T07:30:47Z</time>
      </trkpt>
      <trkpt lat="43.24643" lon="5.69453">
        <ele>428.83203125</ele>
        <time>2020-09-13T07:30:48Z</time>
      </trkpt>
      <trkpt lat="43.24639" lon="5.69454">
        <ele>428.41796875</ele>
        <time>2020-09-13T07:30:49Z</time>
      </trkpt>
      <trkpt lat="43.24633" lon="5.69458">
        <ele>427.97265625</ele>
        <time>2020-09-13T07:30:50Z</time>
      </trkpt>
      <trkpt lat="43.24628" lon="5.69462">
        <ele>427.49609375</ele>
        <time>2020-09-13T07:30:51Z</time>
      </trkpt>
      <trkpt lat="43.24621" lon="5.69465">
        <ele>426.9296875</ele>
        <time>2020-09-13T07:30:52Z</time>
      </trkpt>
      <trkpt lat="43.24615" lon="5.69469">
        <ele>426.34765625</ele>
        <time>2020-09-13T07:30:53Z</time>
      </trkpt>
      <trkpt lat="43.24608" lon="5.69472">
        <ele>425.7734375</ele>
        <time>2020-09-13T07:30:54Z</time>
      </trkpt>
      <trkpt lat="43.24595" lon="5.69481">
        <ele>424.58203125</ele>
        <time>2020-09-13T07:30:56Z</time>
      </trkpt>
      <trkpt lat="43.24575" lon="5.69494">
        <ele>422.6875</ele>
        <time>2020-09-13T07:30:59Z</time>
      </trkpt>
      <trkpt lat="43.24566" lon="5.69501">
        <ele>421.7265625</ele>
        <time>2020-09-13T07:31:01Z</time>
      </trkpt>
      <trkpt lat="43.24564" lon="5.69506">
        <ele>421.4765625</ele>
        <time>2020-09-13T07:31:02Z</time>
      </trkpt>
      <trkpt lat="43.24548" lon="5.69532">
        <ele>419.1484375</ele>
        <time>2020-09-13T07:31:10Z</time>
      </trkpt>
      <trkpt lat="43.2454" lon="5.69535">
        <ele>417.578125</ele>
        <time>2020-09-13T07:31:12Z</time>
      </trkpt>
      <trkpt lat="43.24529" lon="5.69539">
        <ele>415.7734375</ele>
        <time>2020-09-13T07:31:14Z</time>
      </trkpt>
      <trkpt lat="43.24523" lon="5.69542">
        <ele>415.07421875</ele>
        <time>2020-09-13T07:31:15Z</time>
      </trkpt>
      <trkpt lat="43.24518" lon="5.69547">
        <ele>414.6484375</ele>
        <time>2020-09-13T07:31:16Z</time>
      </trkpt>
      <trkpt lat="43.24515" lon="5.69554">
        <ele>414.3203125</ele>
        <time>2020-09-13T07:31:17Z</time>
      </trkpt>
      <trkpt lat="43.24512" lon="5.69562">
        <ele>414.04296875</ele>
        <time>2020-09-13T07:31:18Z</time>
      </trkpt>
      <trkpt lat="43.24509" lon="5.69567">
        <ele>413.6796875</ele>
        <time>2020-09-13T07:31:19Z</time>
      </trkpt>
      <trkpt lat="43.24506" lon="5.6957">
        <ele>413.26171875</ele>
        <time>2020-09-13T07:31:20Z</time>
      </trkpt>
      <trkpt lat="43.24504" lon="5.69571">
        <ele>412.9609375</ele>
        <time>2020-09-13T07:31:21Z</time>
      </trkpt>
      <trkpt lat="43.24503" lon="5.69572">
        <ele>412.875</ele>
        <time>2020-09-13T07:31:27Z</time>
      </trkpt>
      <trkpt lat="43.24501" lon="5.69574">
        <ele>412.69921875</ele>
        <time>2020-09-13T07:31:28Z</time>
      </trkpt>
      <trkpt lat="43.24493" lon="5.69585">
        <ele>411.546875</ele>
        <time>2020-09-13T07:31:31Z</time>
      </trkpt>
      <trkpt lat="43.24489" lon="5.6959">
        <ele>410.97265625</ele>
        <time>2020-09-13T07:31:32Z</time>
      </trkpt>
      <trkpt lat="43.24478" lon="5.69606">
        <ele>408.94140625</ele>
        <time>2020-09-13T07:31:35Z</time>
      </trkpt>
      <trkpt lat="43.24475" lon="5.69613">
        <ele>408.43359375</ele>
        <time>2020-09-13T07:31:36Z</time>
      </trkpt>
      <trkpt lat="43.24471" lon="5.69628">
        <ele>407.71484375</ele>
        <time>2020-09-13T07:31:38Z</time>
      </trkpt>
      <trkpt lat="43.24467" lon="5.69663">
        <ele>405.9765625</ele>
        <time>2020-09-13T07:31:42Z</time>
      </trkpt>
      <trkpt lat="43.24466" lon="5.69671">
        <ele>405.3359375</ele>
        <time>2020-09-13T07:31:43Z</time>
      </trkpt>
      <trkpt lat="43.24462" lon="5.69687">
        <ele>404.24609375</ele>
        <time>2020-09-13T07:31:45Z</time>
      </trkpt>
      <trkpt lat="43.24461" lon="5.69695">
        <ele>403.921875</ele>
        <time>2020-09-13T07:31:46Z</time>
      </trkpt>
      <trkpt lat="43.2446" lon="5.69721">
        <ele>402.953125</ele>
        <time>2020-09-13T07:31:49Z</time>
      </trkpt>
      <trkpt lat="43.24458" lon="5.69746">
        <ele>401.59375</ele>
        <time>2020-09-13T07:31:52Z</time>
      </trkpt>
      <trkpt lat="43.24447" lon="5.69832">
        <ele>396.55078125</ele>
        <time>2020-09-13T07:32:01Z</time>
      </trkpt>
      <trkpt lat="43.2444" lon="5.69876">
        <ele>394.9296875</ele>
        <time>2020-09-13T07:32:06Z</time>
      </trkpt>
      <trkpt lat="43.24439" lon="5.69885">
        <ele>394.515625</ele>
        <time>2020-09-13T07:32:07Z</time>
      </trkpt>
      <trkpt lat="43.24437" lon="5.69893">
        <ele>394.078125</ele>
        <time>2020-09-13T07:32:08Z</time>
      </trkpt>
      <trkpt lat="43.24435" lon="5.69901">
        <ele>393.58203125</ele>
        <time>2020-09-13T07:32:09Z</time>
      </trkpt>
      <trkpt lat="43.24433" lon="5.69909">
        <ele>393.1875</ele>
        <time>2020-09-13T07:32:10Z</time>
      </trkpt>
      <trkpt lat="43.24431" lon="5.69918">
        <ele>392.828125</ele>
        <time>2020-09-13T07:32:11Z</time>
      </trkpt>
      <trkpt lat="43.2443" lon="5.69927">
        <ele>392.47265625</ele>
        <time>2020-09-13T07:32:12Z</time>
      </trkpt>
      <trkpt lat="43.24429" lon="5.69936">
        <ele>392.11328125</ele>
        <time>2020-09-13T07:32:13Z</time>
      </trkpt>
      <trkpt lat="43.24428" lon="5.69945">
        <ele>391.734375</ele>
        <time>2020-09-13T07:32:14Z</time>
      </trkpt>
      <trkpt lat="43.24426" lon="5.69954">
        <ele>391.36328125</ele>
        <time>2020-09-13T07:32:15Z</time>
      </trkpt>
      <trkpt lat="43.24424" lon="5.69962">
        <ele>390.8359375</ele>
        <time>2020-09-13T07:32:16Z</time>
      </trkpt>
      <trkpt lat="43.24423" lon="5.69971">
        <ele>390.203125</ele>
        <time>2020-09-13T07:32:17Z</time>
      </trkpt>
      <trkpt lat="43.24424" lon="5.69979">
        <ele>389.61328125</ele>
        <time>2020-09-13T07:32:18Z</time>
      </trkpt>
      <trkpt lat="43.24424" lon="5.69987">
        <ele>389.05859375</ele>
        <time>2020-09-13T07:32:19Z</time>
      </trkpt>
      <trkpt lat="43.24423" lon="5.69996">
        <ele>388.703125</ele>
        <time>2020-09-13T07:32:20Z</time>
      </trkpt>
      <trkpt lat="43.24423" lon="5.70005">
        <ele>388.36328125</ele>
        <time>2020-09-13T07:32:21Z</time>
      </trkpt>
      <trkpt lat="43.24424" lon="5.70012">
        <ele>388.07421875</ele>
        <time>2020-09-13T07:32:22Z</time>
      </trkpt>
      <trkpt lat="43.24425" lon="5.70017">
        <ele>387.890625</ele>
        <time>2020-09-13T07:32:23Z</time>
      </trkpt>
      <trkpt lat="43.24426" lon="5.7002">
        <ele>387.77734375</ele>
        <time>2020-09-13T07:32:24Z</time>
      </trkpt>
      <trkpt lat="43.24428" lon="5.70022">
        <ele>387.70703125</ele>
        <time>2020-09-13T07:32:25Z</time>
      </trkpt>
      <trkpt lat="43.24429" lon="5.70023">
        <ele>387.65625</ele>
        <time>2020-09-13T07:32:26Z</time>
      </trkpt>
      <trkpt lat="43.24428" lon="5.70026">
        <ele>387.5625</ele>
        <time>2020-09-13T07:32:28Z</time>
      </trkpt>
      <trkpt lat="43.24427" lon="5.70028">
        <ele>387.4765625</ele>
        <time>2020-09-13T07:32:29Z</time>
      </trkpt>
      <trkpt lat="43.24427" lon="5.70031">
        <ele>387.37109375</ele>
        <time>2020-09-13T07:32:30Z</time>
      </trkpt>
      <trkpt lat="43.24428" lon="5.7005">
        <ele>387</ele>
        <time>2020-09-13T07:32:39Z</time>
      </trkpt>
      <trkpt lat="43.24429" lon="5.70051">
        <ele>387</ele>
        <time>2020-09-13T07:32:40Z</time>
      </trkpt>
      <trkpt lat="43.24429" lon="5.70054">
        <ele>387</ele>
        <time>2020-09-13T07:32:41Z</time>
      </trkpt>
      <trkpt lat="43.24432" lon="5.70057">
        <ele>387</ele>
        <time>2020-09-13T07:32:53Z</time>
      </trkpt>
      <trkpt lat="43.24431" lon="5.70058">
        <ele>387</ele>
        <time>2020-09-13T07:33:15Z</time>
      </trkpt>
      <trkpt lat="43.24433" lon="5.70058">
        <ele>387</ele>
        <time>2020-09-13T07:33:41Z</time>
      </trkpt>
      <trkpt lat="43.24434" lon="5.70059">
        <ele>387</ele>
        <time>2020-09-13T07:34:06Z</time>
      </trkpt>
      <trkpt lat="43.24436" lon="5.70063">
        <ele>387</ele>
        <time>2020-09-13T07:34:08Z</time>
      </trkpt>
      <trkpt lat="43.24438" lon="5.70065">
        <ele>387</ele>
        <time>2020-09-13T07:34:09Z</time>
      </trkpt>
      <trkpt lat="43.2444" lon="5.70066">
        <ele>387</ele>
        <time>2020-09-13T07:34:10Z</time>
      </trkpt>
      <trkpt lat="43.24442" lon="5.70067">
        <ele>387</ele>
        <time>2020-09-13T07:34:11Z</time>
      </trkpt>
      <trkpt lat="43.24445" lon="5.70068">
        <ele>387</ele>
        <time>2020-09-13T07:34:12Z</time>
      </trkpt>
      <trkpt lat="43.24478" lon="5.70081">
        <ele>386.69140625</ele>
        <time>2020-09-13T07:34:20Z</time>
      </trkpt>
      <trkpt lat="43.24489" lon="5.70082">
        <ele>385.98828125</ele>
        <time>2020-09-13T07:34:22Z</time>
      </trkpt>
      <trkpt lat="43.24501" lon="5.70083">
        <ele>385.20703125</ele>
        <time>2020-09-13T07:34:24Z</time>
      </trkpt>
      <trkpt lat="43.24507" lon="5.70085">
        <ele>384.9453125</ele>
        <time>2020-09-13T07:34:25Z</time>
      </trkpt>
      <trkpt lat="43.24513" lon="5.70088">
        <ele>384.7734375</ele>
        <time>2020-09-13T07:34:26Z</time>
      </trkpt>
      <trkpt lat="43.24532" lon="5.70096">
        <ele>383.9296875</ele>
        <time>2020-09-13T07:34:29Z</time>
      </trkpt>
      <trkpt lat="43.24539" lon="5.70095">
        <ele>383.66015625</ele>
        <time>2020-09-13T07:34:30Z</time>
      </trkpt>
      <trkpt lat="43.24545" lon="5.70092">
        <ele>383.328125</ele>
        <time>2020-09-13T07:34:31Z</time>
      </trkpt>
      <trkpt lat="43.24567" lon="5.70084">
        <ele>382.26953125</ele>
        <time>2020-09-13T07:34:34Z</time>
      </trkpt>
      <trkpt lat="43.24574" lon="5.70084">
        <ele>382.0078125</ele>
        <time>2020-09-13T07:34:35Z</time>
      </trkpt>
      <trkpt lat="43.24581" lon="5.70084">
        <ele>381.765625</ele>
        <time>2020-09-13T07:34:36Z</time>
      </trkpt>
      <trkpt lat="43.24588" lon="5.70085">
        <ele>381.51953125</ele>
        <time>2020-09-13T07:34:37Z</time>
      </trkpt>
      <trkpt lat="43.24596" lon="5.70088">
        <ele>381.1640625</ele>
        <time>2020-09-13T07:34:38Z</time>
      </trkpt>
      <trkpt lat="43.24603" lon="5.70091">
        <ele>380.78125</ele>
        <time>2020-09-13T07:34:39Z</time>
      </trkpt>
      <trkpt lat="43.2461" lon="5.70095">
        <ele>380.3515625</ele>
        <time>2020-09-13T07:34:40Z</time>
      </trkpt>
      <trkpt lat="43.24617" lon="5.70099">
        <ele>379.9140625</ele>
        <time>2020-09-13T07:34:41Z</time>
      </trkpt>
      <trkpt lat="43.24624" lon="5.70102">
        <ele>379.44140625</ele>
        <time>2020-09-13T07:34:42Z</time>
      </trkpt>
      <trkpt lat="43.24632" lon="5.70104">
        <ele>378.875</ele>
        <time>2020-09-13T07:34:43Z</time>
      </trkpt>
      <trkpt lat="43.24639" lon="5.70105">
        <ele>378.28125</ele>
        <time>2020-09-13T07:34:44Z</time>
      </trkpt>
      <trkpt lat="43.24646" lon="5.70108">
        <ele>377.734375</ele>
        <time>2020-09-13T07:34:45Z</time>
      </trkpt>
      <trkpt lat="43.24652" lon="5.70112">
        <ele>377.1640625</ele>
        <time>2020-09-13T07:34:46Z</time>
      </trkpt>
      <trkpt lat="43.24658" lon="5.70118">
        <ele>376.53515625</ele>
        <time>2020-09-13T07:34:47Z</time>
      </trkpt>
      <trkpt lat="43.24663" lon="5.70125">
        <ele>375.87109375</ele>
        <time>2020-09-13T07:34:48Z</time>
      </trkpt>
      <trkpt lat="43.24668" lon="5.70134">
        <ele>376.79296875</ele>
        <time>2020-09-13T07:34:49Z</time>
      </trkpt>
      <trkpt lat="43.24673" lon="5.70141">
        <ele>377.16015625</ele>
        <time>2020-09-13T07:34:50Z</time>
      </trkpt>
      <trkpt lat="43.24679" lon="5.70145">
        <ele>376.76171875</ele>
        <time>2020-09-13T07:34:51Z</time>
      </trkpt>
      <trkpt lat="43.24685" lon="5.70147">
        <ele>375.80078125</ele>
        <time>2020-09-13T07:34:52Z</time>
      </trkpt>
      <trkpt lat="43.24691" lon="5.70149">
        <ele>374.69921875</ele>
        <time>2020-09-13T07:34:53Z</time>
      </trkpt>
      <trkpt lat="43.24697" lon="5.70149">
        <ele>373.4375</ele>
        <time>2020-09-13T07:34:54Z</time>
      </trkpt>
      <trkpt lat="43.24702" lon="5.70147">
        <ele>372.1015625</ele>
        <time>2020-09-13T07:34:55Z</time>
      </trkpt>
      <trkpt lat="43.24707" lon="5.70145">
        <ele>370.55859375</ele>
        <time>2020-09-13T07:34:56Z</time>
      </trkpt>
      <trkpt lat="43.24711" lon="5.70141">
        <ele>368.83203125</ele>
        <time>2020-09-13T07:34:57Z</time>
      </trkpt>
      <trkpt lat="43.24715" lon="5.70136">
        <ele>367.1875</ele>
        <time>2020-09-13T07:34:58Z</time>
      </trkpt>
      <trkpt lat="43.24718" lon="5.70133">
        <ele>365.54296875</ele>
        <time>2020-09-13T07:34:59Z</time>
      </trkpt>
      <trkpt lat="43.24723" lon="5.70129">
        <ele>363.73828125</ele>
        <time>2020-09-13T07:35:00Z</time>
      </trkpt>
      <trkpt lat="43.24734" lon="5.7012">
        <ele>360.765625</ele>
        <time>2020-09-13T07:35:03Z</time>
      </trkpt>
      <trkpt lat="43.24752" lon="5.70103">
        <ele>358.046875</ele>
        <time>2020-09-13T07:35:13Z</time>
      </trkpt>
      <trkpt lat="43.24774" lon="5.70087">
        <ele>356.53125</ele>
        <time>2020-09-13T07:35:25Z</time>
      </trkpt>
      <trkpt lat="43.24792" lon="5.70073">
        <ele>356.0234375</ele>
        <time>2020-09-13T07:35:39Z</time>
      </trkpt>
      <trkpt lat="43.24811" lon="5.70058">
        <ele>356.7578125</ele>
        <time>2020-09-13T07:35:52Z</time>
      </trkpt>
      <trkpt lat="43.24813" lon="5.70056">
        <ele>357.00390625</ele>
        <time>2020-09-13T07:35:53Z</time>
      </trkpt>
      <trkpt lat="43.24815" lon="5.70055">
        <ele>357.1328125</ele>
        <time>2020-09-13T07:35:54Z</time>
      </trkpt>
      <trkpt lat="43.24816" lon="5.70054">
        <ele>357.23046875</ele>
        <time>2020-09-13T07:35:55Z</time>
      </trkpt>
      <trkpt lat="43.24818" lon="5.70053">
        <ele>357.2421875</ele>
        <time>2020-09-13T07:35:56Z</time>
      </trkpt>
      <trkpt lat="43.24819" lon="5.70053">
        <ele>357.171875</ele>
        <time>2020-09-13T07:35:57Z</time>
      </trkpt>
      <trkpt lat="43.2482" lon="5.70052">
        <ele>357.125</ele>
        <time>2020-09-13T07:35:58Z</time>
      </trkpt>
      <trkpt lat="43.24823" lon="5.70051">
        <ele>357.14453125</ele>
        <time>2020-09-13T07:36:00Z</time>
      </trkpt>
      <trkpt lat="43.24844" lon="5.70034">
        <ele>358.953125</ele>
        <time>2020-09-13T07:36:13Z</time>
      </trkpt>
      <trkpt lat="43.24862" lon="5.70016">
        <ele>360.94140625</ele>
        <time>2020-09-13T07:36:28Z</time>
      </trkpt>
      <trkpt lat="43.24878" lon="5.69994">
        <ele>364.32421875</ele>
        <time>2020-09-13T07:36:43Z</time>
      </trkpt>
      <trkpt lat="43.24892" lon="5.69973">
        <ele>366.53125</ele>
        <time>2020-09-13T07:36:56Z</time>
      </trkpt>
      <trkpt lat="43.24908" lon="5.69949">
        <ele>368.6328125</ele>
        <time>2020-09-13T07:37:11Z</time>
      </trkpt>
      <trkpt lat="43.24927" lon="5.69924">
        <ele>370.453125</ele>
        <time>2020-09-13T07:37:26Z</time>
      </trkpt>
      <trkpt lat="43.24946" lon="5.699">
        <ele>372.0078125</ele>
        <time>2020-09-13T07:37:42Z</time>
      </trkpt>
      <trkpt lat="43.24971" lon="5.69871">
        <ele>373.65625</ele>
        <time>2020-09-13T07:38:01Z</time>
      </trkpt>
      <trkpt lat="43.24999" lon="5.69843">
        <ele>374.79296875</ele>
        <time>2020-09-13T07:38:19Z</time>
      </trkpt>
      <trkpt lat="43.25017" lon="5.69821">
        <ele>374.84765625</ele>
        <time>2020-09-13T07:38:32Z</time>
      </trkpt>
      <trkpt lat="43.25017" lon="5.69819">
        <ele>375.328125</ele>
        <time>2020-09-13T07:38:56Z</time>
      </trkpt>
      <trkpt lat="43.25025" lon="5.6981">
        <ele>375.02734375</ele>
        <time>2020-09-13T07:39:21Z</time>
      </trkpt>
      <trkpt lat="43.25047" lon="5.69775">
        <ele>376.23046875</ele>
        <time>2020-09-13T07:39:36Z</time>
      </trkpt>
      <trkpt lat="43.25068" lon="5.69727">
        <ele>378.71484375</ele>
        <time>2020-09-13T07:39:51Z</time>
      </trkpt>
      <trkpt lat="43.25082" lon="5.69671">
        <ele>381.9765625</ele>
        <time>2020-09-13T07:40:08Z</time>
      </trkpt>
      <trkpt lat="43.25089" lon="5.69619">
        <ele>384.078125</ele>
        <time>2020-09-13T07:40:23Z</time>
      </trkpt>
      <trkpt lat="43.25082" lon="5.69578">
        <ele>386.15625</ele>
        <time>2020-09-13T07:40:36Z</time>
      </trkpt>
      <trkpt lat="43.25061" lon="5.69523">
        <ele>386.81640625</ele>
        <time>2020-09-13T07:40:51Z</time>
      </trkpt>
      <trkpt lat="43.25044" lon="5.69473">
        <ele>383.73828125</ele>
        <time>2020-09-13T07:41:03Z</time>
      </trkpt>
      <trkpt lat="43.25028" lon="5.69437">
        <ele>382.83203125</ele>
        <time>2020-09-13T07:41:15Z</time>
      </trkpt>
      <trkpt lat="43.25006" lon="5.69402">
        <ele>382.14453125</ele>
        <time>2020-09-13T07:41:26Z</time>
      </trkpt>
      <trkpt lat="43.24988" lon="5.69374">
        <ele>379.73046875</ele>
        <time>2020-09-13T07:41:31Z</time>
      </trkpt>
      <trkpt lat="43.24984" lon="5.69369">
        <ele>379.65625</ele>
        <time>2020-09-13T07:41:32Z</time>
      </trkpt>
      <trkpt lat="43.24979" lon="5.69365">
        <ele>379.6484375</ele>
        <time>2020-09-13T07:41:33Z</time>
      </trkpt>
      <trkpt lat="43.24974" lon="5.6936">
        <ele>379.796875</ele>
        <time>2020-09-13T07:41:34Z</time>
      </trkpt>
      <trkpt lat="43.24968" lon="5.69356">
        <ele>380.16796875</ele>
        <time>2020-09-13T07:41:35Z</time>
      </trkpt>
      <trkpt lat="43.24957" lon="5.69346">
        <ele>380.2734375</ele>
        <time>2020-09-13T07:41:37Z</time>
      </trkpt>
      <trkpt lat="43.24954" lon="5.69339">
        <ele>379.453125</ele>
        <time>2020-09-13T07:41:38Z</time>
      </trkpt>
      <trkpt lat="43.24952" lon="5.69333">
        <ele>378.4140625</ele>
        <time>2020-09-13T07:41:39Z</time>
      </trkpt>
      <trkpt lat="43.24942" lon="5.69306">
        <ele>374.57421875</ele>
        <time>2020-09-13T07:41:49Z</time>
      </trkpt>
      <trkpt lat="43.24927" lon="5.693">
        <ele>377</ele>
        <time>2020-09-13T07:41:58Z</time>
      </trkpt>
      <trkpt lat="43.24928" lon="5.69305">
        <ele>377.921875</ele>
        <time>2020-09-13T07:42:07Z</time>
      </trkpt>
      <trkpt lat="43.24929" lon="5.69305">
        <ele>377.62109375</ele>
        <time>2020-09-13T07:42:08Z</time>
      </trkpt>
      <trkpt lat="43.2493" lon="5.69304">
        <ele>377.109375</ele>
        <time>2020-09-13T07:42:09Z</time>
      </trkpt>
      <trkpt lat="43.24932" lon="5.69304">
        <ele>376.6953125</ele>
        <time>2020-09-13T07:42:10Z</time>
      </trkpt>
      <trkpt lat="43.24939" lon="5.6931">
        <ele>376.03125</ele>
        <time>2020-09-13T07:42:14Z</time>
      </trkpt>
      <trkpt lat="43.24941" lon="5.69313">
        <ele>376.23046875</ele>
        <time>2020-09-13T07:42:15Z</time>
      </trkpt>
      <trkpt lat="43.24956" lon="5.69345">
        <ele>380.4375</ele>
        <time>2020-09-13T07:42:24Z</time>
      </trkpt>
      <trkpt lat="43.24959" lon="5.69349">
        <ele>380.77734375</ele>
        <time>2020-09-13T07:42:25Z</time>
      </trkpt>
      <trkpt lat="43.24962" lon="5.69353">
        <ele>380.92578125</ele>
        <time>2020-09-13T07:42:26Z</time>
      </trkpt>
      <trkpt lat="43.24965" lon="5.69356">
        <ele>380.7734375</ele>
        <time>2020-09-13T07:42:27Z</time>
      </trkpt>
      <trkpt lat="43.24969" lon="5.69358">
        <ele>380.5078125</ele>
        <time>2020-09-13T07:42:28Z</time>
      </trkpt>
      <trkpt lat="43.24976" lon="5.69364">
        <ele>379.9609375</ele>
        <time>2020-09-13T07:42:30Z</time>
      </trkpt>
      <trkpt lat="43.2498" lon="5.69367">
        <ele>379.96875</ele>
        <time>2020-09-13T07:42:31Z</time>
      </trkpt>
      <trkpt lat="43.24983" lon="5.6937">
        <ele>380.0625</ele>
        <time>2020-09-13T07:42:32Z</time>
      </trkpt>
      <trkpt lat="43.24996" lon="5.69392">
        <ele>382.23828125</ele>
        <time>2020-09-13T07:42:38Z</time>
      </trkpt>
      <trkpt lat="43.24996" lon="5.69391">
        <ele>381.83984375</ele>
        <time>2020-09-13T07:42:40Z</time>
      </trkpt>
      <trkpt lat="43.24995" lon="5.6939">
        <ele>381.6875</ele>
        <time>2020-09-13T07:42:41Z</time>
      </trkpt>
      <trkpt lat="43.24994" lon="5.69388">
        <ele>381.54296875</ele>
        <time>2020-09-13T07:42:42Z</time>
      </trkpt>
      <trkpt lat="43.24976" lon="5.69363">
        <ele>379.84765625</ele>
        <time>2020-09-13T07:42:49Z</time>
      </trkpt>
      <trkpt lat="43.24966" lon="5.69355">
        <ele>380.46484375</ele>
        <time>2020-09-13T07:42:51Z</time>
      </trkpt>
      <trkpt lat="43.2496" lon="5.69351">
        <ele>380.9375</ele>
        <time>2020-09-13T07:42:52Z</time>
      </trkpt>
      <trkpt lat="43.24955" lon="5.69347">
        <ele>381.3046875</ele>
        <time>2020-09-13T07:42:53Z</time>
      </trkpt>
      <trkpt lat="43.24944" lon="5.69336">
        <ele>381.26953125</ele>
        <time>2020-09-13T07:42:59Z</time>
      </trkpt>
      <trkpt lat="43.24944" lon="5.69334">
        <ele>380.91796875</ele>
        <time>2020-09-13T07:43:00Z</time>
      </trkpt>
      <trkpt lat="43.24932" lon="5.69317">
        <ele>379.51953125</ele>
        <time>2020-09-13T07:43:07Z</time>
      </trkpt>
      <trkpt lat="43.24926" lon="5.69313">
        <ele>380.08203125</ele>
        <time>2020-09-13T07:43:10Z</time>
      </trkpt>
      <trkpt lat="43.24924" lon="5.69308">
        <ele>379.6640625</ele>
        <time>2020-09-13T07:43:11Z</time>
      </trkpt>
      <trkpt lat="43.24921" lon="5.69302">
        <ele>379</ele>
        <time>2020-09-13T07:43:12Z</time>
      </trkpt>
      <trkpt lat="43.24917" lon="5.69296">
        <ele>378.62109375</ele>
        <time>2020-09-13T07:43:13Z</time>
      </trkpt>
      <trkpt lat="43.24914" lon="5.69292">
        <ele>378.4609375</ele>
        <time>2020-09-13T07:43:14Z</time>
      </trkpt>
      <trkpt lat="43.24912" lon="5.6929">
        <ele>378.48046875</ele>
        <time>2020-09-13T07:43:15Z</time>
      </trkpt>
      <trkpt lat="43.24903" lon="5.6928">
        <ele>378.04296875</ele>
        <time>2020-09-13T07:43:23Z</time>
      </trkpt>
      <trkpt lat="43.24858" lon="5.69243">
        <ele>375.27734375</ele>
        <time>2020-09-13T07:43:31Z</time>
      </trkpt>
      <trkpt lat="43.24852" lon="5.69235">
        <ele>374.44921875</ele>
        <time>2020-09-13T07:43:32Z</time>
      </trkpt>
      <trkpt lat="43.24839" lon="5.6922">
        <ele>372.25</ele>
        <time>2020-09-13T07:43:34Z</time>
      </trkpt>
      <trkpt lat="43.24815" lon="5.692">
        <ele>371.92578125</ele>
        <time>2020-09-13T07:43:37Z</time>
      </trkpt>
      <trkpt lat="43.24809" lon="5.69192">
        <ele>370.60546875</ele>
        <time>2020-09-13T07:43:38Z</time>
      </trkpt>
      <trkpt lat="43.24803" lon="5.69183">
        <ele>369.00390625</ele>
        <time>2020-09-13T07:43:39Z</time>
      </trkpt>
      <trkpt lat="43.24786" lon="5.69154">
        <ele>364.6796875</ele>
        <time>2020-09-13T07:43:42Z</time>
      </trkpt>
      <trkpt lat="43.24781" lon="5.69144">
        <ele>363.078125</ele>
        <time>2020-09-13T07:43:43Z</time>
      </trkpt>
      <trkpt lat="43.24757" lon="5.69103">
        <ele>359.4765625</ele>
        <time>2020-09-13T07:43:47Z</time>
      </trkpt>
      <trkpt lat="43.24751" lon="5.69095">
        <ele>359.4609375</ele>
        <time>2020-09-13T07:43:48Z</time>
      </trkpt>
      <trkpt lat="43.24746" lon="5.69088">
        <ele>360.09375</ele>
        <time>2020-09-13T07:43:49Z</time>
      </trkpt>
      <trkpt lat="43.24743" lon="5.69082">
        <ele>360.16796875</ele>
        <time>2020-09-13T07:43:50Z</time>
      </trkpt>
      <trkpt lat="43.24741" lon="5.69075">
        <ele>359.54296875</ele>
        <time>2020-09-13T07:43:51Z</time>
      </trkpt>
      <trkpt lat="43.24741" lon="5.69068">
        <ele>358.953125</ele>
        <time>2020-09-13T07:43:52Z</time>
      </trkpt>
      <trkpt lat="43.24742" lon="5.69063">
        <ele>359.1640625</ele>
        <time>2020-09-13T07:43:53Z</time>
      </trkpt>
      <trkpt lat="43.24743" lon="5.69062">
        <ele>358.9921875</ele>
        <time>2020-09-13T07:44:01Z</time>
      </trkpt>
      <trkpt lat="43.24745" lon="5.69063">
        <ele>358.58984375</ele>
        <time>2020-09-13T07:44:25Z</time>
      </trkpt>
      <trkpt lat="43.24745" lon="5.69062">
        <ele>358.4921875</ele>
        <time>2020-09-13T07:44:36Z</time>
      </trkpt>
      <trkpt lat="43.24751" lon="5.69056">
        <ele>358.1171875</ele>
        <time>2020-09-13T07:44:41Z</time>
      </trkpt>
      <trkpt lat="43.24752" lon="5.69054">
        <ele>357.9609375</ele>
        <time>2020-09-13T07:44:42Z</time>
      </trkpt>
      <trkpt lat="43.24754" lon="5.69052">
        <ele>357.87109375</ele>
        <time>2020-09-13T07:44:43Z</time>
      </trkpt>
      <trkpt lat="43.24756" lon="5.69051">
        <ele>357.87109375</ele>
        <time>2020-09-13T07:44:44Z</time>
      </trkpt>
      <trkpt lat="43.24757" lon="5.6905">
        <ele>357.83203125</ele>
        <time>2020-09-13T07:44:45Z</time>
      </trkpt>
      <trkpt lat="43.24785" lon="5.69045">
        <ele>356.3125</ele>
        <time>2020-09-13T07:44:58Z</time>
      </trkpt>
      <trkpt lat="43.24814" lon="5.69041">
        <ele>355.15625</ele>
        <time>2020-09-13T07:45:10Z</time>
      </trkpt>
      <trkpt lat="43.24842" lon="5.69031">
        <ele>356.03125</ele>
        <time>2020-09-13T07:45:22Z</time>
      </trkpt>
      <trkpt lat="43.2488" lon="5.69012">
        <ele>358.4453125</ele>
        <time>2020-09-13T07:45:40Z</time>
      </trkpt>
      <trkpt lat="43.2491" lon="5.68992">
        <ele>360.5625</ele>
        <time>2020-09-13T07:45:55Z</time>
      </trkpt>
      <trkpt lat="43.24941" lon="5.68972">
        <ele>361.93359375</ele>
        <time>2020-09-13T07:46:12Z</time>
      </trkpt>
      <trkpt lat="43.24968" lon="5.68951">
        <ele>363.57421875</ele>
        <time>2020-09-13T07:46:26Z</time>
      </trkpt>
      <trkpt lat="43.24984" lon="5.68939">
        <ele>364.171875</ele>
        <time>2020-09-13T07:46:34Z</time>
      </trkpt>
      <trkpt lat="43.25014" lon="5.6892">
        <ele>365.13671875</ele>
        <time>2020-09-13T07:46:48Z</time>
      </trkpt>
      <trkpt lat="43.25046" lon="5.68889">
        <ele>368.84375</ele>
        <time>2020-09-13T07:47:04Z</time>
      </trkpt>
      <trkpt lat="43.25082" lon="5.68861">
        <ele>371.87109375</ele>
        <time>2020-09-13T07:47:22Z</time>
      </trkpt>
      <trkpt lat="43.25112" lon="5.68848">
        <ele>372.26953125</ele>
        <time>2020-09-13T07:47:36Z</time>
      </trkpt>
      <trkpt lat="43.25138" lon="5.68827">
        <ele>373.4375</ele>
        <time>2020-09-13T07:47:51Z</time>
      </trkpt>
      <trkpt lat="43.25166" lon="5.68799">
        <ele>375.44140625</ele>
        <time>2020-09-13T07:48:06Z</time>
      </trkpt>
      <trkpt lat="43.25183" lon="5.68777">
        <ele>377.01953125</ele>
        <time>2020-09-13T07:48:19Z</time>
      </trkpt>
      <trkpt lat="43.2521" lon="5.68746">
        <ele>377.90625</ele>
        <time>2020-09-13T07:48:34Z</time>
      </trkpt>
      <trkpt lat="43.25242" lon="5.68702">
        <ele>379.953125</ele>
        <time>2020-09-13T07:48:47Z</time>
      </trkpt>
      <trkpt lat="43.25257" lon="5.68668">
        <ele>381.34765625</ele>
        <time>2020-09-13T07:48:54Z</time>
      </trkpt>
      <trkpt lat="43.25259" lon="5.68662">
        <ele>381.48828125</ele>
        <time>2020-09-13T07:48:55Z</time>
      </trkpt>
      <trkpt lat="43.25269" lon="5.6863">
        <ele>381.4609375</ele>
        <time>2020-09-13T07:49:00Z</time>
      </trkpt>
      <trkpt lat="43.2527" lon="5.68622">
        <ele>381.48046875</ele>
        <time>2020-09-13T07:49:01Z</time>
      </trkpt>
      <trkpt lat="43.2527" lon="5.68603">
        <ele>381.7109375</ele>
        <time>2020-09-13T07:49:03Z</time>
      </trkpt>
      <trkpt lat="43.2527" lon="5.68595">
        <ele>381.6953125</ele>
        <time>2020-09-13T07:49:04Z</time>
      </trkpt>
      <trkpt lat="43.25269" lon="5.68587">
        <ele>381.515625</ele>
        <time>2020-09-13T07:49:05Z</time>
      </trkpt>
      <trkpt lat="43.25266" lon="5.68573">
        <ele>381.234375</ele>
        <time>2020-09-13T07:49:07Z</time>
      </trkpt>
      <trkpt lat="43.25268" lon="5.68494">
        <ele>375.64453125</ele>
        <time>2020-09-13T07:49:16Z</time>
      </trkpt>
      <trkpt lat="43.25269" lon="5.68487">
        <ele>374.8203125</ele>
        <time>2020-09-13T07:49:17Z</time>
      </trkpt>
      <trkpt lat="43.25269" lon="5.6848">
        <ele>373.98046875</ele>
        <time>2020-09-13T07:49:18Z</time>
      </trkpt>
      <trkpt lat="43.25274" lon="5.68455">
        <ele>370.05078125</ele>
        <time>2020-09-13T07:49:21Z</time>
      </trkpt>
      <trkpt lat="43.25276" lon="5.68437">
        <ele>367.03515625</ele>
        <time>2020-09-13T07:49:23Z</time>
      </trkpt>
      <trkpt lat="43.25278" lon="5.68428">
        <ele>365.62109375</ele>
        <time>2020-09-13T07:49:24Z</time>
      </trkpt>
      <trkpt lat="43.2528" lon="5.68422">
        <ele>364.67578125</ele>
        <time>2020-09-13T07:49:25Z</time>
      </trkpt>
      <trkpt lat="43.25282" lon="5.68417">
        <ele>363.82421875</ele>
        <time>2020-09-13T07:49:26Z</time>
      </trkpt>
      <trkpt lat="43.25285" lon="5.68412">
        <ele>363.13671875</ele>
        <time>2020-09-13T07:49:27Z</time>
      </trkpt>
      <trkpt lat="43.25287" lon="5.68408">
        <ele>362.546875</ele>
        <time>2020-09-13T07:49:28Z</time>
      </trkpt>
      <trkpt lat="43.25287" lon="5.68402">
        <ele>362.109375</ele>
        <time>2020-09-13T07:49:29Z</time>
      </trkpt>
      <trkpt lat="43.25287" lon="5.68395">
        <ele>361.91015625</ele>
        <time>2020-09-13T07:49:30Z</time>
      </trkpt>
      <trkpt lat="43.25287" lon="5.68388">
        <ele>361.65234375</ele>
        <time>2020-09-13T07:49:31Z</time>
      </trkpt>
      <trkpt lat="43.25287" lon="5.68381">
        <ele>361.390625</ele>
        <time>2020-09-13T07:49:32Z</time>
      </trkpt>
      <trkpt lat="43.25286" lon="5.68374">
        <ele>361.203125</ele>
        <time>2020-09-13T07:49:33Z</time>
      </trkpt>
      <trkpt lat="43.25285" lon="5.68367">
        <ele>361.15625</ele>
        <time>2020-09-13T07:49:34Z</time>
      </trkpt>
      <trkpt lat="43.25284" lon="5.68361">
        <ele>361.08984375</ele>
        <time>2020-09-13T07:49:35Z</time>
      </trkpt>
      <trkpt lat="43.25284" lon="5.68355">
        <ele>360.93359375</ele>
        <time>2020-09-13T07:49:36Z</time>
      </trkpt>
      <trkpt lat="43.25284" lon="5.68349">
        <ele>360.7890625</ele>
        <time>2020-09-13T07:49:37Z</time>
      </trkpt>
      <trkpt lat="43.25283" lon="5.68344">
        <ele>360.85546875</ele>
        <time>2020-09-13T07:49:38Z</time>
      </trkpt>
      <trkpt lat="43.25281" lon="5.68337">
        <ele>360.98828125</ele>
        <time>2020-09-13T07:49:39Z</time>
      </trkpt>
      <trkpt lat="43.2528" lon="5.68331">
        <ele>361.22265625</ele>
        <time>2020-09-13T07:49:40Z</time>
      </trkpt>
      <trkpt lat="43.25279" lon="5.68325">
        <ele>361.36328125</ele>
        <time>2020-09-13T07:49:41Z</time>
      </trkpt>
      <trkpt lat="43.25279" lon="5.6832">
        <ele>361.29296875</ele>
        <time>2020-09-13T07:49:42Z</time>
      </trkpt>
      <trkpt lat="43.25279" lon="5.68317">
        <ele>361.04296875</ele>
        <time>2020-09-13T07:49:43Z</time>
      </trkpt>
      <trkpt lat="43.25279" lon="5.68313">
        <ele>360.83203125</ele>
        <time>2020-09-13T07:49:44Z</time>
      </trkpt>
      <trkpt lat="43.25278" lon="5.68307">
        <ele>360.4609375</ele>
        <time>2020-09-13T07:49:45Z</time>
      </trkpt>
      <trkpt lat="43.25278" lon="5.68301">
        <ele>359.96875</ele>
        <time>2020-09-13T07:49:46Z</time>
      </trkpt>
      <trkpt lat="43.25277" lon="5.68293">
        <ele>359.48828125</ele>
        <time>2020-09-13T07:49:47Z</time>
      </trkpt>
      <trkpt lat="43.25276" lon="5.68287">
        <ele>358.98828125</ele>
        <time>2020-09-13T07:49:48Z</time>
      </trkpt>
      <trkpt lat="43.25274" lon="5.68282">
        <ele>358.6953125</ele>
        <time>2020-09-13T07:49:49Z</time>
      </trkpt>
      <trkpt lat="43.2527" lon="5.68277">
        <ele>358.53515625</ele>
        <time>2020-09-13T07:49:50Z</time>
      </trkpt>
      <trkpt lat="43.25267" lon="5.68273">
        <ele>358.5078125</ele>
        <time>2020-09-13T07:49:51Z</time>
      </trkpt>
      <trkpt lat="43.25264" lon="5.6827">
        <ele>358.4453125</ele>
        <time>2020-09-13T07:49:52Z</time>
      </trkpt>
      <trkpt lat="43.25261" lon="5.68267">
        <ele>358.34765625</ele>
        <time>2020-09-13T07:49:53Z</time>
      </trkpt>
      <trkpt lat="43.25249" lon="5.68242">
        <ele>357.13671875</ele>
        <time>2020-09-13T07:50:02Z</time>
      </trkpt>
      <trkpt lat="43.25249" lon="5.68241">
        <ele>356.90625</ele>
        <time>2020-09-13T07:50:03Z</time>
      </trkpt>
      <trkpt lat="43.25253" lon="5.68235">
        <ele>355.71875</ele>
        <time>2020-09-13T07:50:06Z</time>
      </trkpt>
      <trkpt lat="43.25253" lon="5.68232">
        <ele>355.30078125</ele>
        <time>2020-09-13T07:50:07Z</time>
      </trkpt>
      <trkpt lat="43.25253" lon="5.68228">
        <ele>354.8203125</ele>
        <time>2020-09-13T07:50:08Z</time>
      </trkpt>
      <trkpt lat="43.25252" lon="5.68224">
        <ele>354.3515625</ele>
        <time>2020-09-13T07:50:09Z</time>
      </trkpt>
      <trkpt lat="43.2525" lon="5.6822">
        <ele>353.85546875</ele>
        <time>2020-09-13T07:50:10Z</time>
      </trkpt>
      <trkpt lat="43.25247" lon="5.68208">
        <ele>352.62890625</ele>
        <time>2020-09-13T07:50:12Z</time>
      </trkpt>
      <trkpt lat="43.25246" lon="5.68202">
        <ele>352.0546875</ele>
        <time>2020-09-13T07:50:13Z</time>
      </trkpt>
      <trkpt lat="43.2524" lon="5.68164">
        <ele>348.1953125</ele>
        <time>2020-09-13T07:50:18Z</time>
      </trkpt>
      <trkpt lat="43.25239" lon="5.68157">
        <ele>347.44921875</ele>
        <time>2020-09-13T07:50:19Z</time>
      </trkpt>
      <trkpt lat="43.25237" lon="5.68152">
        <ele>347.07421875</ele>
        <time>2020-09-13T07:50:20Z</time>
      </trkpt>
      <trkpt lat="43.25236" lon="5.68146">
        <ele>346.734375</ele>
        <time>2020-09-13T07:50:21Z</time>
      </trkpt>
      <trkpt lat="43.25235" lon="5.6814">
        <ele>346.1875</ele>
        <time>2020-09-13T07:50:22Z</time>
      </trkpt>
      <trkpt lat="43.25234" lon="5.68133">
        <ele>345.49609375</ele>
        <time>2020-09-13T07:50:23Z</time>
      </trkpt>
      <trkpt lat="43.25234" lon="5.68126">
        <ele>344.78515625</ele>
        <time>2020-09-13T07:50:24Z</time>
      </trkpt>
      <trkpt lat="43.25234" lon="5.6812">
        <ele>344.234375</ele>
        <time>2020-09-13T07:50:25Z</time>
      </trkpt>
      <trkpt lat="43.25233" lon="5.68114">
        <ele>343.82421875</ele>
        <time>2020-09-13T07:50:26Z</time>
      </trkpt>
      <trkpt lat="43.25232" lon="5.68109">
        <ele>343.515625</ele>
        <time>2020-09-13T07:50:27Z</time>
      </trkpt>
      <trkpt lat="43.25233" lon="5.68105">
        <ele>343.0703125</ele>
        <time>2020-09-13T07:50:28Z</time>
      </trkpt>
      <trkpt lat="43.25235" lon="5.68101">
        <ele>342.3828125</ele>
        <time>2020-09-13T07:50:29Z</time>
      </trkpt>
      <trkpt lat="43.25237" lon="5.68097">
        <ele>341.53125</ele>
        <time>2020-09-13T07:50:30Z</time>
      </trkpt>
      <trkpt lat="43.25239" lon="5.68093">
        <ele>340.80078125</ele>
        <time>2020-09-13T07:50:31Z</time>
      </trkpt>
      <trkpt lat="43.2524" lon="5.68089">
        <ele>340.2578125</ele>
        <time>2020-09-13T07:50:32Z</time>
      </trkpt>
      <trkpt lat="43.2524" lon="5.68083">
        <ele>339.84765625</ele>
        <time>2020-09-13T07:50:33Z</time>
      </trkpt>
      <trkpt lat="43.2524" lon="5.68076">
        <ele>339.28125</ele>
        <time>2020-09-13T07:50:34Z</time>
      </trkpt>
      <trkpt lat="43.25241" lon="5.68062">
        <ele>337.984375</ele>
        <time>2020-09-13T07:50:36Z</time>
      </trkpt>
      <trkpt lat="43.25241" lon="5.68047">
        <ele>336.984375</ele>
        <time>2020-09-13T07:50:38Z</time>
      </trkpt>
      <trkpt lat="43.25243" lon="5.68042">
        <ele>336.328125</ele>
        <time>2020-09-13T07:50:39Z</time>
      </trkpt>
      <trkpt lat="43.25244" lon="5.68037">
        <ele>335.86328125</ele>
        <time>2020-09-13T07:50:40Z</time>
      </trkpt>
      <trkpt lat="43.25245" lon="5.68031">
        <ele>335.5703125</ele>
        <time>2020-09-13T07:50:41Z</time>
      </trkpt>
      <trkpt lat="43.25244" lon="5.68026">
        <ele>335.5625</ele>
        <time>2020-09-13T07:50:42Z</time>
      </trkpt>
      <trkpt lat="43.25243" lon="5.6802">
        <ele>335.66796875</ele>
        <time>2020-09-13T07:50:43Z</time>
      </trkpt>
      <trkpt lat="43.25242" lon="5.68009">
        <ele>335.7890625</ele>
        <time>2020-09-13T07:50:52Z</time>
      </trkpt>
      <trkpt lat="43.25243" lon="5.68004">
        <ele>335.56640625</ele>
        <time>2020-09-13T07:51:21Z</time>
      </trkpt>
      <trkpt lat="43.25243" lon="5.68001">
        <ele>335.41796875</ele>
        <time>2020-09-13T07:51:22Z</time>
      </trkpt>
      <trkpt lat="43.25244" lon="5.67996">
        <ele>335.19140625</ele>
        <time>2020-09-13T07:51:23Z</time>
      </trkpt>
      <trkpt lat="43.25245" lon="5.6799">
        <ele>334.90625</ele>
        <time>2020-09-13T07:51:24Z</time>
      </trkpt>
      <trkpt lat="43.25246" lon="5.67984">
        <ele>334.5859375</ele>
        <time>2020-09-13T07:51:25Z</time>
      </trkpt>
      <trkpt lat="43.25248" lon="5.67977">
        <ele>334.17578125</ele>
        <time>2020-09-13T07:51:26Z</time>
      </trkpt>
      <trkpt lat="43.25251" lon="5.67972">
        <ele>333.609375</ele>
        <time>2020-09-13T07:51:27Z</time>
      </trkpt>
      <trkpt lat="43.25254" lon="5.67966">
        <ele>332.95703125</ele>
        <time>2020-09-13T07:51:28Z</time>
      </trkpt>
      <trkpt lat="43.25257" lon="5.67958">
        <ele>332.30859375</ele>
        <time>2020-09-13T07:51:29Z</time>
      </trkpt>
      <trkpt lat="43.25273" lon="5.67916">
        <ele>328.640625</ele>
        <time>2020-09-13T07:51:34Z</time>
      </trkpt>
      <trkpt lat="43.25278" lon="5.67898">
        <ele>327.328125</ele>
        <time>2020-09-13T07:51:36Z</time>
      </trkpt>
      <trkpt lat="43.25281" lon="5.67888">
        <ele>326.54296875</ele>
        <time>2020-09-13T07:51:37Z</time>
      </trkpt>
      <trkpt lat="43.25287" lon="5.67861">
        <ele>324.609375</ele>
        <time>2020-09-13T07:51:40Z</time>
      </trkpt>
      <trkpt lat="43.25287" lon="5.67854">
        <ele>324.26171875</ele>
        <time>2020-09-13T07:51:41Z</time>
      </trkpt>
      <trkpt lat="43.25289" lon="5.67848">
        <ele>323.80078125</ele>
        <time>2020-09-13T07:51:42Z</time>
      </trkpt>
      <trkpt lat="43.25291" lon="5.67841">
        <ele>323.140625</ele>
        <time>2020-09-13T07:51:43Z</time>
      </trkpt>
      <trkpt lat="43.25293" lon="5.67834">
        <ele>322.56640625</ele>
        <time>2020-09-13T07:51:44Z</time>
      </trkpt>
      <trkpt lat="43.25293" lon="5.67827">
        <ele>322.0859375</ele>
        <time>2020-09-13T07:51:45Z</time>
      </trkpt>
      <trkpt lat="43.25293" lon="5.67821">
        <ele>321.78515625</ele>
        <time>2020-09-13T07:51:46Z</time>
      </trkpt>
      <trkpt lat="43.25291" lon="5.67815">
        <ele>321.4921875</ele>
        <time>2020-09-13T07:51:47Z</time>
      </trkpt>
      <trkpt lat="43.25289" lon="5.67808">
        <ele>321.04296875</ele>
        <time>2020-09-13T07:51:48Z</time>
      </trkpt>
      <trkpt lat="43.25287" lon="5.678">
        <ele>320.453125</ele>
        <time>2020-09-13T07:51:49Z</time>
      </trkpt>
      <trkpt lat="43.25285" lon="5.67792">
        <ele>319.76171875</ele>
        <time>2020-09-13T07:51:50Z</time>
      </trkpt>
      <trkpt lat="43.25283" lon="5.67783">
        <ele>318.85546875</ele>
        <time>2020-09-13T07:51:51Z</time>
      </trkpt>
      <trkpt lat="43.25278" lon="5.67761">
        <ele>317.21875</ele>
        <time>2020-09-13T07:51:53Z</time>
      </trkpt>
      <trkpt lat="43.25277" lon="5.6775">
        <ele>316.6015625</ele>
        <time>2020-09-13T07:51:54Z</time>
      </trkpt>
      <trkpt lat="43.25277" lon="5.6774">
        <ele>315.875</ele>
        <time>2020-09-13T07:51:55Z</time>
      </trkpt>
      <trkpt lat="43.25279" lon="5.67731">
        <ele>315.02734375</ele>
        <time>2020-09-13T07:51:56Z</time>
      </trkpt>
      <trkpt lat="43.2528" lon="5.67723">
        <ele>314.1875</ele>
        <time>2020-09-13T07:51:57Z</time>
      </trkpt>
      <trkpt lat="43.25281" lon="5.67715">
        <ele>313.43359375</ele>
        <time>2020-09-13T07:51:58Z</time>
      </trkpt>
      <trkpt lat="43.25282" lon="5.67707">
        <ele>312.87109375</ele>
        <time>2020-09-13T07:51:59Z</time>
      </trkpt>
      <trkpt lat="43.25283" lon="5.67701">
        <ele>312.52734375</ele>
        <time>2020-09-13T07:52:00Z</time>
      </trkpt>
      <trkpt lat="43.25285" lon="5.67695">
        <ele>312.16015625</ele>
        <time>2020-09-13T07:52:01Z</time>
      </trkpt>
      <trkpt lat="43.25287" lon="5.67689">
        <ele>311.73046875</ele>
        <time>2020-09-13T07:52:02Z</time>
      </trkpt>
      <trkpt lat="43.25302" lon="5.67652">
        <ele>307.21484375</ele>
        <time>2020-09-13T07:52:07Z</time>
      </trkpt>
      <trkpt lat="43.25304" lon="5.67644">
        <ele>306.3984375</ele>
        <time>2020-09-13T07:52:08Z</time>
      </trkpt>
      <trkpt lat="43.25306" lon="5.67634">
        <ele>305.73828125</ele>
        <time>2020-09-13T07:52:09Z</time>
      </trkpt>
      <trkpt lat="43.25308" lon="5.67624">
        <ele>305.08984375</ele>
        <time>2020-09-13T07:52:10Z</time>
      </trkpt>
      <trkpt lat="43.2531" lon="5.67615">
        <ele>304.38671875</ele>
        <time>2020-09-13T07:52:11Z</time>
      </trkpt>
      <trkpt lat="43.25313" lon="5.67606">
        <ele>303.66015625</ele>
        <time>2020-09-13T07:52:12Z</time>
      </trkpt>
      <trkpt lat="43.25316" lon="5.67598">
        <ele>302.9765625</ele>
        <time>2020-09-13T07:52:13Z</time>
      </trkpt>
      <trkpt lat="43.25319" lon="5.6759">
        <ele>302.359375</ele>
        <time>2020-09-13T07:52:14Z</time>
      </trkpt>
      <trkpt lat="43.25321" lon="5.67581">
        <ele>301.9375</ele>
        <time>2020-09-13T07:52:15Z</time>
      </trkpt>
      <trkpt lat="43.25321" lon="5.67571">
        <ele>301.68359375</ele>
        <time>2020-09-13T07:52:16Z</time>
      </trkpt>
      <trkpt lat="43.25321" lon="5.67564">
        <ele>301.421875</ele>
        <time>2020-09-13T07:52:17Z</time>
      </trkpt>
      <trkpt lat="43.25321" lon="5.67556">
        <ele>301.21484375</ele>
        <time>2020-09-13T07:52:18Z</time>
      </trkpt>
      <trkpt lat="43.2532" lon="5.67549">
        <ele>301.04296875</ele>
        <time>2020-09-13T07:52:19Z</time>
      </trkpt>
      <trkpt lat="43.25316" lon="5.6752">
        <ele>299.6328125</ele>
        <time>2020-09-13T07:52:22Z</time>
      </trkpt>
      <trkpt lat="43.25312" lon="5.67489">
        <ele>297.8125</ele>
        <time>2020-09-13T07:52:25Z</time>
      </trkpt>
      <trkpt lat="43.25309" lon="5.6748">
        <ele>297.42578125</ele>
        <time>2020-09-13T07:52:26Z</time>
      </trkpt>
      <trkpt lat="43.25303" lon="5.67462">
        <ele>296.7734375</ele>
        <time>2020-09-13T07:52:28Z</time>
      </trkpt>
      <trkpt lat="43.25303" lon="5.67453">
        <ele>296.38671875</ele>
        <time>2020-09-13T07:52:29Z</time>
      </trkpt>
      <trkpt lat="43.25302" lon="5.67436">
        <ele>295.69140625</ele>
        <time>2020-09-13T07:52:31Z</time>
      </trkpt>
      <trkpt lat="43.25297" lon="5.67407">
        <ele>294.92578125</ele>
        <time>2020-09-13T07:52:34Z</time>
      </trkpt>
      <trkpt lat="43.25297" lon="5.67389">
        <ele>294.3359375</ele>
        <time>2020-09-13T07:52:36Z</time>
      </trkpt>
      <trkpt lat="43.25297" lon="5.67381">
        <ele>294.01171875</ele>
        <time>2020-09-13T07:52:37Z</time>
      </trkpt>
      <trkpt lat="43.25297" lon="5.67373">
        <ele>293.75</ele>
        <time>2020-09-13T07:52:38Z</time>
      </trkpt>
      <trkpt lat="43.25296" lon="5.67366">
        <ele>293.5546875</ele>
        <time>2020-09-13T07:52:39Z</time>
      </trkpt>
      <trkpt lat="43.25294" lon="5.67359">
        <ele>293.43359375</ele>
        <time>2020-09-13T07:52:40Z</time>
      </trkpt>
      <trkpt lat="43.25292" lon="5.67351">
        <ele>293.33203125</ele>
        <time>2020-09-13T07:52:41Z</time>
      </trkpt>
      <trkpt lat="43.2529" lon="5.67342">
        <ele>293.10546875</ele>
        <time>2020-09-13T07:52:42Z</time>
      </trkpt>
      <trkpt lat="43.25291" lon="5.67333">
        <ele>292.76171875</ele>
        <time>2020-09-13T07:52:43Z</time>
      </trkpt>
      <trkpt lat="43.25292" lon="5.67324">
        <ele>292.3671875</ele>
        <time>2020-09-13T07:52:44Z</time>
      </trkpt>
      <trkpt lat="43.25294" lon="5.67297">
        <ele>290.81640625</ele>
        <time>2020-09-13T07:52:47Z</time>
      </trkpt>
      <trkpt lat="43.25293" lon="5.67289">
        <ele>290.38671875</ele>
        <time>2020-09-13T07:52:48Z</time>
      </trkpt>
      <trkpt lat="43.25292" lon="5.67273">
        <ele>289.35546875</ele>
        <time>2020-09-13T07:52:50Z</time>
      </trkpt>
      <trkpt lat="43.25293" lon="5.67267">
        <ele>288.87109375</ele>
        <time>2020-09-13T07:52:51Z</time>
      </trkpt>
      <trkpt lat="43.25293" lon="5.67262">
        <ele>288.33203125</ele>
        <time>2020-09-13T07:52:52Z</time>
      </trkpt>
      <trkpt lat="43.25293" lon="5.67257">
        <ele>287.9140625</ele>
        <time>2020-09-13T07:52:53Z</time>
      </trkpt>
      <trkpt lat="43.25292" lon="5.67254">
        <ele>287.8359375</ele>
        <time>2020-09-13T07:52:54Z</time>
      </trkpt>
      <trkpt lat="43.2529" lon="5.67254">
        <ele>287.9296875</ele>
        <time>2020-09-13T07:52:55Z</time>
      </trkpt>
      <trkpt lat="43.25286" lon="5.6726">
        <ele>288.90625</ele>
        <time>2020-09-13T07:53:13Z</time>
      </trkpt>
      <trkpt lat="43.25285" lon="5.6726">
        <ele>289.0625</ele>
        <time>2020-09-13T07:53:14Z</time>
      </trkpt>
      <trkpt lat="43.25283" lon="5.6726">
        <ele>289.2265625</ele>
        <time>2020-09-13T07:53:15Z</time>
      </trkpt>
      <trkpt lat="43.2528" lon="5.67259">
        <ele>289.39453125</ele>
        <time>2020-09-13T07:53:16Z</time>
      </trkpt>
      <trkpt lat="43.25277" lon="5.67259">
        <ele>289.53125</ele>
        <time>2020-09-13T07:53:17Z</time>
      </trkpt>
      <trkpt lat="43.25274" lon="5.67259">
        <ele>289.75390625</ele>
        <time>2020-09-13T07:53:18Z</time>
      </trkpt>
      <trkpt lat="43.25271" lon="5.6726">
        <ele>290.05859375</ele>
        <time>2020-09-13T07:53:19Z</time>
      </trkpt>
      <trkpt lat="43.25268" lon="5.6726">
        <ele>290.31640625</ele>
        <time>2020-09-13T07:53:20Z</time>
      </trkpt>
      <trkpt lat="43.25266" lon="5.6726">
        <ele>290.44140625</ele>
        <time>2020-09-13T07:53:21Z</time>
      </trkpt>
      <trkpt lat="43.25263" lon="5.67255">
        <ele>289.9609375</ele>
        <time>2020-09-13T07:53:29Z</time>
      </trkpt>
      <trkpt lat="43.25263" lon="5.67253">
        <ele>289.62109375</ele>
        <time>2020-09-13T07:53:30Z</time>
      </trkpt>
      <trkpt lat="43.25264" lon="5.6725">
        <ele>289.20703125</ele>
        <time>2020-09-13T07:53:31Z</time>
      </trkpt>
      <trkpt lat="43.25266" lon="5.67249">
        <ele>288.9453125</ele>
        <time>2020-09-13T07:53:32Z</time>
      </trkpt>
      <trkpt lat="43.25268" lon="5.67249">
        <ele>288.8671875</ele>
        <time>2020-09-13T07:53:33Z</time>
      </trkpt>
      <trkpt lat="43.25289" lon="5.67255">
        <ele>288.203125</ele>
        <time>2020-09-13T07:53:46Z</time>
      </trkpt>
      <trkpt lat="43.25289" lon="5.67252">
        <ele>287.87890625</ele>
        <time>2020-09-13T07:53:48Z</time>
      </trkpt>
      <trkpt lat="43.25288" lon="5.67249">
        <ele>287.62890625</ele>
        <time>2020-09-13T07:53:49Z</time>
      </trkpt>
      <trkpt lat="43.25288" lon="5.67245">
        <ele>287.265625</ele>
        <time>2020-09-13T07:53:50Z</time>
      </trkpt>
      <trkpt lat="43.25289" lon="5.67242">
        <ele>286.828125</ele>
        <time>2020-09-13T07:53:51Z</time>
      </trkpt>
      <trkpt lat="43.25291" lon="5.67239">
        <ele>286.38671875</ele>
        <time>2020-09-13T07:53:52Z</time>
      </trkpt>
      <trkpt lat="43.25294" lon="5.67236">
        <ele>285.84765625</ele>
        <time>2020-09-13T07:53:53Z</time>
      </trkpt>
      <trkpt lat="43.253" lon="5.6723">
        <ele>284.69921875</ele>
        <time>2020-09-13T07:53:55Z</time>
      </trkpt>
      <trkpt lat="43.25304" lon="5.67227">
        <ele>284.16015625</ele>
        <time>2020-09-13T07:53:56Z</time>
      </trkpt>
      <trkpt lat="43.25308" lon="5.67225">
        <ele>283.69921875</ele>
        <time>2020-09-13T07:53:57Z</time>
      </trkpt>
      <trkpt lat="43.25313" lon="5.67224">
        <ele>283.37890625</ele>
        <time>2020-09-13T07:53:58Z</time>
      </trkpt>
      <trkpt lat="43.25317" lon="5.67224">
        <ele>283.26953125</ele>
        <time>2020-09-13T07:53:59Z</time>
      </trkpt>
      <trkpt lat="43.25323" lon="5.67226">
        <ele>283.1953125</ele>
        <time>2020-09-13T07:54:00Z</time>
      </trkpt>
      <trkpt lat="43.25328" lon="5.67226">
        <ele>283.046875</ele>
        <time>2020-09-13T07:54:01Z</time>
      </trkpt>
      <trkpt lat="43.25333" lon="5.67227">
        <ele>282.94921875</ele>
        <time>2020-09-13T07:54:02Z</time>
      </trkpt>
      <trkpt lat="43.25339" lon="5.67227">
        <ele>282.828125</ele>
        <time>2020-09-13T07:54:03Z</time>
      </trkpt>
      <trkpt lat="43.25344" lon="5.67227">
        <ele>282.66796875</ele>
        <time>2020-09-13T07:54:04Z</time>
      </trkpt>
      <trkpt lat="43.2535" lon="5.67226">
        <ele>282.4453125</ele>
        <time>2020-09-13T07:54:05Z</time>
      </trkpt>
      <trkpt lat="43.25355" lon="5.67224">
        <ele>282.20703125</ele>
        <time>2020-09-13T07:54:06Z</time>
      </trkpt>
      <trkpt lat="43.2536" lon="5.67223">
        <ele>282.01953125</ele>
        <time>2020-09-13T07:54:07Z</time>
      </trkpt>
      <trkpt lat="43.25365" lon="5.67221">
        <ele>281.82421875</ele>
        <time>2020-09-13T07:54:08Z</time>
      </trkpt>
      <trkpt lat="43.2537" lon="5.6722">
        <ele>281.640625</ele>
        <time>2020-09-13T07:54:09Z</time>
      </trkpt>
      <trkpt lat="43.25375" lon="5.67218">
        <ele>281.5</ele>
        <time>2020-09-13T07:54:10Z</time>
      </trkpt>
      <trkpt lat="43.2538" lon="5.67218">
        <ele>281.41796875</ele>
        <time>2020-09-13T07:54:11Z</time>
      </trkpt>
      <trkpt lat="43.25385" lon="5.6722">
        <ele>281.44140625</ele>
        <time>2020-09-13T07:54:12Z</time>
      </trkpt>
      <trkpt lat="43.25389" lon="5.67222">
        <ele>281.50390625</ele>
        <time>2020-09-13T07:54:13Z</time>
      </trkpt>
      <trkpt lat="43.25393" lon="5.67225">
        <ele>281.51953125</ele>
        <time>2020-09-13T07:54:14Z</time>
      </trkpt>
      <trkpt lat="43.25399" lon="5.67226">
        <ele>281.4609375</ele>
        <time>2020-09-13T07:54:15Z</time>
      </trkpt>
      <trkpt lat="43.25404" lon="5.67227">
        <ele>281.36328125</ele>
        <time>2020-09-13T07:54:16Z</time>
      </trkpt>
      <trkpt lat="43.25409" lon="5.67227">
        <ele>281.25</ele>
        <time>2020-09-13T07:54:17Z</time>
      </trkpt>
      <trkpt lat="43.25414" lon="5.67228">
        <ele>281.140625</ele>
        <time>2020-09-13T07:54:18Z</time>
      </trkpt>
      <trkpt lat="43.25419" lon="5.67229">
        <ele>281.015625</ele>
        <time>2020-09-13T07:54:19Z</time>
      </trkpt>
      <trkpt lat="43.25425" lon="5.6723">
        <ele>281.046875</ele>
        <time>2020-09-13T07:54:20Z</time>
      </trkpt>
      <trkpt lat="43.2543" lon="5.6723">
        <ele>281.09375</ele>
        <time>2020-09-13T07:54:21Z</time>
      </trkpt>
      <trkpt lat="43.25453" lon="5.67227">
        <ele>281.44140625</ele>
        <time>2020-09-13T07:54:29Z</time>
      </trkpt>
      <trkpt lat="43.25458" lon="5.67228">
        <ele>281.49609375</ele>
        <time>2020-09-13T07:54:31Z</time>
      </trkpt>
      <trkpt lat="43.2546" lon="5.67229">
        <ele>281.47265625</ele>
        <time>2020-09-13T07:54:32Z</time>
      </trkpt>
      <trkpt lat="43.25464" lon="5.6723">
        <ele>281.4375</ele>
        <time>2020-09-13T07:54:33Z</time>
      </trkpt>
      <trkpt lat="43.25468" lon="5.67231">
        <ele>281.4296875</ele>
        <time>2020-09-13T07:54:34Z</time>
      </trkpt>
      <trkpt lat="43.25472" lon="5.67231">
        <ele>281.45703125</ele>
        <time>2020-09-13T07:54:35Z</time>
      </trkpt>
      <trkpt lat="43.25523" lon="5.67232">
        <ele>279.0703125</ele>
        <time>2020-09-13T07:54:44Z</time>
      </trkpt>
      <trkpt lat="43.25529" lon="5.67231">
        <ele>278.99609375</ele>
        <time>2020-09-13T07:54:45Z</time>
      </trkpt>
      <trkpt lat="43.25547" lon="5.67226">
        <ele>278.90625</ele>
        <time>2020-09-13T07:54:48Z</time>
      </trkpt>
      <trkpt lat="43.25552" lon="5.67222">
        <ele>279.0625</ele>
        <time>2020-09-13T07:54:49Z</time>
      </trkpt>
      <trkpt lat="43.25583" lon="5.67198">
        <ele>279.671875</ele>
        <time>2020-09-13T07:54:55Z</time>
      </trkpt>
      <trkpt lat="43.25588" lon="5.67194">
        <ele>279.609375</ele>
        <time>2020-09-13T07:54:56Z</time>
      </trkpt>
      <trkpt lat="43.25623" lon="5.67161">
        <ele>278.44140625</ele>
        <time>2020-09-13T07:55:05Z</time>
      </trkpt>
      <trkpt lat="43.25632" lon="5.67153">
        <ele>278.19921875</ele>
        <time>2020-09-13T07:55:09Z</time>
      </trkpt>
      <trkpt lat="43.25633" lon="5.67151">
        <ele>278.22265625</ele>
        <time>2020-09-13T07:55:10Z</time>
      </trkpt>
      <trkpt lat="43.25635" lon="5.6715">
        <ele>278.1484375</ele>
        <time>2020-09-13T07:55:11Z</time>
      </trkpt>
      <trkpt lat="43.25641" lon="5.67146">
        <ele>277.80078125</ele>
        <time>2020-09-13T07:55:14Z</time>
      </trkpt>
      <trkpt lat="43.25643" lon="5.67145">
        <ele>277.59375</ele>
        <time>2020-09-13T07:55:15Z</time>
      </trkpt>
      <trkpt lat="43.25645" lon="5.67145">
        <ele>277.3671875</ele>
        <time>2020-09-13T07:55:16Z</time>
      </trkpt>
      <trkpt lat="43.25647" lon="5.67144">
        <ele>277.11328125</ele>
        <time>2020-09-13T07:55:17Z</time>
      </trkpt>
      <trkpt lat="43.25648" lon="5.67143">
        <ele>276.96875</ele>
        <time>2020-09-13T07:55:18Z</time>
      </trkpt>
      <trkpt lat="43.25649" lon="5.67141">
        <ele>276.9375</ele>
        <time>2020-09-13T07:55:19Z</time>
      </trkpt>
      <trkpt lat="43.25651" lon="5.67139">
        <ele>276.8828125</ele>
        <time>2020-09-13T07:55:20Z</time>
      </trkpt>
      <trkpt lat="43.25653" lon="5.67137">
        <ele>276.68359375</ele>
        <time>2020-09-13T07:55:21Z</time>
      </trkpt>
      <trkpt lat="43.25661" lon="5.67128">
        <ele>276.23828125</ele>
        <time>2020-09-13T07:55:23Z</time>
      </trkpt>
      <trkpt lat="43.25665" lon="5.67122">
        <ele>275.859375</ele>
        <time>2020-09-13T07:55:24Z</time>
      </trkpt>
      <trkpt lat="43.2567" lon="5.67117">
        <ele>275.40625</ele>
        <time>2020-09-13T07:55:25Z</time>
      </trkpt>
      <trkpt lat="43.25679" lon="5.67107">
        <ele>274.578125</ele>
        <time>2020-09-13T07:55:27Z</time>
      </trkpt>
      <trkpt lat="43.25684" lon="5.67102">
        <ele>274.328125</ele>
        <time>2020-09-13T07:55:28Z</time>
      </trkpt>
      <trkpt lat="43.25688" lon="5.67095">
        <ele>274.21875</ele>
        <time>2020-09-13T07:55:29Z</time>
      </trkpt>
      <trkpt lat="43.25693" lon="5.67089">
        <ele>274.1796875</ele>
        <time>2020-09-13T07:55:30Z</time>
      </trkpt>
      <trkpt lat="43.25697" lon="5.67083">
        <ele>274.171875</ele>
        <time>2020-09-13T07:55:31Z</time>
      </trkpt>
      <trkpt lat="43.25725" lon="5.67054">
        <ele>272.640625</ele>
        <time>2020-09-13T07:55:36Z</time>
      </trkpt>
      <trkpt lat="43.25759" lon="5.67028">
        <ele>271.44140625</ele>
        <time>2020-09-13T07:55:42Z</time>
      </trkpt>
      <trkpt lat="43.25775" lon="5.67013">
        <ele>270.76171875</ele>
        <time>2020-09-13T07:55:45Z</time>
      </trkpt>
      <trkpt lat="43.25792" lon="5.67">
        <ele>269.3359375</ele>
        <time>2020-09-13T07:55:48Z</time>
      </trkpt>
      <trkpt lat="43.25809" lon="5.66982">
        <ele>268.1640625</ele>
        <time>2020-09-13T07:55:51Z</time>
      </trkpt>
      <trkpt lat="43.2582" lon="5.66968">
        <ele>267.9140625</ele>
        <time>2020-09-13T07:55:53Z</time>
      </trkpt>
      <trkpt lat="43.25854" lon="5.66926">
        <ele>265.6640625</ele>
        <time>2020-09-13T07:55:59Z</time>
      </trkpt>
      <trkpt lat="43.25871" lon="5.66906">
        <ele>264.3203125</ele>
        <time>2020-09-13T07:56:02Z</time>
      </trkpt>
      <trkpt lat="43.25875" lon="5.669">
        <ele>263.74609375</ele>
        <time>2020-09-13T07:56:03Z</time>
      </trkpt>
      <trkpt lat="43.25879" lon="5.66894">
        <ele>263.19140625</ele>
        <time>2020-09-13T07:56:04Z</time>
      </trkpt>
      <trkpt lat="43.25884" lon="5.66888">
        <ele>262.734375</ele>
        <time>2020-09-13T07:56:05Z</time>
      </trkpt>
      <trkpt lat="43.25887" lon="5.66881">
        <ele>262.3984375</ele>
        <time>2020-09-13T07:56:06Z</time>
      </trkpt>
      <trkpt lat="43.2589" lon="5.66874">
        <ele>262.08984375</ele>
        <time>2020-09-13T07:56:07Z</time>
      </trkpt>
      <trkpt lat="43.25897" lon="5.66848">
        <ele>260</ele>
        <time>2020-09-13T07:56:12Z</time>
      </trkpt>
      <trkpt lat="43.25909" lon="5.66841">
        <ele>257.4375</ele>
        <time>2020-09-13T07:56:19Z</time>
      </trkpt>
      <trkpt lat="43.25911" lon="5.66838">
        <ele>257.03125</ele>
        <time>2020-09-13T07:56:20Z</time>
      </trkpt>
      <trkpt lat="43.25918" lon="5.66812">
        <ele>254.57421875</ele>
        <time>2020-09-13T07:56:25Z</time>
      </trkpt>
      <trkpt lat="43.25919" lon="5.66808">
        <ele>254.09375</ele>
        <time>2020-09-13T07:56:26Z</time>
      </trkpt>
      <trkpt lat="43.25922" lon="5.66803">
        <ele>253.4453125</ele>
        <time>2020-09-13T07:56:27Z</time>
      </trkpt>
      <trkpt lat="43.25925" lon="5.668">
        <ele>252.67578125</ele>
        <time>2020-09-13T07:56:28Z</time>
      </trkpt>
      <trkpt lat="43.2593" lon="5.66798">
        <ele>251.93359375</ele>
        <time>2020-09-13T07:56:29Z</time>
      </trkpt>
      <trkpt lat="43.25934" lon="5.66797">
        <ele>251.24609375</ele>
        <time>2020-09-13T07:56:30Z</time>
      </trkpt>
      <trkpt lat="43.25938" lon="5.66795">
        <ele>250.48046875</ele>
        <time>2020-09-13T07:56:31Z</time>
      </trkpt>
      <trkpt lat="43.25942" lon="5.66792">
        <ele>249.71875</ele>
        <time>2020-09-13T07:56:32Z</time>
      </trkpt>
      <trkpt lat="43.25944" lon="5.66789">
        <ele>249.1171875</ele>
        <time>2020-09-13T07:56:33Z</time>
      </trkpt>
      <trkpt lat="43.25945" lon="5.66784">
        <ele>248.67578125</ele>
        <time>2020-09-13T07:56:34Z</time>
      </trkpt>
      <trkpt lat="43.25946" lon="5.6678">
        <ele>248.3046875</ele>
        <time>2020-09-13T07:56:35Z</time>
      </trkpt>
      <trkpt lat="43.25947" lon="5.66776">
        <ele>247.79296875</ele>
        <time>2020-09-13T07:56:36Z</time>
      </trkpt>
      <trkpt lat="43.25949" lon="5.66771">
        <ele>247.01171875</ele>
        <time>2020-09-13T07:56:37Z</time>
      </trkpt>
      <trkpt lat="43.25957" lon="5.66757">
        <ele>244.19921875</ele>
        <time>2020-09-13T07:56:40Z</time>
      </trkpt>
      <trkpt lat="43.2596" lon="5.66756">
        <ele>243.28515625</ele>
        <time>2020-09-13T07:56:41Z</time>
      </trkpt>
      <trkpt lat="43.25965" lon="5.66756">
        <ele>242.3515625</ele>
        <time>2020-09-13T07:56:42Z</time>
      </trkpt>
      <trkpt lat="43.25971" lon="5.66759">
        <ele>241.3671875</ele>
        <time>2020-09-13T07:56:43Z</time>
      </trkpt>
      <trkpt lat="43.25977" lon="5.66763">
        <ele>240.48828125</ele>
        <time>2020-09-13T07:56:44Z</time>
      </trkpt>
      <trkpt lat="43.25982" lon="5.66767">
        <ele>239.76171875</ele>
        <time>2020-09-13T07:56:45Z</time>
      </trkpt>
      <trkpt lat="43.25988" lon="5.66772">
        <ele>239</ele>
        <time>2020-09-13T07:56:46Z</time>
      </trkpt>
      <trkpt lat="43.25992" lon="5.66778">
        <ele>238.3671875</ele>
        <time>2020-09-13T07:56:47Z</time>
      </trkpt>
      <trkpt lat="43.25999" lon="5.66788">
        <ele>237.45703125</ele>
        <time>2020-09-13T07:56:49Z</time>
      </trkpt>
      <trkpt lat="43.26007" lon="5.66799">
        <ele>236.62890625</ele>
        <time>2020-09-13T07:56:52Z</time>
      </trkpt>
      <trkpt lat="43.26008" lon="5.668">
        <ele>236.515625</ele>
        <time>2020-09-13T07:56:53Z</time>
      </trkpt>
      <trkpt lat="43.26011" lon="5.66798">
        <ele>236.0078125</ele>
        <time>2020-09-13T07:57:06Z</time>
      </trkpt>
      <trkpt lat="43.26012" lon="5.66797">
        <ele>235.80078125</ele>
        <time>2020-09-13T07:57:07Z</time>
      </trkpt>
      <trkpt lat="43.26014" lon="5.66796">
        <ele>235.58203125</ele>
        <time>2020-09-13T07:57:08Z</time>
      </trkpt>
      <trkpt lat="43.26014" lon="5.66794">
        <ele>235.4921875</ele>
        <time>2020-09-13T07:57:09Z</time>
      </trkpt>
      <trkpt lat="43.26013" lon="5.66792">
        <ele>235.50390625</ele>
        <time>2020-09-13T07:57:10Z</time>
      </trkpt>
      <trkpt lat="43.26003" lon="5.66767">
        <ele>236.01171875</ele>
        <time>2020-09-13T07:57:21Z</time>
      </trkpt>
      <trkpt lat="43.25983" lon="5.66747">
        <ele>238.4453125</ele>
        <time>2020-09-13T07:57:34Z</time>
      </trkpt>
      <trkpt lat="43.25933" lon="5.66745">
        <ele>246.421875</ele>
        <time>2020-09-13T07:57:49Z</time>
      </trkpt>
      <trkpt lat="43.25887" lon="5.6676">
        <ele>252.58984375</ele>
        <time>2020-09-13T07:58:03Z</time>
      </trkpt>
      <trkpt lat="43.25862" lon="5.66795">
        <ele>257.2265625</ele>
        <time>2020-09-13T07:58:15Z</time>
      </trkpt>
      <trkpt lat="43.25842" lon="5.66807">
        <ele>259.2109375</ele>
        <time>2020-09-13T07:58:23Z</time>
      </trkpt>
      <trkpt lat="43.25835" lon="5.66774">
        <ele>255.84375</ele>
        <time>2020-09-13T07:58:32Z</time>
      </trkpt>
      <trkpt lat="43.25864" lon="5.66741">
        <ele>252.25</ele>
        <time>2020-09-13T07:58:44Z</time>
      </trkpt>
      <trkpt lat="43.25881" lon="5.66736">
        <ele>250.65234375</ele>
        <time>2020-09-13T07:58:50Z</time>
      </trkpt>
      <trkpt lat="43.25884" lon="5.66736">
        <ele>250.47265625</ele>
        <time>2020-09-13T07:58:51Z</time>
      </trkpt>
      <trkpt lat="43.25885" lon="5.66736">
        <ele>250.33203125</ele>
        <time>2020-09-13T07:58:52Z</time>
      </trkpt>
      <trkpt lat="43.25887" lon="5.66734">
        <ele>250.13671875</ele>
        <time>2020-09-13T07:58:53Z</time>
      </trkpt>
      <trkpt lat="43.25888" lon="5.66732">
        <ele>249.890625</ele>
        <time>2020-09-13T07:58:54Z</time>
      </trkpt>
      <trkpt lat="43.25889" lon="5.6673">
        <ele>249.640625</ele>
        <time>2020-09-13T07:58:55Z</time>
      </trkpt>
      <trkpt lat="43.25891" lon="5.66728">
        <ele>249.39453125</ele>
        <time>2020-09-13T07:58:56Z</time>
      </trkpt>
      <trkpt lat="43.25925" lon="5.6669">
        <ele>244.6328125</ele>
        <time>2020-09-13T07:59:10Z</time>
      </trkpt>
      <trkpt lat="43.2594" lon="5.66666">
        <ele>241.7734375</ele>
        <time>2020-09-13T07:59:15Z</time>
      </trkpt>
      <trkpt lat="43.25945" lon="5.66653">
        <ele>240.80859375</ele>
        <time>2020-09-13T07:59:17Z</time>
      </trkpt>
      <trkpt lat="43.25961" lon="5.66559">
        <ele>236.46875</ele>
        <time>2020-09-13T07:59:28Z</time>
      </trkpt>
      <trkpt lat="43.25964" lon="5.66537">
        <ele>235.1484375</ele>
        <time>2020-09-13T07:59:30Z</time>
      </trkpt>
      <trkpt lat="43.25964" lon="5.66528">
        <ele>234.59375</ele>
        <time>2020-09-13T07:59:31Z</time>
      </trkpt>
      <trkpt lat="43.25964" lon="5.66519">
        <ele>234.2421875</ele>
        <time>2020-09-13T07:59:32Z</time>
      </trkpt>
      <trkpt lat="43.25963" lon="5.6651">
        <ele>234.25390625</ele>
        <time>2020-09-13T07:59:33Z</time>
      </trkpt>
      <trkpt lat="43.25961" lon="5.66502">
        <ele>234.66015625</ele>
        <time>2020-09-13T07:59:34Z</time>
      </trkpt>
      <trkpt lat="43.25957" lon="5.66495">
        <ele>235.33984375</ele>
        <time>2020-09-13T07:59:35Z</time>
      </trkpt>
      <trkpt lat="43.25951" lon="5.66489">
        <ele>236.25390625</ele>
        <time>2020-09-13T07:59:36Z</time>
      </trkpt>
      <trkpt lat="43.25947" lon="5.66482">
        <ele>237.015625</ele>
        <time>2020-09-13T07:59:37Z</time>
      </trkpt>
      <trkpt lat="43.25944" lon="5.66475">
        <ele>237.36328125</ele>
        <time>2020-09-13T07:59:38Z</time>
      </trkpt>
      <trkpt lat="43.25944" lon="5.66467">
        <ele>237.11328125</ele>
        <time>2020-09-13T07:59:39Z</time>
      </trkpt>
      <trkpt lat="43.25946" lon="5.6646">
        <ele>236.25</ele>
        <time>2020-09-13T07:59:40Z</time>
      </trkpt>
      <trkpt lat="43.25951" lon="5.66456">
        <ele>235.8125</ele>
        <time>2020-09-13T07:59:41Z</time>
      </trkpt>
      <trkpt lat="43.25957" lon="5.66453">
        <ele>235.36328125</ele>
        <time>2020-09-13T07:59:42Z</time>
      </trkpt>
      <trkpt lat="43.25963" lon="5.66451">
        <ele>234.88671875</ele>
        <time>2020-09-13T07:59:43Z</time>
      </trkpt>
      <trkpt lat="43.25968" lon="5.66448">
        <ele>234.59765625</ele>
        <time>2020-09-13T07:59:44Z</time>
      </trkpt>
      <trkpt lat="43.25972" lon="5.66442">
        <ele>234.59375</ele>
        <time>2020-09-13T07:59:45Z</time>
      </trkpt>
      <trkpt lat="43.25974" lon="5.66436">
        <ele>234.83984375</ele>
        <time>2020-09-13T07:59:46Z</time>
      </trkpt>
      <trkpt lat="43.25976" lon="5.66429">
        <ele>235.45703125</ele>
        <time>2020-09-13T07:59:47Z</time>
      </trkpt>
      <trkpt lat="43.25977" lon="5.66422">
        <ele>236.26171875</ele>
        <time>2020-09-13T07:59:48Z</time>
      </trkpt>
      <trkpt lat="43.25977" lon="5.66415">
        <ele>237.01953125</ele>
        <time>2020-09-13T07:59:49Z</time>
      </trkpt>
      <trkpt lat="43.25977" lon="5.66408">
        <ele>237.69921875</ele>
        <time>2020-09-13T07:59:50Z</time>
      </trkpt>
      <trkpt lat="43.25976" lon="5.66402">
        <ele>238.21484375</ele>
        <time>2020-09-13T07:59:51Z</time>
      </trkpt>
      <trkpt lat="43.25974" lon="5.66397">
        <ele>238.62890625</ele>
        <time>2020-09-13T07:59:52Z</time>
      </trkpt>
      <trkpt lat="43.25972" lon="5.66391">
        <ele>239.03125</ele>
        <time>2020-09-13T07:59:53Z</time>
      </trkpt>
      <trkpt lat="43.25963" lon="5.66372">
        <ele>240.18359375</ele>
        <time>2020-09-13T07:59:57Z</time>
      </trkpt>
      <trkpt lat="43.2596" lon="5.66361">
        <ele>240.59375</ele>
        <time>2020-09-13T07:59:59Z</time>
      </trkpt>
      <trkpt lat="43.25959" lon="5.66355">
        <ele>240.8046875</ele>
        <time>2020-09-13T08:00:00Z</time>
      </trkpt>
      <trkpt lat="43.25958" lon="5.66349">
        <ele>241.03515625</ele>
        <time>2020-09-13T08:00:01Z</time>
      </trkpt>
      <trkpt lat="43.25954" lon="5.6632">
        <ele>243.0546875</ele>
        <time>2020-09-13T08:00:06Z</time>
      </trkpt>
      <trkpt lat="43.25954" lon="5.66314">
        <ele>243.26953125</ele>
        <time>2020-09-13T08:00:07Z</time>
      </trkpt>
      <trkpt lat="43.25954" lon="5.66308">
        <ele>243.4765625</ele>
        <time>2020-09-13T08:00:08Z</time>
      </trkpt>
      <trkpt lat="43.25956" lon="5.66303">
        <ele>243.6640625</ele>
        <time>2020-09-13T08:00:09Z</time>
      </trkpt>
      <trkpt lat="43.2596" lon="5.663">
        <ele>243.77734375</ele>
        <time>2020-09-13T08:00:10Z</time>
      </trkpt>
      <trkpt lat="43.25964" lon="5.663">
        <ele>243.77734375</ele>
        <time>2020-09-13T08:00:11Z</time>
      </trkpt>
      <trkpt lat="43.25969" lon="5.66302">
        <ele>243.70703125</ele>
        <time>2020-09-13T08:00:12Z</time>
      </trkpt>
      <trkpt lat="43.25972" lon="5.66305">
        <ele>243.59765625</ele>
        <time>2020-09-13T08:00:13Z</time>
      </trkpt>
      <trkpt lat="43.25975" lon="5.66308">
        <ele>243.47265625</ele>
        <time>2020-09-13T08:00:14Z</time>
      </trkpt>
      <trkpt lat="43.25978" lon="5.66312">
        <ele>243.53125</ele>
        <time>2020-09-13T08:00:15Z</time>
      </trkpt>
      <trkpt lat="43.26006" lon="5.66323">
        <ele>245.28515625</ele>
        <time>2020-09-13T08:00:26Z</time>
      </trkpt>
      <trkpt lat="43.26028" lon="5.66305">
        <ele>248.30859375</ele>
        <time>2020-09-13T08:00:37Z</time>
      </trkpt>
      <trkpt lat="43.26048" lon="5.66278">
        <ele>251.08203125</ele>
        <time>2020-09-13T08:00:49Z</time>
      </trkpt>
      <trkpt lat="43.26067" lon="5.6625">
        <ele>253.01171875</ele>
        <time>2020-09-13T08:01:02Z</time>
      </trkpt>
      <trkpt lat="43.26086" lon="5.66223">
        <ele>255.06640625</ele>
        <time>2020-09-13T08:01:16Z</time>
      </trkpt>
      <trkpt lat="43.26095" lon="5.66196">
        <ele>256.19140625</ele>
        <time>2020-09-13T08:01:31Z</time>
      </trkpt>
      <trkpt lat="43.26095" lon="5.66183">
        <ele>256.67578125</ele>
        <time>2020-09-13T08:01:36Z</time>
      </trkpt>
      <trkpt lat="43.26095" lon="5.66181">
        <ele>256.79296875</ele>
        <time>2020-09-13T08:01:37Z</time>
      </trkpt>
      <trkpt lat="43.26095" lon="5.66162">
        <ele>257.9375</ele>
        <time>2020-09-13T08:01:44Z</time>
      </trkpt>
      <trkpt lat="43.26096" lon="5.66145">
        <ele>258.6640625</ele>
        <time>2020-09-13T08:01:50Z</time>
      </trkpt>
      <trkpt lat="43.26097" lon="5.6611">
        <ele>259.82421875</ele>
        <time>2020-09-13T08:02:04Z</time>
      </trkpt>
      <trkpt lat="43.26092" lon="5.66085">
        <ele>261.0859375</ele>
        <time>2020-09-13T08:02:17Z</time>
      </trkpt>
      <trkpt lat="43.26094" lon="5.66088">
        <ele>260.90625</ele>
        <time>2020-09-13T08:02:21Z</time>
      </trkpt>
      <trkpt lat="43.26095" lon="5.66094">
        <ele>260.5859375</ele>
        <time>2020-09-13T08:02:24Z</time>
      </trkpt>
      <trkpt lat="43.26097" lon="5.66096">
        <ele>260.3203125</ele>
        <time>2020-09-13T08:02:27Z</time>
      </trkpt>
      <trkpt lat="43.26124" lon="5.66097">
        <ele>258.3671875</ele>
        <time>2020-09-13T08:02:36Z</time>
      </trkpt>
      <trkpt lat="43.26132" lon="5.66103">
        <ele>257.5859375</ele>
        <time>2020-09-13T08:02:39Z</time>
      </trkpt>
      <trkpt lat="43.26137" lon="5.66103">
        <ele>257.203125</ele>
        <time>2020-09-13T08:02:41Z</time>
      </trkpt>
      <trkpt lat="43.26164" lon="5.66085">
        <ele>255.12109375</ele>
        <time>2020-09-13T08:02:49Z</time>
      </trkpt>
      <trkpt lat="43.26166" lon="5.66081">
        <ele>255.08203125</ele>
        <time>2020-09-13T08:02:50Z</time>
      </trkpt>
      <trkpt lat="43.26167" lon="5.66076">
        <ele>255.15625</ele>
        <time>2020-09-13T08:02:51Z</time>
      </trkpt>
      <trkpt lat="43.26167" lon="5.66071">
        <ele>255.25</ele>
        <time>2020-09-13T08:02:52Z</time>
      </trkpt>
      <trkpt lat="43.26168" lon="5.66068">
        <ele>255.36328125</ele>
        <time>2020-09-13T08:02:53Z</time>
      </trkpt>
      <trkpt lat="43.26168" lon="5.66064">
        <ele>255.46875</ele>
        <time>2020-09-13T08:02:54Z</time>
      </trkpt>
      <trkpt lat="43.26168" lon="5.66061">
        <ele>255.58203125</ele>
        <time>2020-09-13T08:02:55Z</time>
      </trkpt>
      <trkpt lat="43.26167" lon="5.66058">
        <ele>255.703125</ele>
        <time>2020-09-13T08:02:56Z</time>
      </trkpt>
      <trkpt lat="43.26167" lon="5.66055">
        <ele>255.82421875</ele>
        <time>2020-09-13T08:02:57Z</time>
      </trkpt>
      <trkpt lat="43.26166" lon="5.66053">
        <ele>255.97265625</ele>
        <time>2020-09-13T08:02:58Z</time>
      </trkpt>
      <trkpt lat="43.26165" lon="5.66051">
        <ele>256.12109375</ele>
        <time>2020-09-13T08:02:59Z</time>
      </trkpt>
      <trkpt lat="43.26164" lon="5.66049">
        <ele>256.26953125</ele>
        <time>2020-09-13T08:03:00Z</time>
      </trkpt>
      <trkpt lat="43.26163" lon="5.66047">
        <ele>256.39453125</ele>
        <time>2020-09-13T08:03:01Z</time>
      </trkpt>
      <trkpt lat="43.26163" lon="5.66044">
        <ele>256.47265625</ele>
        <time>2020-09-13T08:03:02Z</time>
      </trkpt>
      <trkpt lat="43.26163" lon="5.66042">
        <ele>256.55859375</ele>
        <time>2020-09-13T08:03:03Z</time>
      </trkpt>
      <trkpt lat="43.26163" lon="5.6604">
        <ele>256.6640625</ele>
        <time>2020-09-13T08:03:04Z</time>
      </trkpt>
      <trkpt lat="43.26162" lon="5.66038">
        <ele>256.7734375</ele>
        <time>2020-09-13T08:03:05Z</time>
      </trkpt>
      <trkpt lat="43.26161" lon="5.66036">
        <ele>256.91015625</ele>
        <time>2020-09-13T08:03:06Z</time>
      </trkpt>
      <trkpt lat="43.2616" lon="5.66034">
        <ele>257.046875</ele>
        <time>2020-09-13T08:03:07Z</time>
      </trkpt>
      <trkpt lat="43.2616" lon="5.66031">
        <ele>257.17578125</ele>
        <time>2020-09-13T08:03:08Z</time>
      </trkpt>
      <trkpt lat="43.26159" lon="5.66029">
        <ele>257.29296875</ele>
        <time>2020-09-13T08:03:09Z</time>
      </trkpt>
      <trkpt lat="43.26159" lon="5.66027">
        <ele>257.40234375</ele>
        <time>2020-09-13T08:03:10Z</time>
      </trkpt>
      <trkpt lat="43.26158" lon="5.66025">
        <ele>257.53515625</ele>
        <time>2020-09-13T08:03:11Z</time>
      </trkpt>
      <trkpt lat="43.26157" lon="5.66022">
        <ele>257.66796875</ele>
        <time>2020-09-13T08:03:12Z</time>
      </trkpt>
      <trkpt lat="43.26157" lon="5.6602">
        <ele>257.8125</ele>
        <time>2020-09-13T08:03:13Z</time>
      </trkpt>
      <trkpt lat="43.26156" lon="5.66017">
        <ele>257.96484375</ele>
        <time>2020-09-13T08:03:14Z</time>
      </trkpt>
      <trkpt lat="43.26144" lon="5.65982">
        <ele>260.06640625</ele>
        <time>2020-09-13T08:03:27Z</time>
      </trkpt>
      <trkpt lat="43.26139" lon="5.65968">
        <ele>260.95703125</ele>
        <time>2020-09-13T08:03:33Z</time>
      </trkpt>
      <trkpt lat="43.26121" lon="5.65921">
        <ele>263.7890625</ele>
        <time>2020-09-13T08:03:51Z</time>
      </trkpt>
      <trkpt lat="43.26107" lon="5.6588">
        <ele>266.47265625</ele>
        <time>2020-09-13T08:04:09Z</time>
      </trkpt>
      <trkpt lat="43.26096" lon="5.65835">
        <ele>267.84765625</ele>
        <time>2020-09-13T08:04:26Z</time>
      </trkpt>
      <trkpt lat="43.26095" lon="5.65787">
        <ele>269.66015625</ele>
        <time>2020-09-13T08:04:43Z</time>
      </trkpt>
      <trkpt lat="43.261" lon="5.65749">
        <ele>271.28125</ele>
        <time>2020-09-13T08:04:57Z</time>
      </trkpt>
      <trkpt lat="43.26101" lon="5.65727">
        <ele>272.59375</ele>
        <time>2020-09-13T08:05:06Z</time>
      </trkpt>
      <trkpt lat="43.26101" lon="5.65725">
        <ele>272.71875</ele>
        <time>2020-09-13T08:05:07Z</time>
      </trkpt>
      <trkpt lat="43.261" lon="5.65723">
        <ele>272.859375</ele>
        <time>2020-09-13T08:05:08Z</time>
      </trkpt>
      <trkpt lat="43.26101" lon="5.65713">
        <ele>273.390625</ele>
        <time>2020-09-13T08:05:13Z</time>
      </trkpt>
      <trkpt lat="43.26099" lon="5.65683">
        <ele>274.55078125</ele>
        <time>2020-09-13T08:05:26Z</time>
      </trkpt>
      <trkpt lat="43.26098" lon="5.65681">
        <ele>274.67578125</ele>
        <time>2020-09-13T08:05:27Z</time>
      </trkpt>
      <trkpt lat="43.26098" lon="5.65679">
        <ele>274.796875</ele>
        <time>2020-09-13T08:05:28Z</time>
      </trkpt>
      <trkpt lat="43.26098" lon="5.65677">
        <ele>274.92578125</ele>
        <time>2020-09-13T08:05:29Z</time>
      </trkpt>
      <trkpt lat="43.26097" lon="5.65675">
        <ele>275.0546875</ele>
        <time>2020-09-13T08:05:30Z</time>
      </trkpt>
      <trkpt lat="43.26097" lon="5.65673">
        <ele>275.17578125</ele>
        <time>2020-09-13T08:05:31Z</time>
      </trkpt>
      <trkpt lat="43.26097" lon="5.65671">
        <ele>275.328125</ele>
        <time>2020-09-13T08:05:32Z</time>
      </trkpt>
      <trkpt lat="43.26097" lon="5.65668">
        <ele>275.48828125</ele>
        <time>2020-09-13T08:05:33Z</time>
      </trkpt>
      <trkpt lat="43.26096" lon="5.65666">
        <ele>275.65234375</ele>
        <time>2020-09-13T08:05:34Z</time>
      </trkpt>
      <trkpt lat="43.26096" lon="5.65664">
        <ele>275.82421875</ele>
        <time>2020-09-13T08:05:35Z</time>
      </trkpt>
      <trkpt lat="43.26095" lon="5.65662">
        <ele>275.9921875</ele>
        <time>2020-09-13T08:05:36Z</time>
      </trkpt>
      <trkpt lat="43.26094" lon="5.65659">
        <ele>276.18359375</ele>
        <time>2020-09-13T08:05:37Z</time>
      </trkpt>
      <trkpt lat="43.26091" lon="5.65639">
        <ele>277.87890625</ele>
        <time>2020-09-13T08:05:47Z</time>
      </trkpt>
      <trkpt lat="43.26091" lon="5.65636">
        <ele>278.04296875</ele>
        <time>2020-09-13T08:05:48Z</time>
      </trkpt>
      <trkpt lat="43.26091" lon="5.65634">
        <ele>278.22265625</ele>
        <time>2020-09-13T08:05:49Z</time>
      </trkpt>
      <trkpt lat="43.26087" lon="5.65607">
        <ele>280.4140625</ele>
        <time>2020-09-13T08:06:00Z</time>
      </trkpt>
      <trkpt lat="43.26087" lon="5.65605">
        <ele>280.59375</ele>
        <time>2020-09-13T08:06:01Z</time>
      </trkpt>
      <trkpt lat="43.26086" lon="5.65594">
        <ele>281.22265625</ele>
        <time>2020-09-13T08:06:06Z</time>
      </trkpt>
      <trkpt lat="43.26086" lon="5.65592">
        <ele>281.2890625</ele>
        <time>2020-09-13T08:06:07Z</time>
      </trkpt>
      <trkpt lat="43.26087" lon="5.65589">
        <ele>281.3828125</ele>
        <time>2020-09-13T08:06:08Z</time>
      </trkpt>
      <trkpt lat="43.26086" lon="5.65586">
        <ele>281.4921875</ele>
        <time>2020-09-13T08:06:09Z</time>
      </trkpt>
      <trkpt lat="43.26086" lon="5.65583">
        <ele>281.60546875</ele>
        <time>2020-09-13T08:06:10Z</time>
      </trkpt>
      <trkpt lat="43.26078" lon="5.65548">
        <ele>284.3671875</ele>
        <time>2020-09-13T08:06:23Z</time>
      </trkpt>
      <trkpt lat="43.26073" lon="5.65537">
        <ele>285.55859375</ele>
        <time>2020-09-13T08:06:28Z</time>
      </trkpt>
      <trkpt lat="43.26071" lon="5.65534">
        <ele>285.8515625</ele>
        <time>2020-09-13T08:06:29Z</time>
      </trkpt>
      <trkpt lat="43.26069" lon="5.65532">
        <ele>286.1328125</ele>
        <time>2020-09-13T08:06:30Z</time>
      </trkpt>
      <trkpt lat="43.26068" lon="5.65529">
        <ele>286.375</ele>
        <time>2020-09-13T08:06:31Z</time>
      </trkpt>
      <trkpt lat="43.26067" lon="5.65527">
        <ele>286.58984375</ele>
        <time>2020-09-13T08:06:32Z</time>
      </trkpt>
      <trkpt lat="43.26059" lon="5.65499">
        <ele>289.22265625</ele>
        <time>2020-09-13T08:06:45Z</time>
      </trkpt>
      <trkpt lat="43.26058" lon="5.65493">
        <ele>289.75</ele>
        <time>2020-09-13T08:06:48Z</time>
      </trkpt>
      <trkpt lat="43.26056" lon="5.65473">
        <ele>290.63671875</ele>
        <time>2020-09-13T08:06:58Z</time>
      </trkpt>
      <trkpt lat="43.26056" lon="5.65471">
        <ele>290.71875</ele>
        <time>2020-09-13T08:06:59Z</time>
      </trkpt>
      <trkpt lat="43.26053" lon="5.65434">
        <ele>292.20703125</ele>
        <time>2020-09-13T08:07:17Z</time>
      </trkpt>
      <trkpt lat="43.2605" lon="5.65395">
        <ele>293.0234375</ele>
        <time>2020-09-13T08:07:33Z</time>
      </trkpt>
      <trkpt lat="43.26046" lon="5.65356">
        <ele>293.875</ele>
        <time>2020-09-13T08:07:49Z</time>
      </trkpt>
      <trkpt lat="43.26043" lon="5.65316">
        <ele>294.734375</ele>
        <time>2020-09-13T08:08:04Z</time>
      </trkpt>
      <trkpt lat="43.26044" lon="5.65268">
        <ele>294.546875</ele>
        <time>2020-09-13T08:08:19Z</time>
      </trkpt>
      <trkpt lat="43.26046" lon="5.65203">
        <ele>293.0234375</ele>
        <time>2020-09-13T08:08:34Z</time>
      </trkpt>
      <trkpt lat="43.26049" lon="5.65147">
        <ele>292.01953125</ele>
        <time>2020-09-13T08:08:46Z</time>
      </trkpt>
      <trkpt lat="43.26042" lon="5.65062">
        <ele>290.6171875</ele>
        <time>2020-09-13T08:09:02Z</time>
      </trkpt>
      <trkpt lat="43.26041" lon="5.65057">
        <ele>290.55078125</ele>
        <time>2020-09-13T08:09:03Z</time>
      </trkpt>
      <trkpt lat="43.26037" lon="5.65027">
        <ele>290.40625</ele>
        <time>2020-09-13T08:09:08Z</time>
      </trkpt>
      <trkpt lat="43.26037" lon="5.64985">
        <ele>289.7421875</ele>
        <time>2020-09-13T08:09:14Z</time>
      </trkpt>
      <trkpt lat="43.26035" lon="5.64978">
        <ele>289.7109375</ele>
        <time>2020-09-13T08:09:15Z</time>
      </trkpt>
      <trkpt lat="43.26033" lon="5.64972">
        <ele>289.89453125</ele>
        <time>2020-09-13T08:09:16Z</time>
      </trkpt>
      <trkpt lat="43.2603" lon="5.64966">
        <ele>290.21484375</ele>
        <time>2020-09-13T08:09:17Z</time>
      </trkpt>
      <trkpt lat="43.26027" lon="5.64961">
        <ele>290.23828125</ele>
        <time>2020-09-13T08:09:18Z</time>
      </trkpt>
      <trkpt lat="43.26018" lon="5.64947">
        <ele>289.61328125</ele>
        <time>2020-09-13T08:09:21Z</time>
      </trkpt>
      <trkpt lat="43.26015" lon="5.64943">
        <ele>289.3984375</ele>
        <time>2020-09-13T08:09:22Z</time>
      </trkpt>
      <trkpt lat="43.26013" lon="5.6494">
        <ele>289.23046875</ele>
        <time>2020-09-13T08:09:23Z</time>
      </trkpt>
      <trkpt lat="43.26012" lon="5.64939">
        <ele>289.1796875</ele>
        <time>2020-09-13T08:09:24Z</time>
      </trkpt>
      <trkpt lat="43.26011" lon="5.64938">
        <ele>289.12890625</ele>
        <time>2020-09-13T08:09:25Z</time>
      </trkpt>
      <trkpt lat="43.2601" lon="5.64937">
        <ele>289.05078125</ele>
        <time>2020-09-13T08:09:26Z</time>
      </trkpt>
      <trkpt lat="43.26009" lon="5.64935">
        <ele>288.93359375</ele>
        <time>2020-09-13T08:09:27Z</time>
      </trkpt>
      <trkpt lat="43.25992" lon="5.6491">
        <ele>286.89453125</ele>
        <time>2020-09-13T08:09:38Z</time>
      </trkpt>
      <trkpt lat="43.25968" lon="5.64887">
        <ele>284.55859375</ele>
        <time>2020-09-13T08:09:43Z</time>
      </trkpt>
      <trkpt lat="43.25964" lon="5.6488">
        <ele>283.640625</ele>
        <time>2020-09-13T08:09:44Z</time>
      </trkpt>
      <trkpt lat="43.25963" lon="5.64871">
        <ele>283.5703125</ele>
        <time>2020-09-13T08:09:45Z</time>
      </trkpt>
      <trkpt lat="43.25964" lon="5.64865">
        <ele>283.60546875</ele>
        <time>2020-09-13T08:09:46Z</time>
      </trkpt>
      <trkpt lat="43.25967" lon="5.6486">
        <ele>283.4921875</ele>
        <time>2020-09-13T08:09:47Z</time>
      </trkpt>
      <trkpt lat="43.25971" lon="5.64856">
        <ele>283.2890625</ele>
        <time>2020-09-13T08:09:48Z</time>
      </trkpt>
      <trkpt lat="43.25974" lon="5.64854">
        <ele>283.0703125</ele>
        <time>2020-09-13T08:09:49Z</time>
      </trkpt>
      <trkpt lat="43.25978" lon="5.64853">
        <ele>282.9140625</ele>
        <time>2020-09-13T08:09:50Z</time>
      </trkpt>
      <trkpt lat="43.25981" lon="5.64851">
        <ele>282.80078125</ele>
        <time>2020-09-13T08:09:51Z</time>
      </trkpt>
      <trkpt lat="43.25999" lon="5.64835">
        <ele>282.76953125</ele>
        <time>2020-09-13T08:10:00Z</time>
      </trkpt>
      <trkpt lat="43.26028" lon="5.64818">
        <ele>282.12890625</ele>
        <time>2020-09-13T08:10:13Z</time>
      </trkpt>
      <trkpt lat="43.26057" lon="5.64808">
        <ele>283.25390625</ele>
        <time>2020-09-13T08:10:26Z</time>
      </trkpt>
      <trkpt lat="43.2607" lon="5.648">
        <ele>284.54296875</ele>
        <time>2020-09-13T08:10:34Z</time>
      </trkpt>
      <trkpt lat="43.26071" lon="5.64797">
        <ele>285.1328125</ele>
        <time>2020-09-13T08:10:35Z</time>
      </trkpt>
      <trkpt lat="43.26072" lon="5.64794">
        <ele>285.69140625</ele>
        <time>2020-09-13T08:10:36Z</time>
      </trkpt>
      <trkpt lat="43.26071" lon="5.64791">
        <ele>286.1328125</ele>
        <time>2020-09-13T08:10:37Z</time>
      </trkpt>
      <trkpt lat="43.26071" lon="5.64788">
        <ele>286.546875</ele>
        <time>2020-09-13T08:10:38Z</time>
      </trkpt>
      <trkpt lat="43.2607" lon="5.64786">
        <ele>286.90625</ele>
        <time>2020-09-13T08:10:39Z</time>
      </trkpt>
      <trkpt lat="43.26069" lon="5.64784">
        <ele>287.22265625</ele>
        <time>2020-09-13T08:10:40Z</time>
      </trkpt>
      <trkpt lat="43.26068" lon="5.64782">
        <ele>287.515625</ele>
        <time>2020-09-13T08:10:41Z</time>
      </trkpt>
      <trkpt lat="43.26067" lon="5.6478">
        <ele>287.828125</ele>
        <time>2020-09-13T08:10:42Z</time>
      </trkpt>
      <trkpt lat="43.26065" lon="5.64778">
        <ele>288.16015625</ele>
        <time>2020-09-13T08:10:43Z</time>
      </trkpt>
      <trkpt lat="43.26064" lon="5.64776">
        <ele>288.484375</ele>
        <time>2020-09-13T08:10:44Z</time>
      </trkpt>
      <trkpt lat="43.26063" lon="5.64774">
        <ele>288.79296875</ele>
        <time>2020-09-13T08:10:45Z</time>
      </trkpt>
      <trkpt lat="43.2604" lon="5.64758">
        <ele>291.57421875</ele>
        <time>2020-09-13T08:11:00Z</time>
      </trkpt>
      <trkpt lat="43.2601" lon="5.64755">
        <ele>293.76171875</ele>
        <time>2020-09-13T08:11:16Z</time>
      </trkpt>
      <trkpt lat="43.2598" lon="5.64745">
        <ele>296.2265625</ele>
        <time>2020-09-13T08:11:34Z</time>
      </trkpt>
      <trkpt lat="43.25963" lon="5.64742">
        <ele>297.56640625</ele>
        <time>2020-09-13T08:11:44Z</time>
      </trkpt>
      <trkpt lat="43.25961" lon="5.64741">
        <ele>297.8046875</ele>
        <time>2020-09-13T08:11:45Z</time>
      </trkpt>
      <trkpt lat="43.2596" lon="5.64739">
        <ele>298.13671875</ele>
        <time>2020-09-13T08:11:46Z</time>
      </trkpt>
      <trkpt lat="43.25959" lon="5.64736">
        <ele>298.421875</ele>
        <time>2020-09-13T08:11:47Z</time>
      </trkpt>
      <trkpt lat="43.25959" lon="5.64734">
        <ele>298.6640625</ele>
        <time>2020-09-13T08:11:48Z</time>
      </trkpt>
      <trkpt lat="43.25959" lon="5.64731">
        <ele>298.89453125</ele>
        <time>2020-09-13T08:11:49Z</time>
      </trkpt>
      <trkpt lat="43.25959" lon="5.64729">
        <ele>299.0859375</ele>
        <time>2020-09-13T08:11:50Z</time>
      </trkpt>
      <trkpt lat="43.25961" lon="5.64722">
        <ele>299.609375</ele>
        <time>2020-09-13T08:11:54Z</time>
      </trkpt>
      <trkpt lat="43.25962" lon="5.64721">
        <ele>299.62109375</ele>
        <time>2020-09-13T08:11:55Z</time>
      </trkpt>
      <trkpt lat="43.25964" lon="5.6472">
        <ele>299.6015625</ele>
        <time>2020-09-13T08:11:56Z</time>
      </trkpt>
      <trkpt lat="43.25969" lon="5.64718">
        <ele>299.6015625</ele>
        <time>2020-09-13T08:11:59Z</time>
      </trkpt>
      <trkpt lat="43.2597" lon="5.64716">
        <ele>299.703125</ele>
        <time>2020-09-13T08:12:00Z</time>
      </trkpt>
      <trkpt lat="43.25968" lon="5.64715">
        <ele>299.921875</ele>
        <time>2020-09-13T08:12:02Z</time>
      </trkpt>
      <trkpt lat="43.25967" lon="5.64716">
        <ele>299.85546875</ele>
        <time>2020-09-13T08:12:04Z</time>
      </trkpt>
      <trkpt lat="43.25966" lon="5.64718">
        <ele>299.734375</ele>
        <time>2020-09-13T08:12:05Z</time>
      </trkpt>
      <trkpt lat="43.25966" lon="5.6472">
        <ele>299.57421875</ele>
        <time>2020-09-13T08:12:06Z</time>
      </trkpt>
      <trkpt lat="43.25964" lon="5.64724">
        <ele>299.28515625</ele>
        <time>2020-09-13T08:12:08Z</time>
      </trkpt>
      <trkpt lat="43.25959" lon="5.64726">
        <ele>299.3203125</ele>
        <time>2020-09-13T08:12:11Z</time>
      </trkpt>
      <trkpt lat="43.25957" lon="5.64725">
        <ele>299.48046875</ele>
        <time>2020-09-13T08:12:12Z</time>
      </trkpt>
      <trkpt lat="43.25956" lon="5.64723">
        <ele>299.74609375</ele>
        <time>2020-09-13T08:12:13Z</time>
      </trkpt>
      <trkpt lat="43.25956" lon="5.6472">
        <ele>299.9921875</ele>
        <time>2020-09-13T08:12:14Z</time>
      </trkpt>
      <trkpt lat="43.25956" lon="5.64717">
        <ele>300.22265625</ele>
        <time>2020-09-13T08:12:15Z</time>
      </trkpt>
      <trkpt lat="43.25956" lon="5.64715">
        <ele>300.421875</ele>
        <time>2020-09-13T08:12:16Z</time>
      </trkpt>
      <trkpt lat="43.25956" lon="5.64712">
        <ele>300.61328125</ele>
        <time>2020-09-13T08:12:17Z</time>
      </trkpt>
      <trkpt lat="43.25965" lon="5.64671">
        <ele>303.2109375</ele>
        <time>2020-09-13T08:12:34Z</time>
      </trkpt>
      <trkpt lat="43.25954" lon="5.64643">
        <ele>305.32421875</ele>
        <time>2020-09-13T08:12:47Z</time>
      </trkpt>
      <trkpt lat="43.25948" lon="5.64631">
        <ele>306.71875</ele>
        <time>2020-09-13T08:12:53Z</time>
      </trkpt>
      <trkpt lat="43.25948" lon="5.64629">
        <ele>306.8671875</ele>
        <time>2020-09-13T08:12:54Z</time>
      </trkpt>
      <trkpt lat="43.25948" lon="5.64628">
        <ele>307.0078125</ele>
        <time>2020-09-13T08:12:55Z</time>
      </trkpt>
      <trkpt lat="43.25948" lon="5.64626">
        <ele>307.1484375</ele>
        <time>2020-09-13T08:12:56Z</time>
      </trkpt>
      <trkpt lat="43.25948" lon="5.64623">
        <ele>307.31640625</ele>
        <time>2020-09-13T08:12:57Z</time>
      </trkpt>
      <trkpt lat="43.25944" lon="5.64597">
        <ele>309.49609375</ele>
        <time>2020-09-13T08:13:11Z</time>
      </trkpt>
      <trkpt lat="43.25944" lon="5.64595">
        <ele>309.65625</ele>
        <time>2020-09-13T08:13:12Z</time>
      </trkpt>
      <trkpt lat="43.25944" lon="5.64593">
        <ele>309.82421875</ele>
        <time>2020-09-13T08:13:13Z</time>
      </trkpt>
      <trkpt lat="43.25942" lon="5.64582">
        <ele>310.8359375</ele>
        <time>2020-09-13T08:13:19Z</time>
      </trkpt>
      <trkpt lat="43.2594" lon="5.64553">
        <ele>313.1796875</ele>
        <time>2020-09-13T08:13:33Z</time>
      </trkpt>
      <trkpt lat="43.25938" lon="5.64519">
        <ele>315.94140625</ele>
        <time>2020-09-13T08:13:46Z</time>
      </trkpt>
      <trkpt lat="43.25938" lon="5.64486">
        <ele>317.15234375</ele>
        <time>2020-09-13T08:13:57Z</time>
      </trkpt>
      <trkpt lat="43.25938" lon="5.64442">
        <ele>317.5</ele>
        <time>2020-09-13T08:14:09Z</time>
      </trkpt>
      <trkpt lat="43.25941" lon="5.64394">
        <ele>316.44921875</ele>
        <time>2020-09-13T08:14:20Z</time>
      </trkpt>
      <trkpt lat="43.25951" lon="5.64357">
        <ele>316.94140625</ele>
        <time>2020-09-13T08:14:32Z</time>
      </trkpt>
      <trkpt lat="43.2596" lon="5.64309">
        <ele>319.75390625</ele>
        <time>2020-09-13T08:14:47Z</time>
      </trkpt>
      <trkpt lat="43.25965" lon="5.64268">
        <ele>321.22265625</ele>
        <time>2020-09-13T08:15:00Z</time>
      </trkpt>
      <trkpt lat="43.25962" lon="5.64259">
        <ele>322.08203125</ele>
        <time>2020-09-13T08:15:03Z</time>
      </trkpt>
      <trkpt lat="43.25963" lon="5.64257">
        <ele>322.109375</ele>
        <time>2020-09-13T08:15:04Z</time>
      </trkpt>
      <trkpt lat="43.25963" lon="5.64254">
        <ele>322.12109375</ele>
        <time>2020-09-13T08:15:05Z</time>
      </trkpt>
      <trkpt lat="43.25963" lon="5.64253">
        <ele>322.22265625</ele>
        <time>2020-09-13T08:15:06Z</time>
      </trkpt>
      <trkpt lat="43.25962" lon="5.6425">
        <ele>322.421875</ele>
        <time>2020-09-13T08:15:07Z</time>
      </trkpt>
      <trkpt lat="43.25962" lon="5.64248">
        <ele>322.60546875</ele>
        <time>2020-09-13T08:15:08Z</time>
      </trkpt>
      <trkpt lat="43.25962" lon="5.64245">
        <ele>322.67578125</ele>
        <time>2020-09-13T08:15:09Z</time>
      </trkpt>
      <trkpt lat="43.25961" lon="5.64242">
        <ele>322.9453125</ele>
        <time>2020-09-13T08:15:20Z</time>
      </trkpt>
      <trkpt lat="43.2596" lon="5.64228">
        <ele>323.484375</ele>
        <time>2020-09-13T08:15:41Z</time>
      </trkpt>
      <trkpt lat="43.25959" lon="5.64224">
        <ele>323.8828125</ele>
        <time>2020-09-13T08:15:43Z</time>
      </trkpt>
      <trkpt lat="43.25958" lon="5.64222">
        <ele>324.0546875</ele>
        <time>2020-09-13T08:15:44Z</time>
      </trkpt>
      <trkpt lat="43.25958" lon="5.6422">
        <ele>324.2734375</ele>
        <time>2020-09-13T08:15:45Z</time>
      </trkpt>
      <trkpt lat="43.25953" lon="5.64183">
        <ele>326.2890625</ele>
        <time>2020-09-13T08:15:58Z</time>
      </trkpt>
      <trkpt lat="43.25952" lon="5.64174">
        <ele>326.54296875</ele>
        <time>2020-09-13T08:16:01Z</time>
      </trkpt>
      <trkpt lat="43.2595" lon="5.64172">
        <ele>326.78125</ele>
        <time>2020-09-13T08:16:02Z</time>
      </trkpt>
      <trkpt lat="43.25949" lon="5.64169">
        <ele>327.1171875</ele>
        <time>2020-09-13T08:16:03Z</time>
      </trkpt>
      <trkpt lat="43.25947" lon="5.64166">
        <ele>327.484375</ele>
        <time>2020-09-13T08:16:04Z</time>
      </trkpt>
      <trkpt lat="43.25944" lon="5.64163">
        <ele>327.71484375</ele>
        <time>2020-09-13T08:16:05Z</time>
      </trkpt>
      <trkpt lat="43.25942" lon="5.64159">
        <ele>327.94140625</ele>
        <time>2020-09-13T08:16:06Z</time>
      </trkpt>
      <trkpt lat="43.2592" lon="5.64115">
        <ele>331.01953125</ele>
        <time>2020-09-13T08:16:19Z</time>
      </trkpt>
      <trkpt lat="43.25918" lon="5.64112">
        <ele>331.19921875</ele>
        <time>2020-09-13T08:16:20Z</time>
      </trkpt>
      <trkpt lat="43.25916" lon="5.64109">
        <ele>331.40234375</ele>
        <time>2020-09-13T08:16:21Z</time>
      </trkpt>
      <trkpt lat="43.25915" lon="5.64106">
        <ele>331.55859375</ele>
        <time>2020-09-13T08:16:22Z</time>
      </trkpt>
      <trkpt lat="43.25913" lon="5.64103">
        <ele>331.7109375</ele>
        <time>2020-09-13T08:16:23Z</time>
      </trkpt>
      <trkpt lat="43.25912" lon="5.64099">
        <ele>331.8359375</ele>
        <time>2020-09-13T08:16:24Z</time>
      </trkpt>
      <trkpt lat="43.25911" lon="5.64095">
        <ele>331.83984375</ele>
        <time>2020-09-13T08:16:25Z</time>
      </trkpt>
      <trkpt lat="43.25911" lon="5.64092">
        <ele>331.8359375</ele>
        <time>2020-09-13T08:16:26Z</time>
      </trkpt>
      <trkpt lat="43.2591" lon="5.64089">
        <ele>331.9140625</ele>
        <time>2020-09-13T08:16:27Z</time>
      </trkpt>
      <trkpt lat="43.25909" lon="5.64088">
        <ele>332.0234375</ele>
        <time>2020-09-13T08:16:28Z</time>
      </trkpt>
      <trkpt lat="43.25907" lon="5.6409">
        <ele>332.234375</ele>
        <time>2020-09-13T08:16:39Z</time>
      </trkpt>
      <trkpt lat="43.25906" lon="5.64087">
        <ele>332.21484375</ele>
        <time>2020-09-13T08:16:52Z</time>
      </trkpt>
      <trkpt lat="43.25905" lon="5.64086">
        <ele>332.28515625</ele>
        <time>2020-09-13T08:16:53Z</time>
      </trkpt>
      <trkpt lat="43.25904" lon="5.64085">
        <ele>332.37890625</ele>
        <time>2020-09-13T08:16:54Z</time>
      </trkpt>
      <trkpt lat="43.25902" lon="5.64083">
        <ele>332.49609375</ele>
        <time>2020-09-13T08:16:55Z</time>
      </trkpt>
      <trkpt lat="43.259" lon="5.6408">
        <ele>332.63671875</ele>
        <time>2020-09-13T08:16:56Z</time>
      </trkpt>
      <trkpt lat="43.25897" lon="5.64078">
        <ele>332.82421875</ele>
        <time>2020-09-13T08:16:57Z</time>
      </trkpt>
      <trkpt lat="43.25874" lon="5.64056">
        <ele>332.38671875</ele>
        <time>2020-09-13T08:17:04Z</time>
      </trkpt>
      <trkpt lat="43.25863" lon="5.6403">
        <ele>330.96875</ele>
        <time>2020-09-13T08:17:09Z</time>
      </trkpt>
      <trkpt lat="43.25859" lon="5.64015">
        <ele>330.08984375</ele>
        <time>2020-09-13T08:17:20Z</time>
      </trkpt>
      <trkpt lat="43.2586" lon="5.64017">
        <ele>330.12890625</ele>
        <time>2020-09-13T08:17:39Z</time>
      </trkpt>
      <trkpt lat="43.25864" lon="5.64012">
        <ele>329.828125</ele>
        <time>2020-09-13T08:17:42Z</time>
      </trkpt>
      <trkpt lat="43.25865" lon="5.64009">
        <ele>329.69921875</ele>
        <time>2020-09-13T08:17:43Z</time>
      </trkpt>
      <trkpt lat="43.25867" lon="5.64006">
        <ele>329.5546875</ele>
        <time>2020-09-13T08:17:44Z</time>
      </trkpt>
      <trkpt lat="43.25875" lon="5.63951">
        <ele>328.43359375</ele>
        <time>2020-09-13T08:17:56Z</time>
      </trkpt>
      <trkpt lat="43.25891" lon="5.63888">
        <ele>329.7890625</ele>
        <time>2020-09-13T08:18:12Z</time>
      </trkpt>
      <trkpt lat="43.25897" lon="5.63802">
        <ele>329.765625</ele>
        <time>2020-09-13T08:18:24Z</time>
      </trkpt>
      <trkpt lat="43.25896" lon="5.63793">
        <ele>329.55859375</ele>
        <time>2020-09-13T08:18:25Z</time>
      </trkpt>
      <trkpt lat="43.25891" lon="5.63752">
        <ele>329.5</ele>
        <time>2020-09-13T08:18:29Z</time>
      </trkpt>
      <trkpt lat="43.25891" lon="5.63742">
        <ele>329.109375</ele>
        <time>2020-09-13T08:18:30Z</time>
      </trkpt>
      <trkpt lat="43.25892" lon="5.63731">
        <ele>329.015625</ele>
        <time>2020-09-13T08:18:31Z</time>
      </trkpt>
      <trkpt lat="43.25893" lon="5.6372">
        <ele>328.93359375</ele>
        <time>2020-09-13T08:18:32Z</time>
      </trkpt>
      <trkpt lat="43.25895" lon="5.6371">
        <ele>328.890625</ele>
        <time>2020-09-13T08:18:33Z</time>
      </trkpt>
      <trkpt lat="43.25896" lon="5.637">
        <ele>328.91796875</ele>
        <time>2020-09-13T08:18:34Z</time>
      </trkpt>
      <trkpt lat="43.25896" lon="5.63689">
        <ele>328.9765625</ele>
        <time>2020-09-13T08:18:35Z</time>
      </trkpt>
      <trkpt lat="43.25896" lon="5.63679">
        <ele>329.203125</ele>
        <time>2020-09-13T08:18:36Z</time>
      </trkpt>
      <trkpt lat="43.25897" lon="5.63668">
        <ele>329.57421875</ele>
        <time>2020-09-13T08:18:37Z</time>
      </trkpt>
      <trkpt lat="43.25899" lon="5.63659">
        <ele>329.9140625</ele>
        <time>2020-09-13T08:18:38Z</time>
      </trkpt>
      <trkpt lat="43.25902" lon="5.63651">
        <ele>330.1875</ele>
        <time>2020-09-13T08:18:39Z</time>
      </trkpt>
      <trkpt lat="43.25905" lon="5.63646">
        <ele>330.38671875</ele>
        <time>2020-09-13T08:18:40Z</time>
      </trkpt>
      <trkpt lat="43.25913" lon="5.63637">
        <ele>330.6953125</ele>
        <time>2020-09-13T08:18:43Z</time>
      </trkpt>
      <trkpt lat="43.25952" lon="5.63628">
        <ele>330.8671875</ele>
        <time>2020-09-13T08:18:55Z</time>
      </trkpt>
      <trkpt lat="43.2598" lon="5.63606">
        <ele>329.92578125</ele>
        <time>2020-09-13T08:19:07Z</time>
      </trkpt>
      <trkpt lat="43.25987" lon="5.63554">
        <ele>328.67578125</ele>
        <time>2020-09-13T08:19:24Z</time>
      </trkpt>
      <trkpt lat="43.25986" lon="5.63497">
        <ele>329.3203125</ele>
        <time>2020-09-13T08:19:37Z</time>
      </trkpt>
      <trkpt lat="43.25988" lon="5.63457">
        <ele>329.921875</ele>
        <time>2020-09-13T08:19:51Z</time>
      </trkpt>
      <trkpt lat="43.2599" lon="5.63449">
        <ele>329.85546875</ele>
        <time>2020-09-13T08:19:54Z</time>
      </trkpt>
      <trkpt lat="43.25982" lon="5.63421">
        <ele>333.1875</ele>
        <time>2020-09-13T08:20:06Z</time>
      </trkpt>
      <trkpt lat="43.25977" lon="5.63384">
        <ele>336.1875</ele>
        <time>2020-09-13T08:20:21Z</time>
      </trkpt>
      <trkpt lat="43.25979" lon="5.63367">
        <ele>336.03515625</ele>
        <time>2020-09-13T08:20:28Z</time>
      </trkpt>
      <trkpt lat="43.25979" lon="5.63364">
        <ele>335.77734375</ele>
        <time>2020-09-13T08:20:29Z</time>
      </trkpt>
      <trkpt lat="43.2598" lon="5.63363">
        <ele>335.47265625</ele>
        <time>2020-09-13T08:20:30Z</time>
      </trkpt>
      <trkpt lat="43.25981" lon="5.63361">
        <ele>335.10546875</ele>
        <time>2020-09-13T08:20:31Z</time>
      </trkpt>
      <trkpt lat="43.25982" lon="5.63359">
        <ele>334.9453125</ele>
        <time>2020-09-13T08:20:43Z</time>
      </trkpt>
      <trkpt lat="43.25983" lon="5.63355">
        <ele>334.66796875</ele>
        <time>2020-09-13T08:21:16Z</time>
      </trkpt>
      <trkpt lat="43.25982" lon="5.63356">
        <ele>334.81640625</ele>
        <time>2020-09-13T08:21:41Z</time>
      </trkpt>
      <trkpt lat="43.25981" lon="5.63357">
        <ele>335.30859375</ele>
        <time>2020-09-13T08:22:05Z</time>
      </trkpt>
      <trkpt lat="43.25986" lon="5.63363">
        <ele>333.56640625</ele>
        <time>2020-09-13T08:22:34Z</time>
      </trkpt>
      <trkpt lat="43.25985" lon="5.63364">
        <ele>334.12890625</ele>
        <time>2020-09-13T08:23:07Z</time>
      </trkpt>
      <trkpt lat="43.25987" lon="5.63365">
        <ele>333.45703125</ele>
        <time>2020-09-13T08:23:08Z</time>
      </trkpt>
      <trkpt lat="43.2599" lon="5.63365">
        <ele>332.5625</ele>
        <time>2020-09-13T08:23:09Z</time>
      </trkpt>
      <trkpt lat="43.25993" lon="5.63365">
        <ele>331.453125</ele>
        <time>2020-09-13T08:23:10Z</time>
      </trkpt>
      <trkpt lat="43.25998" lon="5.63364">
        <ele>330.16015625</ele>
        <time>2020-09-13T08:23:11Z</time>
      </trkpt>
      <trkpt lat="43.26001" lon="5.6336">
        <ele>328.91015625</ele>
        <time>2020-09-13T08:23:12Z</time>
      </trkpt>
      <trkpt lat="43.26004" lon="5.63356">
        <ele>327.71875</ele>
        <time>2020-09-13T08:23:13Z</time>
      </trkpt>
      <trkpt lat="43.26006" lon="5.6335">
        <ele>326.5625</ele>
        <time>2020-09-13T08:23:14Z</time>
      </trkpt>
      <trkpt lat="43.26008" lon="5.63344">
        <ele>325.80078125</ele>
        <time>2020-09-13T08:23:15Z</time>
      </trkpt>
      <trkpt lat="43.26009" lon="5.63338">
        <ele>325.296875</ele>
        <time>2020-09-13T08:23:16Z</time>
      </trkpt>
      <trkpt lat="43.2601" lon="5.63332">
        <ele>324.8828125</ele>
        <time>2020-09-13T08:23:17Z</time>
      </trkpt>
      <trkpt lat="43.26015" lon="5.6331">
        <ele>321.91796875</ele>
        <time>2020-09-13T08:23:21Z</time>
      </trkpt>
      <trkpt lat="43.26019" lon="5.63298">
        <ele>319.8125</ele>
        <time>2020-09-13T08:23:23Z</time>
      </trkpt>
      <trkpt lat="43.2602" lon="5.6329">
        <ele>318.953125</ele>
        <time>2020-09-13T08:23:24Z</time>
      </trkpt>
      <trkpt lat="43.2602" lon="5.63283">
        <ele>318.3125</ele>
        <time>2020-09-13T08:23:25Z</time>
      </trkpt>
      <trkpt lat="43.26021" lon="5.63268">
        <ele>317.2890625</ele>
        <time>2020-09-13T08:23:27Z</time>
      </trkpt>
      <trkpt lat="43.26021" lon="5.63259">
        <ele>316.7421875</ele>
        <time>2020-09-13T08:23:28Z</time>
      </trkpt>
      <trkpt lat="43.26023" lon="5.63221">
        <ele>314.0625</ele>
        <time>2020-09-13T08:23:32Z</time>
      </trkpt>
      <trkpt lat="43.26024" lon="5.63204">
        <ele>312.9375</ele>
        <time>2020-09-13T08:23:34Z</time>
      </trkpt>
      <trkpt lat="43.26025" lon="5.63188">
        <ele>311.85546875</ele>
        <time>2020-09-13T08:23:36Z</time>
      </trkpt>
      <trkpt lat="43.26025" lon="5.6318">
        <ele>311.48828125</ele>
        <time>2020-09-13T08:23:37Z</time>
      </trkpt>
      <trkpt lat="43.26026" lon="5.63163">
        <ele>310.19140625</ele>
        <time>2020-09-13T08:23:39Z</time>
      </trkpt>
      <trkpt lat="43.26029" lon="5.6313">
        <ele>307.125</ele>
        <time>2020-09-13T08:23:43Z</time>
      </trkpt>
      <trkpt lat="43.26024" lon="5.63102">
        <ele>306.30078125</ele>
        <time>2020-09-13T08:23:46Z</time>
      </trkpt>
      <trkpt lat="43.26022" lon="5.63095">
        <ele>306.453125</ele>
        <time>2020-09-13T08:23:47Z</time>
      </trkpt>
      <trkpt lat="43.26017" lon="5.63079">
        <ele>306.796875</ele>
        <time>2020-09-13T08:23:49Z</time>
      </trkpt>
      <trkpt lat="43.26015" lon="5.63071">
        <ele>306.4140625</ele>
        <time>2020-09-13T08:23:50Z</time>
      </trkpt>
      <trkpt lat="43.2601" lon="5.63038">
        <ele>303.98046875</ele>
        <time>2020-09-13T08:23:54Z</time>
      </trkpt>
      <trkpt lat="43.26008" lon="5.63029">
        <ele>303.8046875</ele>
        <time>2020-09-13T08:23:55Z</time>
      </trkpt>
      <trkpt lat="43.25999" lon="5.6298">
        <ele>302.6015625</ele>
        <time>2020-09-13T08:24:00Z</time>
      </trkpt>
      <trkpt lat="43.25997" lon="5.62973">
        <ele>302.66015625</ele>
        <time>2020-09-13T08:24:01Z</time>
      </trkpt>
      <trkpt lat="43.25995" lon="5.62965">
        <ele>302.48046875</ele>
        <time>2020-09-13T08:24:02Z</time>
      </trkpt>
      <trkpt lat="43.2599" lon="5.6294">
        <ele>301.80078125</ele>
        <time>2020-09-13T08:24:05Z</time>
      </trkpt>
      <trkpt lat="43.25987" lon="5.6291">
        <ele>300.19140625</ele>
        <time>2020-09-13T08:24:08Z</time>
      </trkpt>
      <trkpt lat="43.25986" lon="5.62882">
        <ele>297.59765625</ele>
        <time>2020-09-13T08:24:11Z</time>
      </trkpt>
      <trkpt lat="43.25983" lon="5.62858">
        <ele>296.03125</ele>
        <time>2020-09-13T08:24:14Z</time>
      </trkpt>
      <trkpt lat="43.25982" lon="5.62849">
        <ele>295.63671875</ele>
        <time>2020-09-13T08:24:15Z</time>
      </trkpt>
      <trkpt lat="43.25979" lon="5.62839">
        <ele>295.3828125</ele>
        <time>2020-09-13T08:24:16Z</time>
      </trkpt>
      <trkpt lat="43.25973" lon="5.62812">
        <ele>294.9921875</ele>
        <time>2020-09-13T08:24:19Z</time>
      </trkpt>
      <trkpt lat="43.25972" lon="5.62802">
        <ele>294.60546875</ele>
        <time>2020-09-13T08:24:20Z</time>
      </trkpt>
      <trkpt lat="43.25972" lon="5.62763">
        <ele>291.55078125</ele>
        <time>2020-09-13T08:24:24Z</time>
      </trkpt>
      <trkpt lat="43.25973" lon="5.62719">
        <ele>289.046875</ele>
        <time>2020-09-13T08:24:28Z</time>
      </trkpt>
      <trkpt lat="43.25973" lon="5.62709">
        <ele>288.76171875</ele>
        <time>2020-09-13T08:24:29Z</time>
      </trkpt>
      <trkpt lat="43.25971" lon="5.6268">
        <ele>288</ele>
        <time>2020-09-13T08:24:32Z</time>
      </trkpt>
      <trkpt lat="43.25967" lon="5.62649">
        <ele>287.21484375</ele>
        <time>2020-09-13T08:24:35Z</time>
      </trkpt>
      <trkpt lat="43.25966" lon="5.62629">
        <ele>286.765625</ele>
        <time>2020-09-13T08:24:37Z</time>
      </trkpt>
      <trkpt lat="43.25965" lon="5.6262">
        <ele>286.5234375</ele>
        <time>2020-09-13T08:24:38Z</time>
      </trkpt>
      <trkpt lat="43.25965" lon="5.6261">
        <ele>285.9921875</ele>
        <time>2020-09-13T08:24:39Z</time>
      </trkpt>
      <trkpt lat="43.25968" lon="5.62584">
        <ele>284.33203125</ele>
        <time>2020-09-13T08:24:42Z</time>
      </trkpt>
      <trkpt lat="43.25974" lon="5.62578">
        <ele>282.578125</ele>
        <time>2020-09-13T08:24:48Z</time>
      </trkpt>
      <trkpt lat="43.25978" lon="5.62568">
        <ele>281.38671875</ele>
        <time>2020-09-13T08:24:59Z</time>
      </trkpt>
      <trkpt lat="43.2598" lon="5.62563">
        <ele>280.921875</ele>
        <time>2020-09-13T08:25:00Z</time>
      </trkpt>
      <trkpt lat="43.25982" lon="5.62557">
        <ele>280.515625</ele>
        <time>2020-09-13T08:25:01Z</time>
      </trkpt>
      <trkpt lat="43.25985" lon="5.6255">
        <ele>279.9921875</ele>
        <time>2020-09-13T08:25:02Z</time>
      </trkpt>
      <trkpt lat="43.25987" lon="5.62542">
        <ele>279.515625</ele>
        <time>2020-09-13T08:25:03Z</time>
      </trkpt>
      <trkpt lat="43.25989" lon="5.62534">
        <ele>279.06640625</ele>
        <time>2020-09-13T08:25:04Z</time>
      </trkpt>
      <trkpt lat="43.25991" lon="5.62525">
        <ele>278.66796875</ele>
        <time>2020-09-13T08:25:05Z</time>
      </trkpt>
      <trkpt lat="43.25992" lon="5.62516">
        <ele>278.41015625</ele>
        <time>2020-09-13T08:25:06Z</time>
      </trkpt>
      <trkpt lat="43.25992" lon="5.62507">
        <ele>278.09765625</ele>
        <time>2020-09-13T08:25:07Z</time>
      </trkpt>
      <trkpt lat="43.25991" lon="5.62488">
        <ele>277.5625</ele>
        <time>2020-09-13T08:25:09Z</time>
      </trkpt>
      <trkpt lat="43.25992" lon="5.62479">
        <ele>277.4296875</ele>
        <time>2020-09-13T08:25:10Z</time>
      </trkpt>
      <trkpt lat="43.25993" lon="5.62469">
        <ele>277.25390625</ele>
        <time>2020-09-13T08:25:11Z</time>
      </trkpt>
      <trkpt lat="43.25996" lon="5.62349">
        <ele>273.63671875</ele>
        <time>2020-09-13T08:25:23Z</time>
      </trkpt>
      <trkpt lat="43.25994" lon="5.62286">
        <ele>272.9765625</ele>
        <time>2020-09-13T08:25:30Z</time>
      </trkpt>
      <trkpt lat="43.25993" lon="5.62276">
        <ele>272.74609375</ele>
        <time>2020-09-13T08:25:31Z</time>
      </trkpt>
      <trkpt lat="43.2599" lon="5.62221">
        <ele>272.5625</ele>
        <time>2020-09-13T08:25:37Z</time>
      </trkpt>
      <trkpt lat="43.25986" lon="5.62204">
        <ele>272.8046875</ele>
        <time>2020-09-13T08:25:39Z</time>
      </trkpt>
      <trkpt lat="43.25979" lon="5.62148">
        <ele>272.9609375</ele>
        <time>2020-09-13T08:25:45Z</time>
      </trkpt>
      <trkpt lat="43.25961" lon="5.62062">
        <ele>273.85546875</ele>
        <time>2020-09-13T08:25:55Z</time>
      </trkpt>
      <trkpt lat="43.2596" lon="5.62054">
        <ele>273.6640625</ele>
        <time>2020-09-13T08:25:56Z</time>
      </trkpt>
      <trkpt lat="43.25957" lon="5.62038">
        <ele>273.2890625</ele>
        <time>2020-09-13T08:25:58Z</time>
      </trkpt>
      <trkpt lat="43.25945" lon="5.61997">
        <ele>272.0859375</ele>
        <time>2020-09-13T08:26:03Z</time>
      </trkpt>
      <trkpt lat="43.25943" lon="5.61989">
        <ele>272.08984375</ele>
        <time>2020-09-13T08:26:04Z</time>
      </trkpt>
      <trkpt lat="43.25941" lon="5.6198">
        <ele>272.41796875</ele>
        <time>2020-09-13T08:26:05Z</time>
      </trkpt>
      <trkpt lat="43.25931" lon="5.61948">
        <ele>273.30859375</ele>
        <time>2020-09-13T08:26:09Z</time>
      </trkpt>
      <trkpt lat="43.25921" lon="5.61925">
        <ele>273.9921875</ele>
        <time>2020-09-13T08:26:12Z</time>
      </trkpt>
      <trkpt lat="43.25919" lon="5.61917">
        <ele>273.9921875</ele>
        <time>2020-09-13T08:26:13Z</time>
      </trkpt>
      <trkpt lat="43.25906" lon="5.61883">
        <ele>274.55078125</ele>
        <time>2020-09-13T08:26:20Z</time>
      </trkpt>
      <trkpt lat="43.25904" lon="5.61877">
        <ele>274.61328125</ele>
        <time>2020-09-13T08:26:21Z</time>
      </trkpt>
      <trkpt lat="43.25903" lon="5.61872">
        <ele>274.515625</ele>
        <time>2020-09-13T08:26:22Z</time>
      </trkpt>
      <trkpt lat="43.25901" lon="5.61867">
        <ele>274.4609375</ele>
        <time>2020-09-13T08:26:23Z</time>
      </trkpt>
      <trkpt lat="43.25899" lon="5.61863">
        <ele>274.52734375</ele>
        <time>2020-09-13T08:26:24Z</time>
      </trkpt>
      <trkpt lat="43.2589" lon="5.61839">
        <ele>274.65625</ele>
        <time>2020-09-13T08:26:30Z</time>
      </trkpt>
      <trkpt lat="43.25888" lon="5.61836">
        <ele>275.25</ele>
        <time>2020-09-13T08:26:31Z</time>
      </trkpt>
      <trkpt lat="43.25885" lon="5.61834">
        <ele>275.9140625</ele>
        <time>2020-09-13T08:26:32Z</time>
      </trkpt>
      <trkpt lat="43.25882" lon="5.61833">
        <ele>276.6015625</ele>
        <time>2020-09-13T08:26:33Z</time>
      </trkpt>
      <trkpt lat="43.2588" lon="5.61831">
        <ele>277.17578125</ele>
        <time>2020-09-13T08:26:34Z</time>
      </trkpt>
      <trkpt lat="43.25877" lon="5.61829">
        <ele>277.7890625</ele>
        <time>2020-09-13T08:26:35Z</time>
      </trkpt>
      <trkpt lat="43.25871" lon="5.61826">
        <ele>279.18359375</ele>
        <time>2020-09-13T08:26:40Z</time>
      </trkpt>
      <trkpt lat="43.25869" lon="5.61818">
        <ele>278.9296875</ele>
        <time>2020-09-13T08:26:47Z</time>
      </trkpt>
      <trkpt lat="43.25869" lon="5.61815">
        <ele>278.65234375</ele>
        <time>2020-09-13T08:26:48Z</time>
      </trkpt>
      <trkpt lat="43.25869" lon="5.61812">
        <ele>278.48046875</ele>
        <time>2020-09-13T08:26:49Z</time>
      </trkpt>
      <trkpt lat="43.25868" lon="5.61808">
        <ele>278.19921875</ele>
        <time>2020-09-13T08:26:50Z</time>
      </trkpt>
      <trkpt lat="43.25868" lon="5.61805">
        <ele>277.87890625</ele>
        <time>2020-09-13T08:26:51Z</time>
      </trkpt>
      <trkpt lat="43.25867" lon="5.61802">
        <ele>277.73046875</ele>
        <time>2020-09-13T08:26:52Z</time>
      </trkpt>
      <trkpt lat="43.25867" lon="5.61798">
        <ele>277.59765625</ele>
        <time>2020-09-13T08:26:53Z</time>
      </trkpt>
      <trkpt lat="43.25866" lon="5.61795">
        <ele>277.359375</ele>
        <time>2020-09-13T08:26:54Z</time>
      </trkpt>
      <trkpt lat="43.25866" lon="5.61793">
        <ele>277.12109375</ele>
        <time>2020-09-13T08:26:55Z</time>
      </trkpt>
      <trkpt lat="43.25866" lon="5.6179">
        <ele>276.9375</ele>
        <time>2020-09-13T08:26:56Z</time>
      </trkpt>
      <trkpt lat="43.25866" lon="5.61787">
        <ele>276.67578125</ele>
        <time>2020-09-13T08:26:57Z</time>
      </trkpt>
      <trkpt lat="43.25865" lon="5.61785">
        <ele>276.4765625</ele>
        <time>2020-09-13T08:26:58Z</time>
      </trkpt>
      <trkpt lat="43.25865" lon="5.61782">
        <ele>276.2734375</ele>
        <time>2020-09-13T08:26:59Z</time>
      </trkpt>
      <trkpt lat="43.25865" lon="5.61779">
        <ele>275.94921875</ele>
        <time>2020-09-13T08:27:00Z</time>
      </trkpt>
      <trkpt lat="43.25863" lon="5.61761">
        <ele>274.703125</ele>
        <time>2020-09-13T08:27:05Z</time>
      </trkpt>
      <trkpt lat="43.25861" lon="5.61756">
        <ele>274.8515625</ele>
        <time>2020-09-13T08:27:06Z</time>
      </trkpt>
      <trkpt lat="43.25839" lon="5.61708">
        <ele>274.84375</ele>
        <time>2020-09-13T08:27:17Z</time>
      </trkpt>
      <trkpt lat="43.25838" lon="5.61704">
        <ele>274.81640625</ele>
        <time>2020-09-13T08:27:18Z</time>
      </trkpt>
      <trkpt lat="43.25836" lon="5.61701">
        <ele>274.83203125</ele>
        <time>2020-09-13T08:27:19Z</time>
      </trkpt>
      <trkpt lat="43.25818" lon="5.61659">
        <ele>275.2421875</ele>
        <time>2020-09-13T08:27:28Z</time>
      </trkpt>
      <trkpt lat="43.25815" lon="5.61652">
        <ele>275.1171875</ele>
        <time>2020-09-13T08:27:29Z</time>
      </trkpt>
      <trkpt lat="43.25811" lon="5.61639">
        <ele>274.6015625</ele>
        <time>2020-09-13T08:27:31Z</time>
      </trkpt>
      <trkpt lat="43.25808" lon="5.61633">
        <ele>274.375</ele>
        <time>2020-09-13T08:27:32Z</time>
      </trkpt>
      <trkpt lat="43.25804" lon="5.61622">
        <ele>274.66015625</ele>
        <time>2020-09-13T08:27:34Z</time>
      </trkpt>
      <trkpt lat="43.25788" lon="5.61573">
        <ele>273.52734375</ele>
        <time>2020-09-13T08:27:42Z</time>
      </trkpt>
      <trkpt lat="43.25786" lon="5.61566">
        <ele>273.5234375</ele>
        <time>2020-09-13T08:27:43Z</time>
      </trkpt>
      <trkpt lat="43.25783" lon="5.6156">
        <ele>273.49609375</ele>
        <time>2020-09-13T08:27:44Z</time>
      </trkpt>
      <trkpt lat="43.25781" lon="5.61553">
        <ele>273.41015625</ele>
        <time>2020-09-13T08:27:45Z</time>
      </trkpt>
      <trkpt lat="43.25779" lon="5.61546">
        <ele>273.33203125</ele>
        <time>2020-09-13T08:27:46Z</time>
      </trkpt>
      <trkpt lat="43.25768" lon="5.61513">
        <ele>273.0078125</ele>
        <time>2020-09-13T08:27:51Z</time>
      </trkpt>
      <trkpt lat="43.25764" lon="5.61507">
        <ele>273.1015625</ele>
        <time>2020-09-13T08:27:52Z</time>
      </trkpt>
      <trkpt lat="43.25762" lon="5.61499">
        <ele>273.0625</ele>
        <time>2020-09-13T08:27:53Z</time>
      </trkpt>
      <trkpt lat="43.25753" lon="5.61468">
        <ele>271.53125</ele>
        <time>2020-09-13T08:27:57Z</time>
      </trkpt>
      <trkpt lat="43.25752" lon="5.6146">
        <ele>270.9296875</ele>
        <time>2020-09-13T08:27:58Z</time>
      </trkpt>
      <trkpt lat="43.2575" lon="5.61452">
        <ele>270.33984375</ele>
        <time>2020-09-13T08:27:59Z</time>
      </trkpt>
      <trkpt lat="43.25748" lon="5.61444">
        <ele>269.88671875</ele>
        <time>2020-09-13T08:28:00Z</time>
      </trkpt>
      <trkpt lat="43.25746" lon="5.61435">
        <ele>269.4453125</ele>
        <time>2020-09-13T08:28:01Z</time>
      </trkpt>
      <trkpt lat="43.25735" lon="5.6139">
        <ele>267.87109375</ele>
        <time>2020-09-13T08:28:06Z</time>
      </trkpt>
      <trkpt lat="43.25715" lon="5.61313">
        <ele>266.78125</ele>
        <time>2020-09-13T08:28:16Z</time>
      </trkpt>
      <trkpt lat="43.2571" lon="5.61303">
        <ele>267.1640625</ele>
        <time>2020-09-13T08:28:18Z</time>
      </trkpt>
      <trkpt lat="43.25696" lon="5.6129">
        <ele>269.1953125</ele>
        <time>2020-09-13T08:28:25Z</time>
      </trkpt>
      <trkpt lat="43.25694" lon="5.61283">
        <ele>269.37890625</ele>
        <time>2020-09-13T08:28:39Z</time>
      </trkpt>
      <trkpt lat="43.25694" lon="5.61278">
        <ele>269.28125</ele>
        <time>2020-09-13T08:28:45Z</time>
      </trkpt>
      <trkpt lat="43.25694" lon="5.61268">
        <ele>268.9375</ele>
        <time>2020-09-13T08:28:50Z</time>
      </trkpt>
      <trkpt lat="43.25695" lon="5.61257">
        <ele>267.75</ele>
        <time>2020-09-13T08:28:53Z</time>
      </trkpt>
      <trkpt lat="43.25695" lon="5.61252">
        <ele>267.484375</ele>
        <time>2020-09-13T08:28:54Z</time>
      </trkpt>
      <trkpt lat="43.25694" lon="5.61247">
        <ele>267.22265625</ele>
        <time>2020-09-13T08:28:55Z</time>
      </trkpt>
      <trkpt lat="43.25691" lon="5.61208">
        <ele>266.203125</ele>
        <time>2020-09-13T08:29:04Z</time>
      </trkpt>
      <trkpt lat="43.25689" lon="5.61185">
        <ele>265.08203125</ele>
        <time>2020-09-13T08:29:09Z</time>
      </trkpt>
      <trkpt lat="43.25688" lon="5.61179">
        <ele>265.1015625</ele>
        <time>2020-09-13T08:29:10Z</time>
      </trkpt>
      <trkpt lat="43.25688" lon="5.61165">
        <ele>264.4921875</ele>
        <time>2020-09-13T08:29:12Z</time>
      </trkpt>
      <trkpt lat="43.25693" lon="5.61129">
        <ele>262.03515625</ele>
        <time>2020-09-13T08:29:16Z</time>
      </trkpt>
      <trkpt lat="43.25692" lon="5.6112">
        <ele>261.71875</ele>
        <time>2020-09-13T08:29:17Z</time>
      </trkpt>
      <trkpt lat="43.25692" lon="5.61113">
        <ele>261.546875</ele>
        <time>2020-09-13T08:29:18Z</time>
      </trkpt>
      <trkpt lat="43.25691" lon="5.61103">
        <ele>261.3125</ele>
        <time>2020-09-13T08:29:19Z</time>
      </trkpt>
      <trkpt lat="43.25691" lon="5.61094">
        <ele>260.82421875</ele>
        <time>2020-09-13T08:29:20Z</time>
      </trkpt>
      <trkpt lat="43.25692" lon="5.61074">
        <ele>259.84375</ele>
        <time>2020-09-13T08:29:22Z</time>
      </trkpt>
      <trkpt lat="43.2569" lon="5.61055">
        <ele>258.65234375</ele>
        <time>2020-09-13T08:29:24Z</time>
      </trkpt>
      <trkpt lat="43.25689" lon="5.61045">
        <ele>258.2734375</ele>
        <time>2020-09-13T08:29:25Z</time>
      </trkpt>
      <trkpt lat="43.25688" lon="5.61036">
        <ele>258.31640625</ele>
        <time>2020-09-13T08:29:26Z</time>
      </trkpt>
      <trkpt lat="43.25676" lon="5.60958">
        <ele>257.375</ele>
        <time>2020-09-13T08:29:34Z</time>
      </trkpt>
      <trkpt lat="43.25676" lon="5.60949">
        <ele>257.05859375</ele>
        <time>2020-09-13T08:29:35Z</time>
      </trkpt>
      <trkpt lat="43.25679" lon="5.60911">
        <ele>255.74609375</ele>
        <time>2020-09-13T08:29:39Z</time>
      </trkpt>
      <trkpt lat="43.25676" lon="5.60874">
        <ele>255.35546875</ele>
        <time>2020-09-13T08:29:46Z</time>
      </trkpt>
      <trkpt lat="43.25672" lon="5.60831">
        <ele>254.9375</ele>
        <time>2020-09-13T08:29:58Z</time>
      </trkpt>
      <trkpt lat="43.2567" lon="5.60827">
        <ele>255.05859375</ele>
        <time>2020-09-13T08:29:59Z</time>
      </trkpt>
      <trkpt lat="43.25668" lon="5.60822">
        <ele>255.51171875</ele>
        <time>2020-09-13T08:30:00Z</time>
      </trkpt>
      <trkpt lat="43.25667" lon="5.60818">
        <ele>255.70703125</ele>
        <time>2020-09-13T08:30:01Z</time>
      </trkpt>
      <trkpt lat="43.25666" lon="5.60813">
        <ele>255.8828125</ele>
        <time>2020-09-13T08:30:02Z</time>
      </trkpt>
      <trkpt lat="43.25662" lon="5.60793">
        <ele>256.34765625</ele>
        <time>2020-09-13T08:30:06Z</time>
      </trkpt>
      <trkpt lat="43.25662" lon="5.60787">
        <ele>256.05078125</ele>
        <time>2020-09-13T08:30:07Z</time>
      </trkpt>
      <trkpt lat="43.25662" lon="5.60781">
        <ele>255.859375</ele>
        <time>2020-09-13T08:30:08Z</time>
      </trkpt>
      <trkpt lat="43.25661" lon="5.60776">
        <ele>255.76171875</ele>
        <time>2020-09-13T08:30:09Z</time>
      </trkpt>
      <trkpt lat="43.25661" lon="5.6077">
        <ele>255.69140625</ele>
        <time>2020-09-13T08:30:10Z</time>
      </trkpt>
      <trkpt lat="43.2566" lon="5.60764">
        <ele>255.69921875</ele>
        <time>2020-09-13T08:30:11Z</time>
      </trkpt>
      <trkpt lat="43.25659" lon="5.60757">
        <ele>255.79296875</ele>
        <time>2020-09-13T08:30:12Z</time>
      </trkpt>
      <trkpt lat="43.25656" lon="5.60743">
        <ele>256.109375</ele>
        <time>2020-09-13T08:30:14Z</time>
      </trkpt>
      <trkpt lat="43.25651" lon="5.60727">
        <ele>256.3828125</ele>
        <time>2020-09-13T08:30:16Z</time>
      </trkpt>
      <trkpt lat="43.25632" lon="5.60667">
        <ele>256.59765625</ele>
        <time>2020-09-13T08:30:25Z</time>
      </trkpt>
      <trkpt lat="43.25629" lon="5.60661">
        <ele>256.578125</ele>
        <time>2020-09-13T08:30:26Z</time>
      </trkpt>
      <trkpt lat="43.25621" lon="5.6064">
        <ele>255.796875</ele>
        <time>2020-09-13T08:30:29Z</time>
      </trkpt>
      <trkpt lat="43.25612" lon="5.60619">
        <ele>255.1953125</ele>
        <time>2020-09-13T08:30:32Z</time>
      </trkpt>
      <trkpt lat="43.2561" lon="5.60612">
        <ele>255.21875</ele>
        <time>2020-09-13T08:30:33Z</time>
      </trkpt>
      <trkpt lat="43.25609" lon="5.60605">
        <ele>255.0234375</ele>
        <time>2020-09-13T08:30:34Z</time>
      </trkpt>
      <trkpt lat="43.25607" lon="5.60587">
        <ele>254.5546875</ele>
        <time>2020-09-13T08:30:36Z</time>
      </trkpt>
      <trkpt lat="43.25606" lon="5.60571">
        <ele>254.3125</ele>
        <time>2020-09-13T08:30:38Z</time>
      </trkpt>
      <trkpt lat="43.25605" lon="5.60565">
        <ele>254.484375</ele>
        <time>2020-09-13T08:30:39Z</time>
      </trkpt>
      <trkpt lat="43.25606" lon="5.60557">
        <ele>254.49609375</ele>
        <time>2020-09-13T08:30:40Z</time>
      </trkpt>
      <trkpt lat="43.25608" lon="5.60549">
        <ele>254.453125</ele>
        <time>2020-09-13T08:30:41Z</time>
      </trkpt>
      <trkpt lat="43.25609" lon="5.60541">
        <ele>254.3203125</ele>
        <time>2020-09-13T08:30:42Z</time>
      </trkpt>
      <trkpt lat="43.2561" lon="5.60532">
        <ele>254.2265625</ele>
        <time>2020-09-13T08:30:43Z</time>
      </trkpt>
      <trkpt lat="43.25609" lon="5.60523">
        <ele>254.2109375</ele>
        <time>2020-09-13T08:30:44Z</time>
      </trkpt>
      <trkpt lat="43.25608" lon="5.60514">
        <ele>254.37109375</ele>
        <time>2020-09-13T08:30:45Z</time>
      </trkpt>
      <trkpt lat="43.25606" lon="5.6048">
        <ele>254.86328125</ele>
        <time>2020-09-13T08:30:52Z</time>
      </trkpt>
      <trkpt lat="43.256" lon="5.60431">
        <ele>254.453125</ele>
        <time>2020-09-13T08:31:02Z</time>
      </trkpt>
      <trkpt lat="43.25595" lon="5.60402">
        <ele>254.02734375</ele>
        <time>2020-09-13T08:31:07Z</time>
      </trkpt>
      <trkpt lat="43.25592" lon="5.60391">
        <ele>253.76171875</ele>
        <time>2020-09-13T08:31:09Z</time>
      </trkpt>
      <trkpt lat="43.25586" lon="5.60358">
        <ele>253.73046875</ele>
        <time>2020-09-13T08:31:15Z</time>
      </trkpt>
      <trkpt lat="43.25584" lon="5.60346">
        <ele>253.9140625</ele>
        <time>2020-09-13T08:31:17Z</time>
      </trkpt>
      <trkpt lat="43.2557" lon="5.60303">
        <ele>252.9921875</ele>
        <time>2020-09-13T08:31:23Z</time>
      </trkpt>
      <trkpt lat="43.25567" lon="5.60296">
        <ele>252.40234375</ele>
        <time>2020-09-13T08:31:24Z</time>
      </trkpt>
      <trkpt lat="43.25563" lon="5.60289">
        <ele>251.51171875</ele>
        <time>2020-09-13T08:31:25Z</time>
      </trkpt>
      <trkpt lat="43.25539" lon="5.60255">
        <ele>249.5859375</ele>
        <time>2020-09-13T08:31:31Z</time>
      </trkpt>
      <trkpt lat="43.25538" lon="5.60251">
        <ele>249.2109375</ele>
        <time>2020-09-13T08:31:32Z</time>
      </trkpt>
      <trkpt lat="43.25537" lon="5.60247">
        <ele>248.86328125</ele>
        <time>2020-09-13T08:31:33Z</time>
      </trkpt>
      <trkpt lat="43.25533" lon="5.60235">
        <ele>248.1328125</ele>
        <time>2020-09-13T08:31:37Z</time>
      </trkpt>
      <trkpt lat="43.25529" lon="5.60233">
        <ele>248.31640625</ele>
        <time>2020-09-13T08:31:50Z</time>
      </trkpt>
      <trkpt lat="43.25528" lon="5.6023">
        <ele>248.39453125</ele>
        <time>2020-09-13T08:32:10Z</time>
      </trkpt>
      <trkpt lat="43.25525" lon="5.60229">
        <ele>248.73828125</ele>
        <time>2020-09-13T08:32:36Z</time>
      </trkpt>
      <trkpt lat="43.25525" lon="5.60227">
        <ele>248.72265625</ele>
        <time>2020-09-13T08:32:41Z</time>
      </trkpt>
      <trkpt lat="43.25526" lon="5.60225">
        <ele>248.6328125</ele>
        <time>2020-09-13T08:32:42Z</time>
      </trkpt>
      <trkpt lat="43.25527" lon="5.60223">
        <ele>248.46484375</ele>
        <time>2020-09-13T08:32:43Z</time>
      </trkpt>
      <trkpt lat="43.25529" lon="5.60219">
        <ele>248.2578125</ele>
        <time>2020-09-13T08:32:44Z</time>
      </trkpt>
      <trkpt lat="43.2553" lon="5.60216">
        <ele>248.109375</ele>
        <time>2020-09-13T08:32:45Z</time>
      </trkpt>
      <trkpt lat="43.25531" lon="5.60211">
        <ele>247.8984375</ele>
        <time>2020-09-13T08:32:46Z</time>
      </trkpt>
      <trkpt lat="43.2553" lon="5.60207">
        <ele>247.82421875</ele>
        <time>2020-09-13T08:32:47Z</time>
      </trkpt>
      <trkpt lat="43.25529" lon="5.60203">
        <ele>247.79296875</ele>
        <time>2020-09-13T08:32:48Z</time>
      </trkpt>
      <trkpt lat="43.25529" lon="5.60198">
        <ele>247.60546875</ele>
        <time>2020-09-13T08:32:49Z</time>
      </trkpt>
      <trkpt lat="43.2553" lon="5.60194">
        <ele>247.35546875</ele>
        <time>2020-09-13T08:32:50Z</time>
      </trkpt>
      <trkpt lat="43.25531" lon="5.6019">
        <ele>247.140625</ele>
        <time>2020-09-13T08:32:51Z</time>
      </trkpt>
      <trkpt lat="43.25541" lon="5.60143">
        <ele>248.19140625</ele>
        <time>2020-09-13T08:33:00Z</time>
      </trkpt>
      <trkpt lat="43.25543" lon="5.60138">
        <ele>248.52734375</ele>
        <time>2020-09-13T08:33:01Z</time>
      </trkpt>
      <trkpt lat="43.25544" lon="5.60132">
        <ele>248.76953125</ele>
        <time>2020-09-13T08:33:02Z</time>
      </trkpt>
      <trkpt lat="43.25545" lon="5.60126">
        <ele>249.2578125</ele>
        <time>2020-09-13T08:33:03Z</time>
      </trkpt>
      <trkpt lat="43.25547" lon="5.60119">
        <ele>249.84375</ele>
        <time>2020-09-13T08:33:04Z</time>
      </trkpt>
      <trkpt lat="43.25562" lon="5.60047">
        <ele>255.93359375</ele>
        <time>2020-09-13T08:33:13Z</time>
      </trkpt>
      <trkpt lat="43.25563" lon="5.60038">
        <ele>256</ele>
        <time>2020-09-13T08:33:14Z</time>
      </trkpt>
      <trkpt lat="43.2557" lon="5.59965">
        <ele>251.7421875</ele>
        <time>2020-09-13T08:33:22Z</time>
      </trkpt>
      <trkpt lat="43.25575" lon="5.59947">
        <ele>251.23828125</ele>
        <time>2020-09-13T08:33:24Z</time>
      </trkpt>
      <trkpt lat="43.25586" lon="5.59905">
        <ele>249.4375</ele>
        <time>2020-09-13T08:33:31Z</time>
      </trkpt>
      <trkpt lat="43.25583" lon="5.59901">
        <ele>248.4140625</ele>
        <time>2020-09-13T08:33:32Z</time>
      </trkpt>
      <trkpt lat="43.25578" lon="5.59898">
        <ele>246.828125</ele>
        <time>2020-09-13T08:33:33Z</time>
      </trkpt>
      <trkpt lat="43.25568" lon="5.59895">
        <ele>243.53125</ele>
        <time>2020-09-13T08:33:35Z</time>
      </trkpt>
      <trkpt lat="43.25563" lon="5.59894">
        <ele>242.05859375</ele>
        <time>2020-09-13T08:33:36Z</time>
      </trkpt>
      <trkpt lat="43.25558" lon="5.59893">
        <ele>240.875</ele>
        <time>2020-09-13T08:33:37Z</time>
      </trkpt>
      <trkpt lat="43.2551" lon="5.5989">
        <ele>243.40234375</ele>
        <time>2020-09-13T08:33:47Z</time>
      </trkpt>
      <trkpt lat="43.25502" lon="5.59887">
        <ele>243.796875</ele>
        <time>2020-09-13T08:33:49Z</time>
      </trkpt>
      <trkpt lat="43.25497" lon="5.59884">
        <ele>243.875</ele>
        <time>2020-09-13T08:33:50Z</time>
      </trkpt>
      <trkpt lat="43.25494" lon="5.59882">
        <ele>243.8125</ele>
        <time>2020-09-13T08:33:51Z</time>
      </trkpt>
      <trkpt lat="43.25482" lon="5.59875">
        <ele>244.3515625</ele>
        <time>2020-09-13T08:33:54Z</time>
      </trkpt>
      <trkpt lat="43.25478" lon="5.59874">
        <ele>244.59765625</ele>
        <time>2020-09-13T08:33:55Z</time>
      </trkpt>
      <trkpt lat="43.25474" lon="5.59873">
        <ele>244.8203125</ele>
        <time>2020-09-13T08:33:56Z</time>
      </trkpt>
      <trkpt lat="43.2547" lon="5.59874">
        <ele>245.05859375</ele>
        <time>2020-09-13T08:33:57Z</time>
      </trkpt>
      <trkpt lat="43.25465" lon="5.59875">
        <ele>245.35546875</ele>
        <time>2020-09-13T08:33:58Z</time>
      </trkpt>
      <trkpt lat="43.25461" lon="5.59876">
        <ele>245.70703125</ele>
        <time>2020-09-13T08:33:59Z</time>
      </trkpt>
      <trkpt lat="43.25439" lon="5.59884">
        <ele>247.80078125</ele>
        <time>2020-09-13T08:34:04Z</time>
      </trkpt>
      <trkpt lat="43.25434" lon="5.59884">
        <ele>247.85546875</ele>
        <time>2020-09-13T08:34:05Z</time>
      </trkpt>
      <trkpt lat="43.25425" lon="5.59884">
        <ele>247.7890625</ele>
        <time>2020-09-13T08:34:07Z</time>
      </trkpt>
      <trkpt lat="43.25421" lon="5.59884">
        <ele>247.859375</ele>
        <time>2020-09-13T08:34:08Z</time>
      </trkpt>
      <trkpt lat="43.25417" lon="5.59885">
        <ele>248.03125</ele>
        <time>2020-09-13T08:34:09Z</time>
      </trkpt>
      <trkpt lat="43.25414" lon="5.59887">
        <ele>248.62890625</ele>
        <time>2020-09-13T08:34:10Z</time>
      </trkpt>
      <trkpt lat="43.25412" lon="5.59892">
        <ele>249.56640625</ele>
        <time>2020-09-13T08:34:11Z</time>
      </trkpt>
      <trkpt lat="43.2541" lon="5.59896">
        <ele>250.640625</ele>
        <time>2020-09-13T08:34:12Z</time>
      </trkpt>
      <trkpt lat="43.2541" lon="5.59901">
        <ele>251.6875</ele>
        <time>2020-09-13T08:34:13Z</time>
      </trkpt>
      <trkpt lat="43.25409" lon="5.59906">
        <ele>252.64453125</ele>
        <time>2020-09-13T08:34:14Z</time>
      </trkpt>
      <trkpt lat="43.25397" lon="5.59955">
        <ele>261.734375</ele>
        <time>2020-09-13T08:34:26Z</time>
      </trkpt>
      <trkpt lat="43.25368" lon="5.59946">
        <ele>255.84765625</ele>
        <time>2020-09-13T08:34:35Z</time>
      </trkpt>
      <trkpt lat="43.25344" lon="5.59936">
        <ele>252.8515625</ele>
        <time>2020-09-13T08:34:47Z</time>
      </trkpt>
      <trkpt lat="43.25343" lon="5.59937">
        <ele>253.046875</ele>
        <time>2020-09-13T08:35:14Z</time>
      </trkpt>
      <trkpt lat="43.25342" lon="5.59938">
        <ele>253.23828125</ele>
        <time>2020-09-13T08:35:15Z</time>
      </trkpt>
      <trkpt lat="43.2534" lon="5.59938">
        <ele>253.3515625</ele>
        <time>2020-09-13T08:35:16Z</time>
      </trkpt>
      <trkpt lat="43.25338" lon="5.59939">
        <ele>253.4375</ele>
        <time>2020-09-13T08:35:17Z</time>
      </trkpt>
      <trkpt lat="43.25336" lon="5.59939">
        <ele>253.52734375</ele>
        <time>2020-09-13T08:35:18Z</time>
      </trkpt>
      <trkpt lat="43.25334" lon="5.5994">
        <ele>253.6953125</ele>
        <time>2020-09-13T08:35:19Z</time>
      </trkpt>
      <trkpt lat="43.25332" lon="5.59941">
        <ele>253.96484375</ele>
        <time>2020-09-13T08:35:20Z</time>
      </trkpt>
      <trkpt lat="43.25329" lon="5.59943">
        <ele>254.30078125</ele>
        <time>2020-09-13T08:35:21Z</time>
      </trkpt>
      <trkpt lat="43.25327" lon="5.59945">
        <ele>254.6875</ele>
        <time>2020-09-13T08:35:22Z</time>
      </trkpt>
      <trkpt lat="43.2531" lon="5.5998">
        <ele>261.6796875</ele>
        <time>2020-09-13T08:35:34Z</time>
      </trkpt>
      <trkpt lat="43.25284" lon="5.60022">
        <ele>268.0859375</ele>
        <time>2020-09-13T08:35:49Z</time>
      </trkpt>
      <trkpt lat="43.25252" lon="5.60045">
        <ele>263.3203125</ele>
        <time>2020-09-13T08:36:02Z</time>
      </trkpt>
      <trkpt lat="43.25222" lon="5.60071">
        <ele>257.97265625</ele>
        <time>2020-09-13T08:36:16Z</time>
      </trkpt>
      <trkpt lat="43.25193" lon="5.60085">
        <ele>256.26171875</ele>
        <time>2020-09-13T08:36:29Z</time>
      </trkpt>
      <trkpt lat="43.25187" lon="5.60088">
        <ele>256.7265625</ele>
        <time>2020-09-13T08:36:32Z</time>
      </trkpt>
      <trkpt lat="43.25185" lon="5.60089">
        <ele>256.8984375</ele>
        <time>2020-09-13T08:36:33Z</time>
      </trkpt>
      <trkpt lat="43.25182" lon="5.60089">
        <ele>257.0546875</ele>
        <time>2020-09-13T08:36:34Z</time>
      </trkpt>
      <trkpt lat="43.2518" lon="5.6009">
        <ele>257.19140625</ele>
        <time>2020-09-13T08:36:35Z</time>
      </trkpt>
      <trkpt lat="43.25178" lon="5.6009">
        <ele>257.328125</ele>
        <time>2020-09-13T08:36:36Z</time>
      </trkpt>
      <trkpt lat="43.25176" lon="5.60091">
        <ele>257.484375</ele>
        <time>2020-09-13T08:36:37Z</time>
      </trkpt>
      <trkpt lat="43.25141" lon="5.60104">
        <ele>264.01171875</ele>
        <time>2020-09-13T08:36:53Z</time>
      </trkpt>
      <trkpt lat="43.25115" lon="5.60118">
        <ele>266.26171875</ele>
        <time>2020-09-13T08:37:05Z</time>
      </trkpt>
      <trkpt lat="43.25073" lon="5.6014">
        <ele>269.234375</ele>
        <time>2020-09-13T08:37:21Z</time>
      </trkpt>
      <trkpt lat="43.25024" lon="5.6016">
        <ele>270.19140625</ele>
        <time>2020-09-13T08:37:40Z</time>
      </trkpt>
      <trkpt lat="43.24986" lon="5.60164">
        <ele>270.16015625</ele>
        <time>2020-09-13T08:37:54Z</time>
      </trkpt>
      <trkpt lat="43.24941" lon="5.60173">
        <ele>271.1484375</ele>
        <time>2020-09-13T08:38:11Z</time>
      </trkpt>
      <trkpt lat="43.24905" lon="5.60202">
        <ele>272.19921875</ele>
        <time>2020-09-13T08:38:26Z</time>
      </trkpt>
      <trkpt lat="43.24877" lon="5.60225">
        <ele>270.8984375</ele>
        <time>2020-09-13T08:38:37Z</time>
      </trkpt>
      <trkpt lat="43.24874" lon="5.60225">
        <ele>270.5390625</ele>
        <time>2020-09-13T08:38:38Z</time>
      </trkpt>
      <trkpt lat="43.24871" lon="5.60224">
        <ele>270.12890625</ele>
        <time>2020-09-13T08:38:39Z</time>
      </trkpt>
      <trkpt lat="43.24869" lon="5.60221">
        <ele>269.734375</ele>
        <time>2020-09-13T08:38:40Z</time>
      </trkpt>
      <trkpt lat="43.24868" lon="5.60215">
        <ele>269.42578125</ele>
        <time>2020-09-13T08:38:41Z</time>
      </trkpt>
      <trkpt lat="43.24868" lon="5.60209">
        <ele>269.17578125</ele>
        <time>2020-09-13T08:38:42Z</time>
      </trkpt>
      <trkpt lat="43.24868" lon="5.60204">
        <ele>268.94921875</ele>
        <time>2020-09-13T08:38:43Z</time>
      </trkpt>
      <trkpt lat="43.24868" lon="5.60125">
        <ele>266.1015625</ele>
        <time>2020-09-13T08:38:59Z</time>
      </trkpt>
      <trkpt lat="43.24876" lon="5.60048">
        <ele>266.39453125</ele>
        <time>2020-09-13T08:39:14Z</time>
      </trkpt>
      <trkpt lat="43.24861" lon="5.59975">
        <ele>266.84765625</ele>
        <time>2020-09-13T08:39:28Z</time>
      </trkpt>
      <trkpt lat="43.24828" lon="5.59889">
        <ele>267</ele>
        <time>2020-09-13T08:39:46Z</time>
      </trkpt>
      <trkpt lat="43.24808" lon="5.59837">
        <ele>267.625</ele>
        <time>2020-09-13T08:39:57Z</time>
      </trkpt>
      <trkpt lat="43.24775" lon="5.59747">
        <ele>269.83203125</ele>
        <time>2020-09-13T08:40:15Z</time>
      </trkpt>
      <trkpt lat="43.24771" lon="5.59731">
        <ele>270.23828125</ele>
        <time>2020-09-13T08:40:18Z</time>
      </trkpt>
      <trkpt lat="43.24757" lon="5.5965">
        <ele>272.41796875</ele>
        <time>2020-09-13T08:40:34Z</time>
      </trkpt>
      <trkpt lat="43.24754" lon="5.59609">
        <ele>273.8046875</ele>
        <time>2020-09-13T08:40:43Z</time>
      </trkpt>
      <trkpt lat="43.24756" lon="5.59606">
        <ele>273.90625</ele>
        <time>2020-09-13T08:40:44Z</time>
      </trkpt>
      <trkpt lat="43.24758" lon="5.59605">
        <ele>273.93359375</ele>
        <time>2020-09-13T08:40:45Z</time>
      </trkpt>
      <trkpt lat="43.24761" lon="5.59604">
        <ele>273.96484375</ele>
        <time>2020-09-13T08:40:46Z</time>
      </trkpt>
      <trkpt lat="43.24763" lon="5.59603">
        <ele>274</ele>
        <time>2020-09-13T08:40:47Z</time>
      </trkpt>
      <trkpt lat="43.24763" lon="5.59601">
        <ele>274</ele>
        <time>2020-09-13T08:40:48Z</time>
      </trkpt>
      <trkpt lat="43.24761" lon="5.596">
        <ele>274</ele>
        <time>2020-09-13T08:40:49Z</time>
      </trkpt>
      <trkpt lat="43.24759" lon="5.59598">
        <ele>274</ele>
        <time>2020-09-13T08:40:50Z</time>
      </trkpt>
      <trkpt lat="43.24757" lon="5.59595">
        <ele>274</ele>
        <time>2020-09-13T08:40:51Z</time>
      </trkpt>
      <trkpt lat="43.24757" lon="5.5959">
        <ele>274</ele>
        <time>2020-09-13T08:40:52Z</time>
      </trkpt>
      <trkpt lat="43.24756" lon="5.59585">
        <ele>274</ele>
        <time>2020-09-13T08:40:53Z</time>
      </trkpt>
      <trkpt lat="43.24744" lon="5.59534">
        <ele>275.17578125</ele>
        <time>2020-09-13T08:41:04Z</time>
      </trkpt>
      <trkpt lat="43.24738" lon="5.59475">
        <ele>276</ele>
        <time>2020-09-13T08:41:15Z</time>
      </trkpt>
      <trkpt lat="43.24738" lon="5.59469">
        <ele>276</ele>
        <time>2020-09-13T08:41:16Z</time>
      </trkpt>
      <trkpt lat="43.24741" lon="5.59398">
        <ele>276</ele>
        <time>2020-09-13T08:41:27Z</time>
      </trkpt>
      <trkpt lat="43.24742" lon="5.59392">
        <ele>276</ele>
        <time>2020-09-13T08:41:28Z</time>
      </trkpt>
      <trkpt lat="43.24742" lon="5.59387">
        <ele>276</ele>
        <time>2020-09-13T08:41:29Z</time>
      </trkpt>
      <trkpt lat="43.24742" lon="5.59381">
        <ele>276</ele>
        <time>2020-09-13T08:41:30Z</time>
      </trkpt>
      <trkpt lat="43.24743" lon="5.59375">
        <ele>276</ele>
        <time>2020-09-13T08:41:31Z</time>
      </trkpt>
      <trkpt lat="43.24743" lon="5.59369">
        <ele>276</ele>
        <time>2020-09-13T08:41:32Z</time>
      </trkpt>
      <trkpt lat="43.24745" lon="5.59357">
        <ele>276</ele>
        <time>2020-09-13T08:41:34Z</time>
      </trkpt>
      <trkpt lat="43.24753" lon="5.59256">
        <ele>275</ele>
        <time>2020-09-13T08:41:50Z</time>
      </trkpt>
      <trkpt lat="43.24752" lon="5.59225">
        <ele>275.0546875</ele>
        <time>2020-09-13T08:41:55Z</time>
      </trkpt>
      <trkpt lat="43.24752" lon="5.59219">
        <ele>275.0546875</ele>
        <time>2020-09-13T08:41:56Z</time>
      </trkpt>
      <trkpt lat="43.24753" lon="5.59214">
        <ele>275.046875</ele>
        <time>2020-09-13T08:41:57Z</time>
      </trkpt>
      <trkpt lat="43.24752" lon="5.59209">
        <ele>275.0625</ele>
        <time>2020-09-13T08:41:58Z</time>
      </trkpt>
      <trkpt lat="43.24752" lon="5.59204">
        <ele>275.07421875</ele>
        <time>2020-09-13T08:41:59Z</time>
      </trkpt>
      <trkpt lat="43.24752" lon="5.59199">
        <ele>275.08203125</ele>
        <time>2020-09-13T08:42:00Z</time>
      </trkpt>
      <trkpt lat="43.24743" lon="5.59144">
        <ele>275.1796875</ele>
        <time>2020-09-13T08:42:10Z</time>
      </trkpt>
      <trkpt lat="43.24743" lon="5.59138">
        <ele>275.09765625</ele>
        <time>2020-09-13T08:42:11Z</time>
      </trkpt>
      <trkpt lat="43.24742" lon="5.59133">
        <ele>275.015625</ele>
        <time>2020-09-13T08:42:12Z</time>
      </trkpt>
      <trkpt lat="43.24741" lon="5.59127">
        <ele>275</ele>
        <time>2020-09-13T08:42:13Z</time>
      </trkpt>
      <trkpt lat="43.24741" lon="5.59122">
        <ele>275</ele>
        <time>2020-09-13T08:42:14Z</time>
      </trkpt>
      <trkpt lat="43.2474" lon="5.59117">
        <ele>275</ele>
        <time>2020-09-13T08:42:15Z</time>
      </trkpt>
      <trkpt lat="43.24738" lon="5.59112">
        <ele>275</ele>
        <time>2020-09-13T08:42:16Z</time>
      </trkpt>
      <trkpt lat="43.24737" lon="5.59107">
        <ele>275</ele>
        <time>2020-09-13T08:42:17Z</time>
      </trkpt>
      <trkpt lat="43.24735" lon="5.59102">
        <ele>274.94921875</ele>
        <time>2020-09-13T08:42:18Z</time>
      </trkpt>
      <trkpt lat="43.24732" lon="5.59098">
        <ele>274.828125</ele>
        <time>2020-09-13T08:42:19Z</time>
      </trkpt>
      <trkpt lat="43.24729" lon="5.59096">
        <ele>274.74609375</ele>
        <time>2020-09-13T08:42:20Z</time>
      </trkpt>
      <trkpt lat="43.24726" lon="5.59095">
        <ele>274.69921875</ele>
        <time>2020-09-13T08:42:21Z</time>
      </trkpt>
      <trkpt lat="43.24724" lon="5.59095">
        <ele>274.6953125</ele>
        <time>2020-09-13T08:42:22Z</time>
      </trkpt>
      <trkpt lat="43.24722" lon="5.59096">
        <ele>274.72265625</ele>
        <time>2020-09-13T08:42:23Z</time>
      </trkpt>
      <trkpt lat="43.24719" lon="5.59097">
        <ele>274.765625</ele>
        <time>2020-09-13T08:42:24Z</time>
      </trkpt>
      <trkpt lat="43.24716" lon="5.59099">
        <ele>274.8125</ele>
        <time>2020-09-13T08:42:25Z</time>
      </trkpt>
      <trkpt lat="43.24714" lon="5.59101">
        <ele>274.90234375</ele>
        <time>2020-09-13T08:42:26Z</time>
      </trkpt>
      <trkpt lat="43.24711" lon="5.59105">
        <ele>275</ele>
        <time>2020-09-13T08:42:27Z</time>
      </trkpt>
      <trkpt lat="43.24709" lon="5.59109">
        <ele>275</ele>
        <time>2020-09-13T08:42:28Z</time>
      </trkpt>
      <trkpt lat="43.24706" lon="5.59112">
        <ele>275</ele>
        <time>2020-09-13T08:42:29Z</time>
      </trkpt>
      <trkpt lat="43.24704" lon="5.59116">
        <ele>275</ele>
        <time>2020-09-13T08:42:30Z</time>
      </trkpt>
      <trkpt lat="43.24699" lon="5.59125">
        <ele>275</ele>
        <time>2020-09-13T08:42:32Z</time>
      </trkpt>
      <trkpt lat="43.24696" lon="5.59129">
        <ele>275</ele>
        <time>2020-09-13T08:42:33Z</time>
      </trkpt>
      <trkpt lat="43.24661" lon="5.59171">
        <ele>276.4375</ele>
        <time>2020-09-13T08:42:47Z</time>
      </trkpt>
      <trkpt lat="43.24634" lon="5.59198">
        <ele>277.12109375</ele>
        <time>2020-09-13T08:42:59Z</time>
      </trkpt>
      <trkpt lat="43.24603" lon="5.59226">
        <ele>278.421875</ele>
        <time>2020-09-13T08:43:11Z</time>
      </trkpt>
      <trkpt lat="43.2456" lon="5.5926">
        <ele>279.98046875</ele>
        <time>2020-09-13T08:43:26Z</time>
      </trkpt>
      <trkpt lat="43.24508" lon="5.59279">
        <ele>281.84375</ele>
        <time>2020-09-13T08:43:42Z</time>
      </trkpt>
      <trkpt lat="43.24475" lon="5.59299">
        <ele>283.03125</ele>
        <time>2020-09-13T08:43:53Z</time>
      </trkpt>
      <trkpt lat="43.2443" lon="5.59311">
        <ele>284.66015625</ele>
        <time>2020-09-13T08:44:07Z</time>
      </trkpt>
      <trkpt lat="43.2441" lon="5.59305">
        <ele>285.7578125</ele>
        <time>2020-09-13T08:44:14Z</time>
      </trkpt>
      <trkpt lat="43.24408" lon="5.59304">
        <ele>285.92578125</ele>
        <time>2020-09-13T08:44:15Z</time>
      </trkpt>
      <trkpt lat="43.24406" lon="5.59301">
        <ele>286.06640625</ele>
        <time>2020-09-13T08:44:16Z</time>
      </trkpt>
      <trkpt lat="43.24404" lon="5.59299">
        <ele>286.21875</ele>
        <time>2020-09-13T08:44:17Z</time>
      </trkpt>
      <trkpt lat="43.24402" lon="5.59298">
        <ele>286.359375</ele>
        <time>2020-09-13T08:44:18Z</time>
      </trkpt>
      <trkpt lat="43.244" lon="5.59295">
        <ele>286.37890625</ele>
        <time>2020-09-13T08:44:19Z</time>
      </trkpt>
      <trkpt lat="43.24408" lon="5.59296">
        <ele>285.8515625</ele>
        <time>2020-09-13T08:44:23Z</time>
      </trkpt>
      <trkpt lat="43.24409" lon="5.593">
        <ele>285.875</ele>
        <time>2020-09-13T08:44:24Z</time>
      </trkpt>
      <trkpt lat="43.24408" lon="5.59304">
        <ele>285.91796875</ele>
        <time>2020-09-13T08:44:25Z</time>
      </trkpt>
      <trkpt lat="43.24407" lon="5.59307">
        <ele>286.0078125</ele>
        <time>2020-09-13T08:44:26Z</time>
      </trkpt>
      <trkpt lat="43.24404" lon="5.5931">
        <ele>286.1796875</ele>
        <time>2020-09-13T08:44:27Z</time>
      </trkpt>
      <trkpt lat="43.24401" lon="5.59311">
        <ele>286.41015625</ele>
        <time>2020-09-13T08:44:28Z</time>
      </trkpt>
      <trkpt lat="43.24398" lon="5.5931">
        <ele>286.66796875</ele>
        <time>2020-09-13T08:44:29Z</time>
      </trkpt>
      <trkpt lat="43.24394" lon="5.5931">
        <ele>286.92578125</ele>
        <time>2020-09-13T08:44:30Z</time>
      </trkpt>
      <trkpt lat="43.24362" lon="5.59303">
        <ele>288.09765625</ele>
        <time>2020-09-13T08:44:39Z</time>
      </trkpt>
      <trkpt lat="43.24316" lon="5.593">
        <ele>289.76953125</ele>
        <time>2020-09-13T08:44:53Z</time>
      </trkpt>
      <trkpt lat="43.24265" lon="5.5932">
        <ele>292.51953125</ele>
        <time>2020-09-13T08:45:08Z</time>
      </trkpt>
      <trkpt lat="43.24217" lon="5.59365">
        <ele>296.26953125</ele>
        <time>2020-09-13T08:45:23Z</time>
      </trkpt>
      <trkpt lat="43.24182" lon="5.59395">
        <ele>299.53515625</ele>
        <time>2020-09-13T08:45:35Z</time>
      </trkpt>
      <trkpt lat="43.2415" lon="5.59394">
        <ele>302.3046875</ele>
        <time>2020-09-13T08:45:47Z</time>
      </trkpt>
      <trkpt lat="43.24126" lon="5.59367">
        <ele>304.4296875</ele>
        <time>2020-09-13T08:46:01Z</time>
      </trkpt>
      <trkpt lat="43.24105" lon="5.59343">
        <ele>306.90625</ele>
        <time>2020-09-13T08:46:13Z</time>
      </trkpt>
      <trkpt lat="43.24075" lon="5.59321">
        <ele>310.63671875</ele>
        <time>2020-09-13T08:46:28Z</time>
      </trkpt>
      <trkpt lat="43.24071" lon="5.59317">
        <ele>310.890625</ele>
        <time>2020-09-13T08:46:40Z</time>
      </trkpt>
      <trkpt lat="43.2407" lon="5.59317">
        <ele>310.9296875</ele>
        <time>2020-09-13T08:47:09Z</time>
      </trkpt>
      <trkpt lat="43.24068" lon="5.59316">
        <ele>311.078125</ele>
        <time>2020-09-13T08:47:11Z</time>
      </trkpt>
      <trkpt lat="43.24066" lon="5.59315">
        <ele>311.21484375</ele>
        <time>2020-09-13T08:47:12Z</time>
      </trkpt>
      <trkpt lat="43.24064" lon="5.59314">
        <ele>311.3359375</ele>
        <time>2020-09-13T08:47:13Z</time>
      </trkpt>
      <trkpt lat="43.24043" lon="5.59301">
        <ele>312.68359375</ele>
        <time>2020-09-13T08:47:26Z</time>
      </trkpt>
      <trkpt lat="43.24018" lon="5.59287">
        <ele>315.77734375</ele>
        <time>2020-09-13T08:47:44Z</time>
      </trkpt>
      <trkpt lat="43.2399" lon="5.5928">
        <ele>318.51171875</ele>
        <time>2020-09-13T08:48:01Z</time>
      </trkpt>
      <trkpt lat="43.23962" lon="5.59284">
        <ele>321.76953125</ele>
        <time>2020-09-13T08:48:19Z</time>
      </trkpt>
      <trkpt lat="43.23934" lon="5.59298">
        <ele>324.5234375</ele>
        <time>2020-09-13T08:48:35Z</time>
      </trkpt>
      <trkpt lat="43.23912" lon="5.59312">
        <ele>327.9453125</ele>
        <time>2020-09-13T08:48:48Z</time>
      </trkpt>
      <trkpt lat="43.23887" lon="5.59333">
        <ele>330.71875</ele>
        <time>2020-09-13T08:49:04Z</time>
      </trkpt>
      <trkpt lat="43.2387" lon="5.59363">
        <ele>332.984375</ele>
        <time>2020-09-13T08:49:19Z</time>
      </trkpt>
      <trkpt lat="43.23856" lon="5.59401">
        <ele>335.79296875</ele>
        <time>2020-09-13T08:49:36Z</time>
      </trkpt>
      <trkpt lat="43.23842" lon="5.59436">
        <ele>336.6171875</ele>
        <time>2020-09-13T08:49:52Z</time>
      </trkpt>
      <trkpt lat="43.23829" lon="5.59452">
        <ele>336.15234375</ele>
        <time>2020-09-13T08:50:03Z</time>
      </trkpt>
      <trkpt lat="43.23827" lon="5.59451">
        <ele>335.90234375</ele>
        <time>2020-09-13T08:50:04Z</time>
      </trkpt>
      <trkpt lat="43.23826" lon="5.59451">
        <ele>335.6875</ele>
        <time>2020-09-13T08:50:05Z</time>
      </trkpt>
      <trkpt lat="43.23824" lon="5.5945">
        <ele>335.47265625</ele>
        <time>2020-09-13T08:50:06Z</time>
      </trkpt>
      <trkpt lat="43.23823" lon="5.59448">
        <ele>335.19921875</ele>
        <time>2020-09-13T08:50:07Z</time>
      </trkpt>
      <trkpt lat="43.23822" lon="5.59445">
        <ele>334.89453125</ele>
        <time>2020-09-13T08:50:08Z</time>
      </trkpt>
      <trkpt lat="43.23821" lon="5.59443">
        <ele>334.60546875</ele>
        <time>2020-09-13T08:50:09Z</time>
      </trkpt>
      <trkpt lat="43.2382" lon="5.5944">
        <ele>334.3046875</ele>
        <time>2020-09-13T08:50:10Z</time>
      </trkpt>
      <trkpt lat="43.23821" lon="5.59402">
        <ele>332.24609375</ele>
        <time>2020-09-13T08:50:23Z</time>
      </trkpt>
      <trkpt lat="43.23817" lon="5.59352">
        <ele>330.03515625</ele>
        <time>2020-09-13T08:50:40Z</time>
      </trkpt>
      <trkpt lat="43.23802" lon="5.59304">
        <ele>332.671875</ele>
        <time>2020-09-13T08:50:55Z</time>
      </trkpt>
      <trkpt lat="43.23783" lon="5.59261">
        <ele>333.61328125</ele>
        <time>2020-09-13T08:51:09Z</time>
      </trkpt>
      <trkpt lat="43.23751" lon="5.59212">
        <ele>334.3359375</ele>
        <time>2020-09-13T08:51:25Z</time>
      </trkpt>
      <trkpt lat="43.23714" lon="5.59176">
        <ele>337.53125</ele>
        <time>2020-09-13T08:51:41Z</time>
      </trkpt>
      <trkpt lat="43.2368" lon="5.59157">
        <ele>341.8046875</ele>
        <time>2020-09-13T08:51:56Z</time>
      </trkpt>
      <trkpt lat="43.23645" lon="5.59139">
        <ele>349.109375</ele>
        <time>2020-09-13T08:52:12Z</time>
      </trkpt>
      <trkpt lat="43.23626" lon="5.59128">
        <ele>351.35546875</ele>
        <time>2020-09-13T08:52:27Z</time>
      </trkpt>
      <trkpt lat="43.23628" lon="5.59124">
        <ele>349.23828125</ele>
        <time>2020-09-13T08:52:46Z</time>
      </trkpt>
      <trkpt lat="43.23622" lon="5.59122">
        <ele>349.88671875</ele>
        <time>2020-09-13T08:53:25Z</time>
      </trkpt>
      <trkpt lat="43.23605" lon="5.59113">
        <ele>350.125</ele>
        <time>2020-09-13T08:53:30Z</time>
      </trkpt>
      <trkpt lat="43.23572" lon="5.59091">
        <ele>347.2734375</ele>
        <time>2020-09-13T08:53:38Z</time>
      </trkpt>
      <trkpt lat="43.23541" lon="5.59062">
        <ele>344.4296875</ele>
        <time>2020-09-13T08:53:49Z</time>
      </trkpt>
      <trkpt lat="43.23533" lon="5.59064">
        <ele>346.69921875</ele>
        <time>2020-09-13T08:53:53Z</time>
      </trkpt>
      <trkpt lat="43.23531" lon="5.59067">
        <ele>347.203125</ele>
        <time>2020-09-13T08:53:54Z</time>
      </trkpt>
      <trkpt lat="43.23532" lon="5.5907">
        <ele>347.84765625</ele>
        <time>2020-09-13T08:53:55Z</time>
      </trkpt>
      <trkpt lat="43.23534" lon="5.59072">
        <ele>348.07421875</ele>
        <time>2020-09-13T08:53:56Z</time>
      </trkpt>
      <trkpt lat="43.23536" lon="5.59074">
        <ele>348.0625</ele>
        <time>2020-09-13T08:53:57Z</time>
      </trkpt>
      <trkpt lat="43.23538" lon="5.59076">
        <ele>348.05078125</ele>
        <time>2020-09-13T08:53:58Z</time>
      </trkpt>
      <trkpt lat="43.23539" lon="5.59078">
        <ele>348.16796875</ele>
        <time>2020-09-13T08:53:59Z</time>
      </trkpt>
      <trkpt lat="43.2354" lon="5.59081">
        <ele>348.39453125</ele>
        <time>2020-09-13T08:54:00Z</time>
      </trkpt>
      <trkpt lat="43.23553" lon="5.59098">
        <ele>351.21875</ele>
        <time>2020-09-13T08:54:10Z</time>
      </trkpt>
      <trkpt lat="43.23562" lon="5.5912">
        <ele>356.4375</ele>
        <time>2020-09-13T08:54:23Z</time>
      </trkpt>
      <trkpt lat="43.23569" lon="5.5915">
        <ele>363.47265625</ele>
        <time>2020-09-13T08:54:39Z</time>
      </trkpt>
      <trkpt lat="43.23574" lon="5.5917">
        <ele>367.078125</ele>
        <time>2020-09-13T08:54:50Z</time>
      </trkpt>
      <trkpt lat="43.23581" lon="5.59199">
        <ele>369.78515625</ele>
        <time>2020-09-13T08:55:06Z</time>
      </trkpt>
      <trkpt lat="43.23582" lon="5.59201">
        <ele>369.94140625</ele>
        <time>2020-09-13T08:55:07Z</time>
      </trkpt>
      <trkpt lat="43.23583" lon="5.59202">
        <ele>370.21875</ele>
        <time>2020-09-13T08:55:08Z</time>
      </trkpt>
      <trkpt lat="43.23584" lon="5.59204">
        <ele>370.5</ele>
        <time>2020-09-13T08:55:09Z</time>
      </trkpt>
      <trkpt lat="43.23584" lon="5.59206">
        <ele>370.625</ele>
        <time>2020-09-13T08:55:10Z</time>
      </trkpt>
      <trkpt lat="43.23584" lon="5.59208">
        <ele>370.69140625</ele>
        <time>2020-09-13T08:55:11Z</time>
      </trkpt>
      <trkpt lat="43.23584" lon="5.5921">
        <ele>370.81640625</ele>
        <time>2020-09-13T08:55:12Z</time>
      </trkpt>
      <trkpt lat="43.23585" lon="5.59211">
        <ele>371.07421875</ele>
        <time>2020-09-13T08:55:13Z</time>
      </trkpt>
      <trkpt lat="43.23586" lon="5.59212">
        <ele>371.390625</ele>
        <time>2020-09-13T08:55:14Z</time>
      </trkpt>
      <trkpt lat="43.23587" lon="5.59214">
        <ele>371.63671875</ele>
        <time>2020-09-13T08:55:15Z</time>
      </trkpt>
      <trkpt lat="43.23596" lon="5.59239">
        <ele>373.43359375</ele>
        <time>2020-09-13T08:55:30Z</time>
      </trkpt>
      <trkpt lat="43.23609" lon="5.59259">
        <ele>376.71875</ele>
        <time>2020-09-13T08:55:42Z</time>
      </trkpt>
      <trkpt lat="43.23621" lon="5.59284">
        <ele>379.19140625</ele>
        <time>2020-09-13T08:55:58Z</time>
      </trkpt>
      <trkpt lat="43.23625" lon="5.59293">
        <ele>379.41015625</ele>
        <time>2020-09-13T08:56:12Z</time>
      </trkpt>
      <trkpt lat="43.23622" lon="5.59293">
        <ele>379.53125</ele>
        <time>2020-09-13T08:56:33Z</time>
      </trkpt>
      <trkpt lat="43.23621" lon="5.59294">
        <ele>379.640625</ele>
        <time>2020-09-13T08:56:43Z</time>
      </trkpt>
      <trkpt lat="43.23623" lon="5.59294">
        <ele>379.57421875</ele>
        <time>2020-09-13T08:57:12Z</time>
      </trkpt>
      <trkpt lat="43.23625" lon="5.59298">
        <ele>379.6328125</ele>
        <time>2020-09-13T08:57:42Z</time>
      </trkpt>
      <trkpt lat="43.23626" lon="5.59302">
        <ele>379.88671875</ele>
        <time>2020-09-13T08:58:06Z</time>
      </trkpt>
      <trkpt lat="43.23634" lon="5.59332">
        <ele>380.86328125</ele>
        <time>2020-09-13T08:58:19Z</time>
      </trkpt>
      <trkpt lat="43.23636" lon="5.5934">
        <ele>381.05859375</ele>
        <time>2020-09-13T08:58:22Z</time>
      </trkpt>
      <trkpt lat="43.23638" lon="5.59379">
        <ele>382.5</ele>
        <time>2020-09-13T08:58:34Z</time>
      </trkpt>
      <trkpt lat="43.2364" lon="5.59414">
        <ele>382.5</ele>
        <time>2020-09-13T08:58:47Z</time>
      </trkpt>
      <trkpt lat="43.23635" lon="5.59443">
        <ele>382.73046875</ele>
        <time>2020-09-13T08:59:02Z</time>
      </trkpt>
      <trkpt lat="43.23629" lon="5.59475">
        <ele>383.8125</ele>
        <time>2020-09-13T08:59:19Z</time>
      </trkpt>
      <trkpt lat="43.23629" lon="5.59477">
        <ele>383.69140625</ele>
        <time>2020-09-13T08:59:20Z</time>
      </trkpt>
      <trkpt lat="43.2363" lon="5.59478">
        <ele>383.5078125</ele>
        <time>2020-09-13T08:59:21Z</time>
      </trkpt>
      <trkpt lat="43.2363" lon="5.5948">
        <ele>383.40625</ele>
        <time>2020-09-13T08:59:22Z</time>
      </trkpt>
      <trkpt lat="43.23627" lon="5.59508">
        <ele>383.05078125</ele>
        <time>2020-09-13T08:59:38Z</time>
      </trkpt>
      <trkpt lat="43.23622" lon="5.59542">
        <ele>383.078125</ele>
        <time>2020-09-13T08:59:53Z</time>
      </trkpt>
      <trkpt lat="43.23619" lon="5.59554">
        <ele>383.30078125</ele>
        <time>2020-09-13T08:59:58Z</time>
      </trkpt>
      <trkpt lat="43.23619" lon="5.59558">
        <ele>383.07421875</ele>
        <time>2020-09-13T08:59:59Z</time>
      </trkpt>
      <trkpt lat="43.23619" lon="5.59562">
        <ele>382.96484375</ele>
        <time>2020-09-13T09:00:00Z</time>
      </trkpt>
      <trkpt lat="43.23618" lon="5.59566">
        <ele>382.890625</ele>
        <time>2020-09-13T09:00:01Z</time>
      </trkpt>
      <trkpt lat="43.23617" lon="5.5957">
        <ele>382.7890625</ele>
        <time>2020-09-13T09:00:02Z</time>
      </trkpt>
      <trkpt lat="43.23611" lon="5.59636">
        <ele>381.16796875</ele>
        <time>2020-09-13T09:00:19Z</time>
      </trkpt>
      <trkpt lat="43.23607" lon="5.59689">
        <ele>381.78125</ele>
        <time>2020-09-13T09:00:33Z</time>
      </trkpt>
      <trkpt lat="43.23612" lon="5.59724">
        <ele>381.7109375</ele>
        <time>2020-09-13T09:00:43Z</time>
      </trkpt>
      <trkpt lat="43.23618" lon="5.59779">
        <ele>386.0390625</ele>
        <time>2020-09-13T09:00:59Z</time>
      </trkpt>
      <trkpt lat="43.2363" lon="5.59822">
        <ele>390.4765625</ele>
        <time>2020-09-13T09:01:13Z</time>
      </trkpt>
      <trkpt lat="43.23653" lon="5.59856">
        <ele>391.5703125</ele>
        <time>2020-09-13T09:01:28Z</time>
      </trkpt>
      <trkpt lat="43.23678" lon="5.59883">
        <ele>396.9140625</ele>
        <time>2020-09-13T09:01:42Z</time>
      </trkpt>
      <trkpt lat="43.23691" lon="5.5991">
        <ele>402.01171875</ele>
        <time>2020-09-13T09:01:56Z</time>
      </trkpt>
      <trkpt lat="43.23694" lon="5.59946">
        <ele>405.51953125</ele>
        <time>2020-09-13T09:02:11Z</time>
      </trkpt>
      <trkpt lat="43.23701" lon="5.59977">
        <ele>408.0625</ele>
        <time>2020-09-13T09:02:26Z</time>
      </trkpt>
      <trkpt lat="43.23709" lon="5.60005">
        <ele>410.1796875</ele>
        <time>2020-09-13T09:02:42Z</time>
      </trkpt>
      <trkpt lat="43.23711" lon="5.6001">
        <ele>410.8984375</ele>
        <time>2020-09-13T09:02:45Z</time>
      </trkpt>
      <trkpt lat="43.23712" lon="5.60012">
        <ele>411.00390625</ele>
        <time>2020-09-13T09:02:46Z</time>
      </trkpt>
      <trkpt lat="43.23724" lon="5.60042">
        <ele>415.05859375</ele>
        <time>2020-09-13T09:03:03Z</time>
      </trkpt>
      <trkpt lat="43.23735" lon="5.60066">
        <ele>418.734375</ele>
        <time>2020-09-13T09:03:17Z</time>
      </trkpt>
      <trkpt lat="43.23743" lon="5.60097">
        <ele>421.5234375</ele>
        <time>2020-09-13T09:03:33Z</time>
      </trkpt>
      <trkpt lat="43.23742" lon="5.60123">
        <ele>421.98046875</ele>
        <time>2020-09-13T09:03:49Z</time>
      </trkpt>
      <trkpt lat="43.23742" lon="5.60123">
        <ele>422.13671875</ele>
        <time>2020-09-13T09:04:11Z</time>
      </trkpt>
      <trkpt lat="43.23741" lon="5.60124">
        <ele>421.90234375</ele>
        <time>2020-09-13T09:04:26Z</time>
      </trkpt>
      <trkpt lat="43.23741" lon="5.60126">
        <ele>421.79296875</ele>
        <time>2020-09-13T09:04:27Z</time>
      </trkpt>
      <trkpt lat="43.2374" lon="5.60127">
        <ele>421.65234375</ele>
        <time>2020-09-13T09:04:28Z</time>
      </trkpt>
      <trkpt lat="43.23739" lon="5.60129">
        <ele>421.6015625</ele>
        <time>2020-09-13T09:04:29Z</time>
      </trkpt>
      <trkpt lat="43.23739" lon="5.6013">
        <ele>421.546875</ele>
        <time>2020-09-13T09:04:30Z</time>
      </trkpt>
      <trkpt lat="43.23738" lon="5.60132">
        <ele>421.45703125</ele>
        <time>2020-09-13T09:04:31Z</time>
      </trkpt>
      <trkpt lat="43.23737" lon="5.60134">
        <ele>421.33203125</ele>
        <time>2020-09-13T09:04:32Z</time>
      </trkpt>
      <trkpt lat="43.23737" lon="5.60136">
        <ele>421.2109375</ele>
        <time>2020-09-13T09:04:33Z</time>
      </trkpt>
      <trkpt lat="43.23737" lon="5.60143">
        <ele>421.32421875</ele>
        <time>2020-09-13T09:04:36Z</time>
      </trkpt>
      <trkpt lat="43.23738" lon="5.60145">
        <ele>421.4609375</ele>
        <time>2020-09-13T09:04:37Z</time>
      </trkpt>
      <trkpt lat="43.23738" lon="5.60147">
        <ele>421.49609375</ele>
        <time>2020-09-13T09:04:38Z</time>
      </trkpt>
      <trkpt lat="43.23737" lon="5.60149">
        <ele>421.453125</ele>
        <time>2020-09-13T09:04:39Z</time>
      </trkpt>
      <trkpt lat="43.23736" lon="5.60152">
        <ele>421.3203125</ele>
        <time>2020-09-13T09:04:40Z</time>
      </trkpt>
      <trkpt lat="43.23735" lon="5.60155">
        <ele>421.1640625</ele>
        <time>2020-09-13T09:04:41Z</time>
      </trkpt>
      <trkpt lat="43.23734" lon="5.60158">
        <ele>421.04296875</ele>
        <time>2020-09-13T09:04:42Z</time>
      </trkpt>
      <trkpt lat="43.23715" lon="5.60191">
        <ele>419.09765625</ele>
        <time>2020-09-13T09:04:56Z</time>
      </trkpt>
      <trkpt lat="43.23692" lon="5.60226">
        <ele>417.63671875</ele>
        <time>2020-09-13T09:05:13Z</time>
      </trkpt>
      <trkpt lat="43.23683" lon="5.60243">
        <ele>418.0234375</ele>
        <time>2020-09-13T09:05:24Z</time>
      </trkpt>
      <trkpt lat="43.23681" lon="5.6024">
        <ele>418.203125</ele>
        <time>2020-09-13T09:05:36Z</time>
      </trkpt>
      <trkpt lat="43.23682" lon="5.60243">
        <ele>418.12890625</ele>
        <time>2020-09-13T09:06:02Z</time>
      </trkpt>
      <trkpt lat="43.23683" lon="5.60246">
        <ele>417.76953125</ele>
        <time>2020-09-13T09:06:33Z</time>
      </trkpt>
      <trkpt lat="43.2367" lon="5.60265">
        <ele>417.25</ele>
        <time>2020-09-13T09:06:44Z</time>
      </trkpt>
      <trkpt lat="43.23669" lon="5.6028">
        <ele>415.765625</ele>
        <time>2020-09-13T09:06:55Z</time>
      </trkpt>
      <trkpt lat="43.23672" lon="5.60279">
        <ele>415.875</ele>
        <time>2020-09-13T09:07:23Z</time>
      </trkpt>
      <trkpt lat="43.23672" lon="5.60281">
        <ele>415.6484375</ele>
        <time>2020-09-13T09:07:24Z</time>
      </trkpt>
      <trkpt lat="43.23672" lon="5.60283">
        <ele>415.44140625</ele>
        <time>2020-09-13T09:07:25Z</time>
      </trkpt>
      <trkpt lat="43.23671" lon="5.60287">
        <ele>415.08203125</ele>
        <time>2020-09-13T09:07:37Z</time>
      </trkpt>
      <trkpt lat="43.23671" lon="5.60288">
        <ele>415.046875</ele>
        <time>2020-09-13T09:07:59Z</time>
      </trkpt>
      <trkpt lat="43.2367" lon="5.60287">
        <ele>415.05078125</ele>
        <time>2020-09-13T09:08:16Z</time>
      </trkpt>
      <trkpt lat="43.23671" lon="5.60289">
        <ele>414.92578125</ele>
        <time>2020-09-13T09:08:17Z</time>
      </trkpt>
      <trkpt lat="43.23673" lon="5.60291">
        <ele>414.54296875</ele>
        <time>2020-09-13T09:08:18Z</time>
      </trkpt>
      <trkpt lat="43.23675" lon="5.60293">
        <ele>414.109375</ele>
        <time>2020-09-13T09:08:19Z</time>
      </trkpt>
      <trkpt lat="43.23677" lon="5.60295">
        <ele>413.6640625</ele>
        <time>2020-09-13T09:08:20Z</time>
      </trkpt>
      <trkpt lat="43.2368" lon="5.60296">
        <ele>413.19921875</ele>
        <time>2020-09-13T09:08:21Z</time>
      </trkpt>
      <trkpt lat="43.23683" lon="5.60298">
        <ele>412.69140625</ele>
        <time>2020-09-13T09:08:22Z</time>
      </trkpt>
      <trkpt lat="43.23696" lon="5.60312">
        <ele>409.70703125</ele>
        <time>2020-09-13T09:08:28Z</time>
      </trkpt>
      <trkpt lat="43.23699" lon="5.60317">
        <ele>408.88671875</ele>
        <time>2020-09-13T09:08:29Z</time>
      </trkpt>
      <trkpt lat="43.23702" lon="5.60323">
        <ele>407.796875</ele>
        <time>2020-09-13T09:08:30Z</time>
      </trkpt>
      <trkpt lat="43.23703" lon="5.60329">
        <ele>406.91796875</ele>
        <time>2020-09-13T09:08:31Z</time>
      </trkpt>
      <trkpt lat="43.23705" lon="5.60336">
        <ele>406.09375</ele>
        <time>2020-09-13T09:08:32Z</time>
      </trkpt>
      <trkpt lat="43.23707" lon="5.60344">
        <ele>405.19921875</ele>
        <time>2020-09-13T09:08:33Z</time>
      </trkpt>
      <trkpt lat="43.23709" lon="5.60353">
        <ele>404.23046875</ele>
        <time>2020-09-13T09:08:34Z</time>
      </trkpt>
      <trkpt lat="43.23713" lon="5.60373">
        <ele>403.51171875</ele>
        <time>2020-09-13T09:08:36Z</time>
      </trkpt>
      <trkpt lat="43.23722" lon="5.6044">
        <ele>408.37890625</ele>
        <time>2020-09-13T09:08:43Z</time>
      </trkpt>
      <trkpt lat="43.23738" lon="5.60486">
        <ele>411.48828125</ele>
        <time>2020-09-13T09:08:53Z</time>
      </trkpt>
      <trkpt lat="43.23753" lon="5.6052">
        <ele>414.0625</ele>
        <time>2020-09-13T09:09:06Z</time>
      </trkpt>
      <trkpt lat="43.23767" lon="5.60544">
        <ele>413.83984375</ele>
        <time>2020-09-13T09:09:18Z</time>
      </trkpt>
      <trkpt lat="43.23794" lon="5.60576">
        <ele>412.7578125</ele>
        <time>2020-09-13T09:09:32Z</time>
      </trkpt>
      <trkpt lat="43.23811" lon="5.60611">
        <ele>410.90625</ele>
        <time>2020-09-13T09:09:42Z</time>
      </trkpt>
      <trkpt lat="43.23823" lon="5.60637">
        <ele>409.92578125</ele>
        <time>2020-09-13T09:09:49Z</time>
      </trkpt>
      <trkpt lat="43.23854" lon="5.60676">
        <ele>410.45703125</ele>
        <time>2020-09-13T09:09:55Z</time>
      </trkpt>
      <trkpt lat="43.23858" lon="5.60684">
        <ele>411.08984375</ele>
        <time>2020-09-13T09:09:56Z</time>
      </trkpt>
      <trkpt lat="43.23861" lon="5.60693">
        <ele>411.4453125</ele>
        <time>2020-09-13T09:09:57Z</time>
      </trkpt>
      <trkpt lat="43.23864" lon="5.60702">
        <ele>411.8203125</ele>
        <time>2020-09-13T09:09:58Z</time>
      </trkpt>
      <trkpt lat="43.23868" lon="5.6071">
        <ele>412.19140625</ele>
        <time>2020-09-13T09:09:59Z</time>
      </trkpt>
      <trkpt lat="43.23882" lon="5.60742">
        <ele>411.7421875</ele>
        <time>2020-09-13T09:10:03Z</time>
      </trkpt>
      <trkpt lat="43.23887" lon="5.60748">
        <ele>411.6953125</ele>
        <time>2020-09-13T09:10:04Z</time>
      </trkpt>
      <trkpt lat="43.23892" lon="5.60754">
        <ele>411.90234375</ele>
        <time>2020-09-13T09:10:05Z</time>
      </trkpt>
      <trkpt lat="43.23896" lon="5.60757">
        <ele>412.36328125</ele>
        <time>2020-09-13T09:10:06Z</time>
      </trkpt>
      <trkpt lat="43.23901" lon="5.60758">
        <ele>412.9609375</ele>
        <time>2020-09-13T09:10:07Z</time>
      </trkpt>
      <trkpt lat="43.23904" lon="5.60757">
        <ele>413.51171875</ele>
        <time>2020-09-13T09:10:08Z</time>
      </trkpt>
      <trkpt lat="43.23928" lon="5.60762">
        <ele>416.765625</ele>
        <time>2020-09-13T09:10:19Z</time>
      </trkpt>
      <trkpt lat="43.23951" lon="5.6077">
        <ele>420.19921875</ele>
        <time>2020-09-13T09:10:33Z</time>
      </trkpt>
      <trkpt lat="43.23973" lon="5.60781">
        <ele>422.75</ele>
        <time>2020-09-13T09:10:47Z</time>
      </trkpt>
      <trkpt lat="43.23982" lon="5.6079">
        <ele>424.8984375</ele>
        <time>2020-09-13T09:10:55Z</time>
      </trkpt>
      <trkpt lat="43.23983" lon="5.60792">
        <ele>425.2890625</ele>
        <time>2020-09-13T09:10:56Z</time>
      </trkpt>
      <trkpt lat="43.23984" lon="5.60794">
        <ele>425.66015625</ele>
        <time>2020-09-13T09:10:57Z</time>
      </trkpt>
      <trkpt lat="43.23985" lon="5.60795">
        <ele>425.99609375</ele>
        <time>2020-09-13T09:10:58Z</time>
      </trkpt>
      <trkpt lat="43.23987" lon="5.60796">
        <ele>426.26953125</ele>
        <time>2020-09-13T09:10:59Z</time>
      </trkpt>
      <trkpt lat="43.23988" lon="5.60797">
        <ele>426.609375</ele>
        <time>2020-09-13T09:11:00Z</time>
      </trkpt>
      <trkpt lat="43.24001" lon="5.60812">
        <ele>430.98828125</ele>
        <time>2020-09-13T09:11:12Z</time>
      </trkpt>
      <trkpt lat="43.24015" lon="5.60833">
        <ele>435.5546875</ele>
        <time>2020-09-13T09:11:28Z</time>
      </trkpt>
      <trkpt lat="43.24015" lon="5.60834">
        <ele>435.8125</ele>
        <time>2020-09-13T09:11:29Z</time>
      </trkpt>
      <trkpt lat="43.24016" lon="5.60836">
        <ele>436.08203125</ele>
        <time>2020-09-13T09:11:30Z</time>
      </trkpt>
      <trkpt lat="43.24016" lon="5.60837">
        <ele>436.33984375</ele>
        <time>2020-09-13T09:11:31Z</time>
      </trkpt>
      <trkpt lat="43.24017" lon="5.60839">
        <ele>436.65234375</ele>
        <time>2020-09-13T09:11:32Z</time>
      </trkpt>
      <trkpt lat="43.24017" lon="5.60841">
        <ele>436.984375</ele>
        <time>2020-09-13T09:11:33Z</time>
      </trkpt>
      <trkpt lat="43.24018" lon="5.60843">
        <ele>437.3046875</ele>
        <time>2020-09-13T09:11:34Z</time>
      </trkpt>
      <trkpt lat="43.24018" lon="5.60844">
        <ele>437.625</ele>
        <time>2020-09-13T09:11:35Z</time>
      </trkpt>
      <trkpt lat="43.24018" lon="5.60846">
        <ele>437.9453125</ele>
        <time>2020-09-13T09:11:36Z</time>
      </trkpt>
      <trkpt lat="43.24019" lon="5.60848">
        <ele>438.296875</ele>
        <time>2020-09-13T09:11:37Z</time>
      </trkpt>
      <trkpt lat="43.24025" lon="5.60878">
        <ele>442.1953125</ele>
        <time>2020-09-13T09:11:54Z</time>
      </trkpt>
      <trkpt lat="43.24028" lon="5.60909">
        <ele>444.93359375</ele>
        <time>2020-09-13T09:12:12Z</time>
      </trkpt>
      <trkpt lat="43.24032" lon="5.60935">
        <ele>446.0234375</ele>
        <time>2020-09-13T09:12:27Z</time>
      </trkpt>
      <trkpt lat="43.24034" lon="5.60941">
        <ele>445.96484375</ele>
        <time>2020-09-13T09:12:31Z</time>
      </trkpt>
      <trkpt lat="43.24042" lon="5.60967">
        <ele>446.16015625</ele>
        <time>2020-09-13T09:12:46Z</time>
      </trkpt>
      <trkpt lat="43.2406" lon="5.60993">
        <ele>448.03125</ele>
        <time>2020-09-13T09:13:06Z</time>
      </trkpt>
      <trkpt lat="43.24071" lon="5.61005">
        <ele>449.55859375</ele>
        <time>2020-09-13T09:13:20Z</time>
      </trkpt>
      <trkpt lat="43.2407" lon="5.61006">
        <ele>449.3671875</ele>
        <time>2020-09-13T09:13:45Z</time>
      </trkpt>
      <trkpt lat="43.24078" lon="5.61016">
        <ele>450.22265625</ele>
        <time>2020-09-13T09:14:03Z</time>
      </trkpt>
      <trkpt lat="43.24096" lon="5.61038">
        <ele>451.390625</ele>
        <time>2020-09-13T09:14:19Z</time>
      </trkpt>
      <trkpt lat="43.24114" lon="5.61061">
        <ele>451.83203125</ele>
        <time>2020-09-13T09:14:37Z</time>
      </trkpt>
      <trkpt lat="43.2413" lon="5.61084">
        <ele>453.03125</ele>
        <time>2020-09-13T09:14:54Z</time>
      </trkpt>
      <trkpt lat="43.24142" lon="5.61097">
        <ele>455.625</ele>
        <time>2020-09-13T09:15:06Z</time>
      </trkpt>
      <trkpt lat="43.24143" lon="5.61099">
        <ele>455.8671875</ele>
        <time>2020-09-13T09:15:07Z</time>
      </trkpt>
      <trkpt lat="43.24159" lon="5.61115">
        <ele>456.703125</ele>
        <time>2020-09-13T09:15:22Z</time>
      </trkpt>
      <trkpt lat="43.24173" lon="5.61133">
        <ele>459.390625</ele>
        <time>2020-09-13T09:15:37Z</time>
      </trkpt>
      <trkpt lat="43.24188" lon="5.61157">
        <ele>462.70703125</ele>
        <time>2020-09-13T09:15:56Z</time>
      </trkpt>
      <trkpt lat="43.24189" lon="5.61158">
        <ele>462.953125</ele>
        <time>2020-09-13T09:15:57Z</time>
      </trkpt>
      <trkpt lat="43.2419" lon="5.6116">
        <ele>463.1484375</ele>
        <time>2020-09-13T09:15:58Z</time>
      </trkpt>
      <trkpt lat="43.24191" lon="5.61162">
        <ele>463.34375</ele>
        <time>2020-09-13T09:15:59Z</time>
      </trkpt>
      <trkpt lat="43.24191" lon="5.61163">
        <ele>463.54296875</ele>
        <time>2020-09-13T09:16:00Z</time>
      </trkpt>
      <trkpt lat="43.24192" lon="5.61164">
        <ele>463.7265625</ele>
        <time>2020-09-13T09:16:01Z</time>
      </trkpt>
      <trkpt lat="43.24193" lon="5.61166">
        <ele>463.90625</ele>
        <time>2020-09-13T09:16:02Z</time>
      </trkpt>
      <trkpt lat="43.24194" lon="5.61167">
        <ele>464.13671875</ele>
        <time>2020-09-13T09:16:03Z</time>
      </trkpt>
      <trkpt lat="43.24194" lon="5.61169">
        <ele>464.37109375</ele>
        <time>2020-09-13T09:16:04Z</time>
      </trkpt>
      <trkpt lat="43.24195" lon="5.6117">
        <ele>464.6171875</ele>
        <time>2020-09-13T09:16:05Z</time>
      </trkpt>
      <trkpt lat="43.24196" lon="5.61172">
        <ele>464.859375</ele>
        <time>2020-09-13T09:16:06Z</time>
      </trkpt>
      <trkpt lat="43.24197" lon="5.61173">
        <ele>465.07421875</ele>
        <time>2020-09-13T09:16:07Z</time>
      </trkpt>
      <trkpt lat="43.24198" lon="5.61174">
        <ele>465.29296875</ele>
        <time>2020-09-13T09:16:08Z</time>
      </trkpt>
      <trkpt lat="43.24198" lon="5.61175">
        <ele>465.5546875</ele>
        <time>2020-09-13T09:16:09Z</time>
      </trkpt>
      <trkpt lat="43.24199" lon="5.61176">
        <ele>465.72265625</ele>
        <time>2020-09-13T09:16:10Z</time>
      </trkpt>
      <trkpt lat="43.242" lon="5.61178">
        <ele>465.86328125</ele>
        <time>2020-09-13T09:16:11Z</time>
      </trkpt>
      <trkpt lat="43.24201" lon="5.61179">
        <ele>465.9921875</ele>
        <time>2020-09-13T09:16:12Z</time>
      </trkpt>
      <trkpt lat="43.24209" lon="5.61196">
        <ele>466.81640625</ele>
        <time>2020-09-13T09:16:23Z</time>
      </trkpt>
      <trkpt lat="43.2421" lon="5.61197">
        <ele>466.9296875</ele>
        <time>2020-09-13T09:16:24Z</time>
      </trkpt>
      <trkpt lat="43.24211" lon="5.61198">
        <ele>466.99609375</ele>
        <time>2020-09-13T09:16:25Z</time>
      </trkpt>
      <trkpt lat="43.24212" lon="5.612">
        <ele>467.0390625</ele>
        <time>2020-09-13T09:16:26Z</time>
      </trkpt>
      <trkpt lat="43.24212" lon="5.61202">
        <ele>467.10546875</ele>
        <time>2020-09-13T09:16:27Z</time>
      </trkpt>
      <trkpt lat="43.24213" lon="5.61203">
        <ele>467.21484375</ele>
        <time>2020-09-13T09:16:28Z</time>
      </trkpt>
      <trkpt lat="43.24225" lon="5.61229">
        <ele>469.13671875</ele>
        <time>2020-09-13T09:16:43Z</time>
      </trkpt>
      <trkpt lat="43.24241" lon="5.61254">
        <ele>472.09375</ele>
        <time>2020-09-13T09:16:58Z</time>
      </trkpt>
      <trkpt lat="43.24258" lon="5.61282">
        <ele>477.1953125</ele>
        <time>2020-09-13T09:17:16Z</time>
      </trkpt>
      <trkpt lat="43.24264" lon="5.6131">
        <ele>480.015625</ele>
        <time>2020-09-13T09:17:29Z</time>
      </trkpt>
      <trkpt lat="43.24264" lon="5.61312">
        <ele>480.18359375</ele>
        <time>2020-09-13T09:17:30Z</time>
      </trkpt>
      <trkpt lat="43.24264" lon="5.61314">
        <ele>480.32421875</ele>
        <time>2020-09-13T09:17:31Z</time>
      </trkpt>
      <trkpt lat="43.24259" lon="5.61348">
        <ele>480.8203125</ele>
        <time>2020-09-13T09:17:46Z</time>
      </trkpt>
      <trkpt lat="43.24249" lon="5.61384">
        <ele>479.98828125</ele>
        <time>2020-09-13T09:18:02Z</time>
      </trkpt>
      <trkpt lat="43.2425" lon="5.61422">
        <ele>479.203125</ele>
        <time>2020-09-13T09:18:14Z</time>
      </trkpt>
      <trkpt lat="43.24254" lon="5.61426">
        <ele>479.671875</ele>
        <time>2020-09-13T09:18:16Z</time>
      </trkpt>
      <trkpt lat="43.24257" lon="5.61429">
        <ele>479.9765625</ele>
        <time>2020-09-13T09:18:18Z</time>
      </trkpt>
      <trkpt lat="43.24257" lon="5.61431">
        <ele>479.85546875</ele>
        <time>2020-09-13T09:18:19Z</time>
      </trkpt>
      <trkpt lat="43.24257" lon="5.61443">
        <ele>479.04296875</ele>
        <time>2020-09-13T09:18:30Z</time>
      </trkpt>
      <trkpt lat="43.24257" lon="5.61457">
        <ele>477.84765625</ele>
        <time>2020-09-13T09:18:56Z</time>
      </trkpt>
      <trkpt lat="43.24256" lon="5.6146">
        <ele>477.52734375</ele>
        <time>2020-09-13T09:19:06Z</time>
      </trkpt>
      <trkpt lat="43.24253" lon="5.6146">
        <ele>477.1796875</ele>
        <time>2020-09-13T09:19:36Z</time>
      </trkpt>
      <trkpt lat="43.24253" lon="5.61461">
        <ele>477.015625</ele>
        <time>2020-09-13T09:20:13Z</time>
      </trkpt>
      <trkpt lat="43.24259" lon="5.61458">
        <ele>478.16796875</ele>
        <time>2020-09-13T09:21:05Z</time>
      </trkpt>
      <trkpt lat="43.24258" lon="5.61461">
        <ele>477.765625</ele>
        <time>2020-09-13T09:21:52Z</time>
      </trkpt>
      <trkpt lat="43.24255" lon="5.61462">
        <ele>477.25390625</ele>
        <time>2020-09-13T09:22:41Z</time>
      </trkpt>
      <trkpt lat="43.24255" lon="5.6146">
        <ele>477.31640625</ele>
        <time>2020-09-13T09:23:21Z</time>
      </trkpt>
      <trkpt lat="43.24257" lon="5.61459">
        <ele>477.7109375</ele>
        <time>2020-09-13T09:23:56Z</time>
      </trkpt>
      <trkpt lat="43.24257" lon="5.61458">
        <ele>477.83984375</ele>
        <time>2020-09-13T09:24:31Z</time>
      </trkpt>
      <trkpt lat="43.24257" lon="5.6146">
        <ele>477.6640625</ele>
        <time>2020-09-13T09:25:20Z</time>
      </trkpt>
      <trkpt lat="43.24257" lon="5.61459">
        <ele>477.78515625</ele>
        <time>2020-09-13T09:25:59Z</time>
      </trkpt>
      <trkpt lat="43.24258" lon="5.6146">
        <ele>477.796875</ele>
        <time>2020-09-13T09:26:32Z</time>
      </trkpt>
      <trkpt lat="43.24259" lon="5.6146">
        <ele>478</ele>
        <time>2020-09-13T09:27:16Z</time>
      </trkpt>
      <trkpt lat="43.24258" lon="5.6146">
        <ele>477.79296875</ele>
        <time>2020-09-13T09:27:54Z</time>
      </trkpt>
      <trkpt lat="43.24259" lon="5.61459">
        <ele>478.02734375</ele>
        <time>2020-09-13T09:28:24Z</time>
      </trkpt>
      <trkpt lat="43.2426" lon="5.61456">
        <ele>478.375</ele>
        <time>2020-09-13T09:28:54Z</time>
      </trkpt>
      <trkpt lat="43.24263" lon="5.61459">
        <ele>478.609375</ele>
        <time>2020-09-13T09:29:01Z</time>
      </trkpt>
      <trkpt lat="43.24264" lon="5.6146">
        <ele>478.6640625</ele>
        <time>2020-09-13T09:29:02Z</time>
      </trkpt>
      <trkpt lat="43.24265" lon="5.6146">
        <ele>478.8046875</ele>
        <time>2020-09-13T09:29:03Z</time>
      </trkpt>
      <trkpt lat="43.24266" lon="5.6146">
        <ele>479</ele>
        <time>2020-09-13T09:29:04Z</time>
      </trkpt>
      <trkpt lat="43.24267" lon="5.6146">
        <ele>479.15234375</ele>
        <time>2020-09-13T09:29:05Z</time>
      </trkpt>
      <trkpt lat="43.24268" lon="5.61461">
        <ele>479.25</ele>
        <time>2020-09-13T09:29:06Z</time>
      </trkpt>
      <trkpt lat="43.24269" lon="5.61462">
        <ele>479.296875</ele>
        <time>2020-09-13T09:29:07Z</time>
      </trkpt>
      <trkpt lat="43.2427" lon="5.61463">
        <ele>479.37109375</ele>
        <time>2020-09-13T09:29:08Z</time>
      </trkpt>
      <trkpt lat="43.24296" lon="5.61489">
        <ele>478.30859375</ele>
        <time>2020-09-13T09:29:25Z</time>
      </trkpt>
      <trkpt lat="43.24328" lon="5.61501">
        <ele>478.73828125</ele>
        <time>2020-09-13T09:29:41Z</time>
      </trkpt>
      <trkpt lat="43.2437" lon="5.61498">
        <ele>473.203125</ele>
        <time>2020-09-13T09:29:57Z</time>
      </trkpt>
      <trkpt lat="43.24388" lon="5.61493">
        <ele>466.94921875</ele>
        <time>2020-09-13T09:30:06Z</time>
      </trkpt>
      <trkpt lat="43.24388" lon="5.61491">
        <ele>466.87109375</ele>
        <time>2020-09-13T09:30:23Z</time>
      </trkpt>
      <trkpt lat="43.24388" lon="5.61491">
        <ele>466.74609375</ele>
        <time>2020-09-13T09:30:53Z</time>
      </trkpt>
      <trkpt lat="43.24387" lon="5.61492">
        <ele>467.24609375</ele>
        <time>2020-09-13T09:31:25Z</time>
      </trkpt>
      <trkpt lat="43.24385" lon="5.61493">
        <ele>467.72265625</ele>
        <time>2020-09-13T09:31:31Z</time>
      </trkpt>
      <trkpt lat="43.2438" lon="5.61499">
        <ele>469.59375</ele>
        <time>2020-09-13T09:31:35Z</time>
      </trkpt>
      <trkpt lat="43.24377" lon="5.61503">
        <ele>470.43359375</ele>
        <time>2020-09-13T09:31:36Z</time>
      </trkpt>
      <trkpt lat="43.24375" lon="5.61508">
        <ele>471.18359375</ele>
        <time>2020-09-13T09:31:37Z</time>
      </trkpt>
      <trkpt lat="43.24373" lon="5.61514">
        <ele>471.6015625</ele>
        <time>2020-09-13T09:31:38Z</time>
      </trkpt>
      <trkpt lat="43.24372" lon="5.61521">
        <ele>471.74609375</ele>
        <time>2020-09-13T09:31:39Z</time>
      </trkpt>
      <trkpt lat="43.24372" lon="5.61527">
        <ele>471.8828125</ele>
        <time>2020-09-13T09:31:40Z</time>
      </trkpt>
      <trkpt lat="43.24373" lon="5.61534">
        <ele>471.91015625</ele>
        <time>2020-09-13T09:31:41Z</time>
      </trkpt>
      <trkpt lat="43.2438" lon="5.61602">
        <ele>473.79296875</ele>
        <time>2020-09-13T09:31:53Z</time>
      </trkpt>
      <trkpt lat="43.24386" lon="5.6165">
        <ele>477.00390625</ele>
        <time>2020-09-13T09:32:05Z</time>
      </trkpt>
      <trkpt lat="43.24382" lon="5.61695">
        <ele>474.91015625</ele>
        <time>2020-09-13T09:32:14Z</time>
      </trkpt>
      <trkpt lat="43.24376" lon="5.61713">
        <ele>473.76953125</ele>
        <time>2020-09-13T09:32:17Z</time>
      </trkpt>
      <trkpt lat="43.24373" lon="5.6172">
        <ele>473.078125</ele>
        <time>2020-09-13T09:32:18Z</time>
      </trkpt>
      <trkpt lat="43.24366" lon="5.61734">
        <ele>471.83203125</ele>
        <time>2020-09-13T09:32:20Z</time>
      </trkpt>
      <trkpt lat="43.24358" lon="5.61757">
        <ele>469.19921875</ele>
        <time>2020-09-13T09:32:23Z</time>
      </trkpt>
      <trkpt lat="43.24355" lon="5.61765">
        <ele>468.3984375</ele>
        <time>2020-09-13T09:32:24Z</time>
      </trkpt>
      <trkpt lat="43.24339" lon="5.61814">
        <ele>463.25</ele>
        <time>2020-09-13T09:32:29Z</time>
      </trkpt>
      <trkpt lat="43.2433" lon="5.61846">
        <ele>460.1328125</ele>
        <time>2020-09-13T09:32:32Z</time>
      </trkpt>
      <trkpt lat="43.24324" lon="5.61863">
        <ele>459.4375</ele>
        <time>2020-09-13T09:32:34Z</time>
      </trkpt>
      <trkpt lat="43.24321" lon="5.6187">
        <ele>459.453125</ele>
        <time>2020-09-13T09:32:35Z</time>
      </trkpt>
      <trkpt lat="43.24314" lon="5.61885">
        <ele>459.72265625</ele>
        <time>2020-09-13T09:32:37Z</time>
      </trkpt>
      <trkpt lat="43.24311" lon="5.61894">
        <ele>459.72265625</ele>
        <time>2020-09-13T09:32:38Z</time>
      </trkpt>
      <trkpt lat="43.24309" lon="5.61903">
        <ele>459.4765625</ele>
        <time>2020-09-13T09:32:39Z</time>
      </trkpt>
      <trkpt lat="43.24307" lon="5.61913">
        <ele>459.046875</ele>
        <time>2020-09-13T09:32:40Z</time>
      </trkpt>
      <trkpt lat="43.24306" lon="5.61923">
        <ele>458.62890625</ele>
        <time>2020-09-13T09:32:41Z</time>
      </trkpt>
      <trkpt lat="43.24303" lon="5.61943">
        <ele>458.2734375</ele>
        <time>2020-09-13T09:32:43Z</time>
      </trkpt>
      <trkpt lat="43.24299" lon="5.61962">
        <ele>458.65234375</ele>
        <time>2020-09-13T09:32:45Z</time>
      </trkpt>
      <trkpt lat="43.24287" lon="5.62004">
        <ele>460.6015625</ele>
        <time>2020-09-13T09:32:50Z</time>
      </trkpt>
      <trkpt lat="43.24251" lon="5.62121">
        <ele>464</ele>
        <time>2020-09-13T09:33:06Z</time>
      </trkpt>
      <trkpt lat="43.2424" lon="5.62181">
        <ele>462.64453125</ele>
        <time>2020-09-13T09:33:13Z</time>
      </trkpt>
      <trkpt lat="43.24229" lon="5.62241">
        <ele>459.00390625</ele>
        <time>2020-09-13T09:33:19Z</time>
      </trkpt>
      <trkpt lat="43.24226" lon="5.62249">
        <ele>458.078125</ele>
        <time>2020-09-13T09:33:20Z</time>
      </trkpt>
      <trkpt lat="43.24208" lon="5.62305">
        <ele>450.6796875</ele>
        <time>2020-09-13T09:33:26Z</time>
      </trkpt>
      <trkpt lat="43.24205" lon="5.62313">
        <ele>449.55078125</ele>
        <time>2020-09-13T09:33:27Z</time>
      </trkpt>
      <trkpt lat="43.24202" lon="5.62322">
        <ele>448.3515625</ele>
        <time>2020-09-13T09:33:28Z</time>
      </trkpt>
      <trkpt lat="43.242" lon="5.62331">
        <ele>447.03125</ele>
        <time>2020-09-13T09:33:29Z</time>
      </trkpt>
      <trkpt lat="43.24199" lon="5.6234">
        <ele>445.7421875</ele>
        <time>2020-09-13T09:33:30Z</time>
      </trkpt>
      <trkpt lat="43.24198" lon="5.62349">
        <ele>444.484375</ele>
        <time>2020-09-13T09:33:31Z</time>
      </trkpt>
      <trkpt lat="43.24197" lon="5.62357">
        <ele>443.19921875</ele>
        <time>2020-09-13T09:33:32Z</time>
      </trkpt>
      <trkpt lat="43.24194" lon="5.62364">
        <ele>442.0390625</ele>
        <time>2020-09-13T09:33:33Z</time>
      </trkpt>
      <trkpt lat="43.24191" lon="5.62372">
        <ele>441.12890625</ele>
        <time>2020-09-13T09:33:34Z</time>
      </trkpt>
      <trkpt lat="43.2418" lon="5.62397">
        <ele>439.296875</ele>
        <time>2020-09-13T09:33:37Z</time>
      </trkpt>
      <trkpt lat="43.24178" lon="5.62407">
        <ele>438.83203125</ele>
        <time>2020-09-13T09:33:38Z</time>
      </trkpt>
      <trkpt lat="43.24176" lon="5.62417">
        <ele>438.41796875</ele>
        <time>2020-09-13T09:33:39Z</time>
      </trkpt>
      <trkpt lat="43.24174" lon="5.62428">
        <ele>437.92578125</ele>
        <time>2020-09-13T09:33:40Z</time>
      </trkpt>
      <trkpt lat="43.24169" lon="5.62482">
        <ele>439.5078125</ele>
        <time>2020-09-13T09:33:46Z</time>
      </trkpt>
      <trkpt lat="43.24167" lon="5.62488">
        <ele>440.11328125</ele>
        <time>2020-09-13T09:33:47Z</time>
      </trkpt>
      <trkpt lat="43.24166" lon="5.62495">
        <ele>440.7890625</ele>
        <time>2020-09-13T09:33:48Z</time>
      </trkpt>
      <trkpt lat="43.24165" lon="5.62502">
        <ele>441.4609375</ele>
        <time>2020-09-13T09:33:49Z</time>
      </trkpt>
      <trkpt lat="43.24164" lon="5.62508">
        <ele>442.0546875</ele>
        <time>2020-09-13T09:33:50Z</time>
      </trkpt>
      <trkpt lat="43.24164" lon="5.62514">
        <ele>442.59375</ele>
        <time>2020-09-13T09:33:51Z</time>
      </trkpt>
      <trkpt lat="43.24164" lon="5.6252">
        <ele>443.1484375</ele>
        <time>2020-09-13T09:33:52Z</time>
      </trkpt>
      <trkpt lat="43.24164" lon="5.62526">
        <ele>443.76171875</ele>
        <time>2020-09-13T09:33:53Z</time>
      </trkpt>
      <trkpt lat="43.24167" lon="5.62591">
        <ele>450.67578125</ele>
        <time>2020-09-13T09:34:07Z</time>
      </trkpt>
      <trkpt lat="43.24176" lon="5.62635">
        <ele>454.359375</ele>
        <time>2020-09-13T09:34:21Z</time>
      </trkpt>
      <trkpt lat="43.2419" lon="5.62668">
        <ele>455.69921875</ele>
        <time>2020-09-13T09:34:33Z</time>
      </trkpt>
      <trkpt lat="43.24207" lon="5.62689">
        <ele>456.91796875</ele>
        <time>2020-09-13T09:34:45Z</time>
      </trkpt>
      <trkpt lat="43.24225" lon="5.62715">
        <ele>458.69921875</ele>
        <time>2020-09-13T09:34:59Z</time>
      </trkpt>
      <trkpt lat="43.24234" lon="5.62734">
        <ele>458.38671875</ele>
        <time>2020-09-13T09:35:10Z</time>
      </trkpt>
      <trkpt lat="43.24248" lon="5.6276">
        <ele>457.90625</ele>
        <time>2020-09-13T09:35:26Z</time>
      </trkpt>
      <trkpt lat="43.24262" lon="5.62784">
        <ele>457.7109375</ele>
        <time>2020-09-13T09:35:42Z</time>
      </trkpt>
      <trkpt lat="43.24276" lon="5.62801">
        <ele>457.22265625</ele>
        <time>2020-09-13T09:35:57Z</time>
      </trkpt>
      <trkpt lat="43.24279" lon="5.62806">
        <ele>457.1171875</ele>
        <time>2020-09-13T09:36:03Z</time>
      </trkpt>
      <trkpt lat="43.24279" lon="5.62808">
        <ele>457.09375</ele>
        <time>2020-09-13T09:36:04Z</time>
      </trkpt>
      <trkpt lat="43.2428" lon="5.6281">
        <ele>457.0625</ele>
        <time>2020-09-13T09:36:05Z</time>
      </trkpt>
      <trkpt lat="43.24283" lon="5.62852">
        <ele>455.66015625</ele>
        <time>2020-09-13T09:36:15Z</time>
      </trkpt>
      <trkpt lat="43.24264" lon="5.62909">
        <ele>456.94140625</ele>
        <time>2020-09-13T09:36:30Z</time>
      </trkpt>
      <trkpt lat="43.24253" lon="5.62954">
        <ele>461.171875</ele>
        <time>2020-09-13T09:36:43Z</time>
      </trkpt>
      <trkpt lat="43.24245" lon="5.62989">
        <ele>464.875</ele>
        <time>2020-09-13T09:36:54Z</time>
      </trkpt>
      <trkpt lat="43.24241" lon="5.63006">
        <ele>466.515625</ele>
        <time>2020-09-13T09:37:00Z</time>
      </trkpt>
      <trkpt lat="43.24235" lon="5.63029">
        <ele>469.015625</ele>
        <time>2020-09-13T09:37:09Z</time>
      </trkpt>
      <trkpt lat="43.24233" lon="5.63043">
        <ele>470.31640625</ele>
        <time>2020-09-13T09:37:15Z</time>
      </trkpt>
      <trkpt lat="43.24233" lon="5.63045">
        <ele>470.44140625</ele>
        <time>2020-09-13T09:37:16Z</time>
      </trkpt>
      <trkpt lat="43.24233" lon="5.63047">
        <ele>470.59765625</ele>
        <time>2020-09-13T09:37:17Z</time>
      </trkpt>
      <trkpt lat="43.24233" lon="5.63048">
        <ele>470.7734375</ele>
        <time>2020-09-13T09:37:18Z</time>
      </trkpt>
      <trkpt lat="43.24233" lon="5.6305">
        <ele>470.94921875</ele>
        <time>2020-09-13T09:37:19Z</time>
      </trkpt>
      <trkpt lat="43.24234" lon="5.63052">
        <ele>471.109375</ele>
        <time>2020-09-13T09:37:20Z</time>
      </trkpt>
      <trkpt lat="43.24234" lon="5.63053">
        <ele>471.26171875</ele>
        <time>2020-09-13T09:37:21Z</time>
      </trkpt>
      <trkpt lat="43.24234" lon="5.63055">
        <ele>471.44921875</ele>
        <time>2020-09-13T09:37:22Z</time>
      </trkpt>
      <trkpt lat="43.24234" lon="5.63057">
        <ele>471.66015625</ele>
        <time>2020-09-13T09:37:23Z</time>
      </trkpt>
      <trkpt lat="43.24234" lon="5.63059">
        <ele>471.859375</ele>
        <time>2020-09-13T09:37:24Z</time>
      </trkpt>
      <trkpt lat="43.24233" lon="5.63064">
        <ele>472.484375</ele>
        <time>2020-09-13T09:37:27Z</time>
      </trkpt>
      <trkpt lat="43.24237" lon="5.63099">
        <ele>476.3515625</ele>
        <time>2020-09-13T09:37:43Z</time>
      </trkpt>
      <trkpt lat="43.24243" lon="5.63132">
        <ele>480.1796875</ele>
        <time>2020-09-13T09:37:58Z</time>
      </trkpt>
      <trkpt lat="43.2425" lon="5.6316">
        <ele>482.1796875</ele>
        <time>2020-09-13T09:38:11Z</time>
      </trkpt>
      <trkpt lat="43.24252" lon="5.63166">
        <ele>482.60546875</ele>
        <time>2020-09-13T09:38:14Z</time>
      </trkpt>
      <trkpt lat="43.24252" lon="5.6317">
        <ele>482.8984375</ele>
        <time>2020-09-13T09:38:16Z</time>
      </trkpt>
      <trkpt lat="43.2426" lon="5.63198">
        <ele>484.71484375</ele>
        <time>2020-09-13T09:38:30Z</time>
      </trkpt>
      <trkpt lat="43.24269" lon="5.63227">
        <ele>485.84375</ele>
        <time>2020-09-13T09:38:45Z</time>
      </trkpt>
      <trkpt lat="43.24283" lon="5.63262">
        <ele>487.7109375</ele>
        <time>2020-09-13T09:39:02Z</time>
      </trkpt>
      <trkpt lat="43.24288" lon="5.63274">
        <ele>487.296875</ele>
        <time>2020-09-13T09:39:08Z</time>
      </trkpt>
      <trkpt lat="43.24289" lon="5.63277">
        <ele>487.25</ele>
        <time>2020-09-13T09:39:09Z</time>
      </trkpt>
      <trkpt lat="43.24289" lon="5.63279">
        <ele>487.1953125</ele>
        <time>2020-09-13T09:39:10Z</time>
      </trkpt>
      <trkpt lat="43.2429" lon="5.63281">
        <ele>487.140625</ele>
        <time>2020-09-13T09:39:11Z</time>
      </trkpt>
      <trkpt lat="43.24291" lon="5.63282">
        <ele>487.046875</ele>
        <time>2020-09-13T09:39:12Z</time>
      </trkpt>
      <trkpt lat="43.24292" lon="5.63284">
        <ele>486.97265625</ele>
        <time>2020-09-13T09:39:13Z</time>
      </trkpt>
      <trkpt lat="43.24292" lon="5.63286">
        <ele>486.9375</ele>
        <time>2020-09-13T09:39:14Z</time>
      </trkpt>
      <trkpt lat="43.24298" lon="5.63299">
        <ele>486.41015625</ele>
        <time>2020-09-13T09:39:21Z</time>
      </trkpt>
      <trkpt lat="43.24298" lon="5.63301">
        <ele>486.5</ele>
        <time>2020-09-13T09:39:22Z</time>
      </trkpt>
      <trkpt lat="43.24299" lon="5.63304">
        <ele>486.53125</ele>
        <time>2020-09-13T09:39:23Z</time>
      </trkpt>
      <trkpt lat="43.24301" lon="5.6334">
        <ele>489.14453125</ele>
        <time>2020-09-13T09:39:38Z</time>
      </trkpt>
      <trkpt lat="43.24302" lon="5.63348">
        <ele>489.78125</ele>
        <time>2020-09-13T09:39:42Z</time>
      </trkpt>
      <trkpt lat="43.24302" lon="5.63351">
        <ele>490</ele>
        <time>2020-09-13T09:39:43Z</time>
      </trkpt>
      <trkpt lat="43.24303" lon="5.63353">
        <ele>490.34375</ele>
        <time>2020-09-13T09:39:44Z</time>
      </trkpt>
      <trkpt lat="43.24305" lon="5.6338">
        <ele>493.92578125</ele>
        <time>2020-09-13T09:39:55Z</time>
      </trkpt>
      <trkpt lat="43.24315" lon="5.63413">
        <ele>498.453125</ele>
        <time>2020-09-13T09:40:10Z</time>
      </trkpt>
      <trkpt lat="43.24334" lon="5.63441">
        <ele>501.40625</ele>
        <time>2020-09-13T09:40:27Z</time>
      </trkpt>
      <trkpt lat="43.24352" lon="5.63465">
        <ele>500.64453125</ele>
        <time>2020-09-13T09:40:43Z</time>
      </trkpt>
      <trkpt lat="43.24362" lon="5.63495">
        <ele>499.50390625</ele>
        <time>2020-09-13T09:40:58Z</time>
      </trkpt>
      <trkpt lat="43.24363" lon="5.63527">
        <ele>498.91015625</ele>
        <time>2020-09-13T09:41:13Z</time>
      </trkpt>
      <trkpt lat="43.24364" lon="5.63556">
        <ele>499.3359375</ele>
        <time>2020-09-13T09:41:27Z</time>
      </trkpt>
      <trkpt lat="43.24367" lon="5.63583">
        <ele>500.078125</ele>
        <time>2020-09-13T09:41:41Z</time>
      </trkpt>
      <trkpt lat="43.24367" lon="5.63585">
        <ele>500.1328125</ele>
        <time>2020-09-13T09:41:42Z</time>
      </trkpt>
      <trkpt lat="43.24368" lon="5.63586">
        <ele>500.14453125</ele>
        <time>2020-09-13T09:41:43Z</time>
      </trkpt>
      <trkpt lat="43.2437" lon="5.63601">
        <ele>500.55078125</ele>
        <time>2020-09-13T09:41:57Z</time>
      </trkpt>
      <trkpt lat="43.2437" lon="5.63603">
        <ele>500.703125</ele>
        <time>2020-09-13T09:42:24Z</time>
      </trkpt>
      <trkpt lat="43.24372" lon="5.63602">
        <ele>500.1796875</ele>
        <time>2020-09-13T09:42:59Z</time>
      </trkpt>
      <trkpt lat="43.24371" lon="5.63603">
        <ele>500.24609375</ele>
        <time>2020-09-13T09:43:33Z</time>
      </trkpt>
      <trkpt lat="43.24373" lon="5.63622">
        <ele>500.2421875</ele>
        <time>2020-09-13T09:43:40Z</time>
      </trkpt>
      <trkpt lat="43.24372" lon="5.63625">
        <ele>500.40234375</ele>
        <time>2020-09-13T09:43:41Z</time>
      </trkpt>
      <trkpt lat="43.24368" lon="5.63636">
        <ele>501.0859375</ele>
        <time>2020-09-13T09:43:45Z</time>
      </trkpt>
      <trkpt lat="43.24365" lon="5.63639">
        <ele>501.65234375</ele>
        <time>2020-09-13T09:43:47Z</time>
      </trkpt>
      <trkpt lat="43.24363" lon="5.6364">
        <ele>502.00390625</ele>
        <time>2020-09-13T09:43:48Z</time>
      </trkpt>
      <trkpt lat="43.24362" lon="5.6364">
        <ele>502.40234375</ele>
        <time>2020-09-13T09:43:49Z</time>
      </trkpt>
      <trkpt lat="43.24356" lon="5.63639">
        <ele>503.734375</ele>
        <time>2020-09-13T09:43:52Z</time>
      </trkpt>
      <trkpt lat="43.24355" lon="5.63637">
        <ele>504.109375</ele>
        <time>2020-09-13T09:43:53Z</time>
      </trkpt>
      <trkpt lat="43.24355" lon="5.63634">
        <ele>504.3359375</ele>
        <time>2020-09-13T09:43:54Z</time>
      </trkpt>
      <trkpt lat="43.24355" lon="5.63631">
        <ele>504.43359375</ele>
        <time>2020-09-13T09:43:55Z</time>
      </trkpt>
      <trkpt lat="43.24356" lon="5.63629">
        <ele>504.43359375</ele>
        <time>2020-09-13T09:43:56Z</time>
      </trkpt>
      <trkpt lat="43.24357" lon="5.63627">
        <ele>504.21875</ele>
        <time>2020-09-13T09:43:57Z</time>
      </trkpt>
      <trkpt lat="43.24357" lon="5.63624">
        <ele>504.015625</ele>
        <time>2020-09-13T09:43:58Z</time>
      </trkpt>
      <trkpt lat="43.24358" lon="5.63622">
        <ele>503.98046875</ele>
        <time>2020-09-13T09:43:59Z</time>
      </trkpt>
      <trkpt lat="43.24358" lon="5.63619">
        <ele>504.0078125</ele>
        <time>2020-09-13T09:44:00Z</time>
      </trkpt>
      <trkpt lat="43.24349" lon="5.63582">
        <ele>506.33984375</ele>
        <time>2020-09-13T09:44:17Z</time>
      </trkpt>
      <trkpt lat="43.24348" lon="5.63577">
        <ele>506.8203125</ele>
        <time>2020-09-13T09:44:20Z</time>
      </trkpt>
      <trkpt lat="43.24347" lon="5.63575">
        <ele>507.171875</ele>
        <time>2020-09-13T09:44:21Z</time>
      </trkpt>
      <trkpt lat="43.24346" lon="5.63573">
        <ele>507.4296875</ele>
        <time>2020-09-13T09:44:22Z</time>
      </trkpt>
      <trkpt lat="43.24346" lon="5.6357">
        <ele>507.7109375</ele>
        <time>2020-09-13T09:44:23Z</time>
      </trkpt>
      <trkpt lat="43.24344" lon="5.63568">
        <ele>508.14453125</ele>
        <time>2020-09-13T09:44:24Z</time>
      </trkpt>
      <trkpt lat="43.24343" lon="5.63566">
        <ele>508.5703125</ele>
        <time>2020-09-13T09:44:25Z</time>
      </trkpt>
      <trkpt lat="43.24323" lon="5.63541">
        <ele>513.91015625</ele>
        <time>2020-09-13T09:44:41Z</time>
      </trkpt>
      <trkpt lat="43.24306" lon="5.63553">
        <ele>517.09765625</ele>
        <time>2020-09-13T09:44:54Z</time>
      </trkpt>
      <trkpt lat="43.24295" lon="5.63571">
        <ele>517.6796875</ele>
        <time>2020-09-13T09:45:08Z</time>
      </trkpt>
      <trkpt lat="43.24283" lon="5.63584">
        <ele>518.08203125</ele>
        <time>2020-09-13T09:45:22Z</time>
      </trkpt>
      <trkpt lat="43.24256" lon="5.63604">
        <ele>517.66015625</ele>
        <time>2020-09-13T09:45:37Z</time>
      </trkpt>
      <trkpt lat="43.24216" lon="5.63635">
        <ele>514.40234375</ele>
        <time>2020-09-13T09:45:51Z</time>
      </trkpt>
      <trkpt lat="43.24199" lon="5.63642">
        <ele>514.01171875</ele>
        <time>2020-09-13T09:45:56Z</time>
      </trkpt>
      <trkpt lat="43.24181" lon="5.63658">
        <ele>512.93359375</ele>
        <time>2020-09-13T09:46:01Z</time>
      </trkpt>
      <trkpt lat="43.24178" lon="5.63663">
        <ele>512.73046875</ele>
        <time>2020-09-13T09:46:02Z</time>
      </trkpt>
      <trkpt lat="43.24133" lon="5.63714">
        <ele>510.8671875</ele>
        <time>2020-09-13T09:46:16Z</time>
      </trkpt>
      <trkpt lat="43.24124" lon="5.63722">
        <ele>510.55078125</ele>
        <time>2020-09-13T09:46:18Z</time>
      </trkpt>
      <trkpt lat="43.24114" lon="5.63728">
        <ele>510.359375</ele>
        <time>2020-09-13T09:46:20Z</time>
      </trkpt>
      <trkpt lat="43.24095" lon="5.63737">
        <ele>509.37109375</ele>
        <time>2020-09-13T09:46:23Z</time>
      </trkpt>
      <trkpt lat="43.24088" lon="5.63741">
        <ele>508.921875</ele>
        <time>2020-09-13T09:46:24Z</time>
      </trkpt>
      <trkpt lat="43.24081" lon="5.63747">
        <ele>508.3125</ele>
        <time>2020-09-13T09:46:25Z</time>
      </trkpt>
      <trkpt lat="43.24075" lon="5.63755">
        <ele>507.734375</ele>
        <time>2020-09-13T09:46:26Z</time>
      </trkpt>
      <trkpt lat="43.2407" lon="5.63763">
        <ele>507.21875</ele>
        <time>2020-09-13T09:46:27Z</time>
      </trkpt>
      <trkpt lat="43.24065" lon="5.63772">
        <ele>506.6796875</ele>
        <time>2020-09-13T09:46:28Z</time>
      </trkpt>
      <trkpt lat="43.2406" lon="5.63781">
        <ele>506.046875</ele>
        <time>2020-09-13T09:46:29Z</time>
      </trkpt>
      <trkpt lat="43.24045" lon="5.63829">
        <ele>501.484375</ele>
        <time>2020-09-13T09:46:34Z</time>
      </trkpt>
      <trkpt lat="43.24038" lon="5.63863">
        <ele>499.0625</ele>
        <time>2020-09-13T09:46:37Z</time>
      </trkpt>
      <trkpt lat="43.24033" lon="5.63908">
        <ele>495.73046875</ele>
        <time>2020-09-13T09:46:41Z</time>
      </trkpt>
      <trkpt lat="43.2403" lon="5.63944">
        <ele>492.39453125</ele>
        <time>2020-09-13T09:46:44Z</time>
      </trkpt>
      <trkpt lat="43.24022" lon="5.64005">
        <ele>487.7734375</ele>
        <time>2020-09-13T09:46:49Z</time>
      </trkpt>
      <trkpt lat="43.24019" lon="5.64017">
        <ele>486.97265625</ele>
        <time>2020-09-13T09:46:50Z</time>
      </trkpt>
      <trkpt lat="43.24017" lon="5.64028">
        <ele>485.7734375</ele>
        <time>2020-09-13T09:46:51Z</time>
      </trkpt>
      <trkpt lat="43.24012" lon="5.64051">
        <ele>483.28125</ele>
        <time>2020-09-13T09:46:53Z</time>
      </trkpt>
      <trkpt lat="43.24008" lon="5.64062">
        <ele>482.07421875</ele>
        <time>2020-09-13T09:46:54Z</time>
      </trkpt>
      <trkpt lat="43.24003" lon="5.64073">
        <ele>481.01171875</ele>
        <time>2020-09-13T09:46:55Z</time>
      </trkpt>
      <trkpt lat="43.23998" lon="5.64084">
        <ele>479.98046875</ele>
        <time>2020-09-13T09:46:56Z</time>
      </trkpt>
      <trkpt lat="43.23978" lon="5.6413">
        <ele>477.43359375</ele>
        <time>2020-09-13T09:47:00Z</time>
      </trkpt>
      <trkpt lat="43.23965" lon="5.64164">
        <ele>476.828125</ele>
        <time>2020-09-13T09:47:03Z</time>
      </trkpt>
      <trkpt lat="43.23963" lon="5.64176">
        <ele>477.140625</ele>
        <time>2020-09-13T09:47:04Z</time>
      </trkpt>
      <trkpt lat="43.23958" lon="5.64209">
        <ele>478.296875</ele>
        <time>2020-09-13T09:47:07Z</time>
      </trkpt>
      <trkpt lat="43.23958" lon="5.6422">
        <ele>478.69921875</ele>
        <time>2020-09-13T09:47:08Z</time>
      </trkpt>
      <trkpt lat="43.23959" lon="5.6423">
        <ele>479.0078125</ele>
        <time>2020-09-13T09:47:09Z</time>
      </trkpt>
      <trkpt lat="43.23961" lon="5.6424">
        <ele>479.2578125</ele>
        <time>2020-09-13T09:47:10Z</time>
      </trkpt>
      <trkpt lat="43.23963" lon="5.64249">
        <ele>479.73046875</ele>
        <time>2020-09-13T09:47:11Z</time>
      </trkpt>
      <trkpt lat="43.23966" lon="5.64257">
        <ele>480.16015625</ele>
        <time>2020-09-13T09:47:12Z</time>
      </trkpt>
      <trkpt lat="43.23975" lon="5.64292">
        <ele>481.8359375</ele>
        <time>2020-09-13T09:47:17Z</time>
      </trkpt>
      <trkpt lat="43.23976" lon="5.64305">
        <ele>483.078125</ele>
        <time>2020-09-13T09:47:19Z</time>
      </trkpt>
      <trkpt lat="43.2398" lon="5.64337">
        <ele>486.00390625</ele>
        <time>2020-09-13T09:47:25Z</time>
      </trkpt>
      <trkpt lat="43.23978" lon="5.64368">
        <ele>487.11328125</ele>
        <time>2020-09-13T09:47:36Z</time>
      </trkpt>
      <trkpt lat="43.23978" lon="5.6437">
        <ele>487.08984375</ele>
        <time>2020-09-13T09:47:37Z</time>
      </trkpt>
      <trkpt lat="43.23977" lon="5.64372">
        <ele>487.06640625</ele>
        <time>2020-09-13T09:47:38Z</time>
      </trkpt>
      <trkpt lat="43.2398" lon="5.64408">
        <ele>488.16015625</ele>
        <time>2020-09-13T09:47:52Z</time>
      </trkpt>
      <trkpt lat="43.2398" lon="5.64437">
        <ele>485.24609375</ele>
        <time>2020-09-13T09:47:58Z</time>
      </trkpt>
      <trkpt lat="43.23982" lon="5.64456">
        <ele>484.16796875</ele>
        <time>2020-09-13T09:48:01Z</time>
      </trkpt>
      <trkpt lat="43.23984" lon="5.64463">
        <ele>483.94921875</ele>
        <time>2020-09-13T09:48:02Z</time>
      </trkpt>
      <trkpt lat="43.2399" lon="5.64476">
        <ele>483.609375</ele>
        <time>2020-09-13T09:48:04Z</time>
      </trkpt>
      <trkpt lat="43.24009" lon="5.64505">
        <ele>487.109375</ele>
        <time>2020-09-13T09:48:08Z</time>
      </trkpt>
      <trkpt lat="43.24014" lon="5.64513">
        <ele>488.35546875</ele>
        <time>2020-09-13T09:48:09Z</time>
      </trkpt>
      <trkpt lat="43.24017" lon="5.64522">
        <ele>489.3671875</ele>
        <time>2020-09-13T09:48:10Z</time>
      </trkpt>
      <trkpt lat="43.24019" lon="5.64532">
        <ele>489.90234375</ele>
        <time>2020-09-13T09:48:11Z</time>
      </trkpt>
      <trkpt lat="43.24018" lon="5.64541">
        <ele>489.77734375</ele>
        <time>2020-09-13T09:48:12Z</time>
      </trkpt>
      <trkpt lat="43.24015" lon="5.6455">
        <ele>489.359375</ele>
        <time>2020-09-13T09:48:13Z</time>
      </trkpt>
      <trkpt lat="43.24011" lon="5.64559">
        <ele>488.921875</ele>
        <time>2020-09-13T09:48:14Z</time>
      </trkpt>
      <trkpt lat="43.24007" lon="5.64567">
        <ele>488.25</ele>
        <time>2020-09-13T09:48:15Z</time>
      </trkpt>
      <trkpt lat="43.24001" lon="5.64575">
        <ele>487.34375</ele>
        <time>2020-09-13T09:48:16Z</time>
      </trkpt>
      <trkpt lat="43.23995" lon="5.64583">
        <ele>486.27734375</ele>
        <time>2020-09-13T09:48:17Z</time>
      </trkpt>
      <trkpt lat="43.23988" lon="5.64591">
        <ele>484.84765625</ele>
        <time>2020-09-13T09:48:18Z</time>
      </trkpt>
      <trkpt lat="43.23966" lon="5.64616">
        <ele>480.9921875</ele>
        <time>2020-09-13T09:48:21Z</time>
      </trkpt>
      <trkpt lat="43.23958" lon="5.64625">
        <ele>480.51953125</ele>
        <time>2020-09-13T09:48:22Z</time>
      </trkpt>
      <trkpt lat="43.23938" lon="5.64648">
        <ele>477.5078125</ele>
        <time>2020-09-13T09:48:25Z</time>
      </trkpt>
      <trkpt lat="43.23931" lon="5.64655">
        <ele>476.51953125</ele>
        <time>2020-09-13T09:48:26Z</time>
      </trkpt>
      <trkpt lat="43.23925" lon="5.64663">
        <ele>475.55859375</ele>
        <time>2020-09-13T09:48:27Z</time>
      </trkpt>
      <trkpt lat="43.23909" lon="5.64685">
        <ele>473.79296875</ele>
        <time>2020-09-13T09:48:30Z</time>
      </trkpt>
      <trkpt lat="43.23867" lon="5.64729">
        <ele>467.26953125</ele>
        <time>2020-09-13T09:48:37Z</time>
      </trkpt>
      <trkpt lat="43.23862" lon="5.64737">
        <ele>466.328125</ele>
        <time>2020-09-13T09:48:38Z</time>
      </trkpt>
      <trkpt lat="43.23857" lon="5.64744">
        <ele>465.3671875</ele>
        <time>2020-09-13T09:48:39Z</time>
      </trkpt>
      <trkpt lat="43.23838" lon="5.64781">
        <ele>461.46875</ele>
        <time>2020-09-13T09:48:43Z</time>
      </trkpt>
      <trkpt lat="43.23832" lon="5.64791">
        <ele>460.52734375</ele>
        <time>2020-09-13T09:48:44Z</time>
      </trkpt>
      <trkpt lat="43.23828" lon="5.64802">
        <ele>459.8203125</ele>
        <time>2020-09-13T09:48:45Z</time>
      </trkpt>
      <trkpt lat="43.23825" lon="5.64813">
        <ele>459.296875</ele>
        <time>2020-09-13T09:48:46Z</time>
      </trkpt>
      <trkpt lat="43.23823" lon="5.64824">
        <ele>458.8984375</ele>
        <time>2020-09-13T09:48:47Z</time>
      </trkpt>
      <trkpt lat="43.23821" lon="5.64834">
        <ele>458.38671875</ele>
        <time>2020-09-13T09:48:48Z</time>
      </trkpt>
      <trkpt lat="43.23818" lon="5.64878">
        <ele>455.9140625</ele>
        <time>2020-09-13T09:48:52Z</time>
      </trkpt>
      <trkpt lat="43.23816" lon="5.64889">
        <ele>455.28125</ele>
        <time>2020-09-13T09:48:53Z</time>
      </trkpt>
      <trkpt lat="43.23813" lon="5.64899">
        <ele>454.51171875</ele>
        <time>2020-09-13T09:48:54Z</time>
      </trkpt>
      <trkpt lat="43.23808" lon="5.64909">
        <ele>453.60546875</ele>
        <time>2020-09-13T09:48:55Z</time>
      </trkpt>
      <trkpt lat="43.23803" lon="5.6492">
        <ele>452.6328125</ele>
        <time>2020-09-13T09:48:56Z</time>
      </trkpt>
      <trkpt lat="43.23799" lon="5.6493">
        <ele>451.78125</ele>
        <time>2020-09-13T09:48:57Z</time>
      </trkpt>
      <trkpt lat="43.23795" lon="5.64942">
        <ele>451.01171875</ele>
        <time>2020-09-13T09:48:58Z</time>
      </trkpt>
      <trkpt lat="43.23793" lon="5.64955">
        <ele>450.16796875</ele>
        <time>2020-09-13T09:48:59Z</time>
      </trkpt>
      <trkpt lat="43.23787" lon="5.65023">
        <ele>444.2734375</ele>
        <time>2020-09-13T09:49:04Z</time>
      </trkpt>
      <trkpt lat="43.23785" lon="5.65062">
        <ele>442.50390625</ele>
        <time>2020-09-13T09:49:07Z</time>
      </trkpt>
      <trkpt lat="43.23783" lon="5.65074">
        <ele>441.96875</ele>
        <time>2020-09-13T09:49:08Z</time>
      </trkpt>
      <trkpt lat="43.23767" lon="5.65129">
        <ele>439.9609375</ele>
        <time>2020-09-13T09:49:13Z</time>
      </trkpt>
      <trkpt lat="43.23762" lon="5.65151">
        <ele>439.171875</ele>
        <time>2020-09-13T09:49:15Z</time>
      </trkpt>
      <trkpt lat="43.23759" lon="5.65162">
        <ele>438.54296875</ele>
        <time>2020-09-13T09:49:16Z</time>
      </trkpt>
      <trkpt lat="43.23756" lon="5.65173">
        <ele>437.7734375</ele>
        <time>2020-09-13T09:49:17Z</time>
      </trkpt>
      <trkpt lat="43.23753" lon="5.65183">
        <ele>437.1015625</ele>
        <time>2020-09-13T09:49:18Z</time>
      </trkpt>
      <trkpt lat="43.23749" lon="5.65193">
        <ele>436.61328125</ele>
        <time>2020-09-13T09:49:19Z</time>
      </trkpt>
      <trkpt lat="43.23744" lon="5.65202">
        <ele>436.2578125</ele>
        <time>2020-09-13T09:49:20Z</time>
      </trkpt>
      <trkpt lat="43.2373" lon="5.65231">
        <ele>436.01953125</ele>
        <time>2020-09-13T09:49:23Z</time>
      </trkpt>
      <trkpt lat="43.23727" lon="5.65242">
        <ele>435.88671875</ele>
        <time>2020-09-13T09:49:24Z</time>
      </trkpt>
      <trkpt lat="43.23725" lon="5.65253">
        <ele>435.46484375</ele>
        <time>2020-09-13T09:49:25Z</time>
      </trkpt>
      <trkpt lat="43.23717" lon="5.65296">
        <ele>433.93359375</ele>
        <time>2020-09-13T09:49:29Z</time>
      </trkpt>
      <trkpt lat="43.23713" lon="5.65306">
        <ele>433.57421875</ele>
        <time>2020-09-13T09:49:30Z</time>
      </trkpt>
      <trkpt lat="43.2371" lon="5.65316">
        <ele>433.2109375</ele>
        <time>2020-09-13T09:49:31Z</time>
      </trkpt>
      <trkpt lat="43.23707" lon="5.65327">
        <ele>432.78125</ele>
        <time>2020-09-13T09:49:32Z</time>
      </trkpt>
      <trkpt lat="43.23704" lon="5.65338">
        <ele>432.33203125</ele>
        <time>2020-09-13T09:49:33Z</time>
      </trkpt>
      <trkpt lat="43.23702" lon="5.65348">
        <ele>431.96484375</ele>
        <time>2020-09-13T09:49:34Z</time>
      </trkpt>
      <trkpt lat="43.23696" lon="5.65383">
        <ele>429.8125</ele>
        <time>2020-09-13T09:49:38Z</time>
      </trkpt>
      <trkpt lat="43.23695" lon="5.65388">
        <ele>429.6171875</ele>
        <time>2020-09-13T09:49:39Z</time>
      </trkpt>
      <trkpt lat="43.2369" lon="5.65397">
        <ele>429.3203125</ele>
        <time>2020-09-13T09:49:41Z</time>
      </trkpt>
      <trkpt lat="43.23686" lon="5.654">
        <ele>429.20703125</ele>
        <time>2020-09-13T09:49:42Z</time>
      </trkpt>
      <trkpt lat="43.23681" lon="5.65401">
        <ele>429.15625</ele>
        <time>2020-09-13T09:49:43Z</time>
      </trkpt>
      <trkpt lat="43.23677" lon="5.654">
        <ele>429.1875</ele>
        <time>2020-09-13T09:49:44Z</time>
      </trkpt>
      <trkpt lat="43.23673" lon="5.65398">
        <ele>429.26953125</ele>
        <time>2020-09-13T09:49:45Z</time>
      </trkpt>
      <trkpt lat="43.23669" lon="5.65396">
        <ele>429.2265625</ele>
        <time>2020-09-13T09:49:46Z</time>
      </trkpt>
      <trkpt lat="43.23664" lon="5.65394">
        <ele>428.98828125</ele>
        <time>2020-09-13T09:49:47Z</time>
      </trkpt>
      <trkpt lat="43.23636" lon="5.65385">
        <ele>427.73046875</ele>
        <time>2020-09-13T09:49:53Z</time>
      </trkpt>
      <trkpt lat="43.23631" lon="5.65393">
        <ele>426.78515625</ele>
        <time>2020-09-13T09:49:56Z</time>
      </trkpt>
      <trkpt lat="43.23631" lon="5.65409">
        <ele>426.015625</ele>
        <time>2020-09-13T09:50:06Z</time>
      </trkpt>
      <trkpt lat="43.23614" lon="5.65426">
        <ele>424.01171875</ele>
        <time>2020-09-13T09:50:13Z</time>
      </trkpt>
      <trkpt lat="43.23612" lon="5.65432">
        <ele>423.45703125</ele>
        <time>2020-09-13T09:50:14Z</time>
      </trkpt>
      <trkpt lat="43.23598" lon="5.65461">
        <ele>420.09375</ele>
        <time>2020-09-13T09:50:19Z</time>
      </trkpt>
      <trkpt lat="43.23591" lon="5.65478">
        <ele>418.2109375</ele>
        <time>2020-09-13T09:50:22Z</time>
      </trkpt>
      <trkpt lat="43.2357" lon="5.65491">
        <ele>413.0703125</ele>
        <time>2020-09-13T09:50:29Z</time>
      </trkpt>
      <trkpt lat="43.23563" lon="5.655">
        <ele>411.234375</ele>
        <time>2020-09-13T09:50:32Z</time>
      </trkpt>
      <trkpt lat="43.2355" lon="5.65502">
        <ele>408.12890625</ele>
        <time>2020-09-13T09:50:37Z</time>
      </trkpt>
      <trkpt lat="43.23545" lon="5.65516">
        <ele>406.09765625</ele>
        <time>2020-09-13T09:50:42Z</time>
      </trkpt>
      <trkpt lat="43.2354" lon="5.65531">
        <ele>404.3203125</ele>
        <time>2020-09-13T09:50:45Z</time>
      </trkpt>
      <trkpt lat="43.23533" lon="5.65556">
        <ele>402.4609375</ele>
        <time>2020-09-13T09:50:49Z</time>
      </trkpt>
      <trkpt lat="43.23524" lon="5.65566">
        <ele>400.078125</ele>
        <time>2020-09-13T09:50:52Z</time>
      </trkpt>
      <trkpt lat="43.23518" lon="5.65572">
        <ele>398.1953125</ele>
        <time>2020-09-13T09:50:55Z</time>
      </trkpt>
      <trkpt lat="43.23509" lon="5.65579">
        <ele>395.83984375</ele>
        <time>2020-09-13T09:50:59Z</time>
      </trkpt>
      <trkpt lat="43.23495" lon="5.65596">
        <ele>392.8046875</ele>
        <time>2020-09-13T09:51:03Z</time>
      </trkpt>
      <trkpt lat="43.23481" lon="5.65607">
        <ele>389.84765625</ele>
        <time>2020-09-13T09:51:07Z</time>
      </trkpt>
      <trkpt lat="43.2348" lon="5.6561">
        <ele>389.6796875</ele>
        <time>2020-09-13T09:51:18Z</time>
      </trkpt>
      <trkpt lat="43.23479" lon="5.65611">
        <ele>389.4609375</ele>
        <time>2020-09-13T09:51:36Z</time>
      </trkpt>
      <trkpt lat="43.23478" lon="5.65611">
        <ele>389.08984375</ele>
        <time>2020-09-13T09:51:37Z</time>
      </trkpt>
      <trkpt lat="43.23476" lon="5.65611">
        <ele>388.56640625</ele>
        <time>2020-09-13T09:51:38Z</time>
      </trkpt>
      <trkpt lat="43.23474" lon="5.65611">
        <ele>387.96875</ele>
        <time>2020-09-13T09:51:39Z</time>
      </trkpt>
      <trkpt lat="43.23472" lon="5.65612">
        <ele>387.3515625</ele>
        <time>2020-09-13T09:51:40Z</time>
      </trkpt>
      <trkpt lat="43.2347" lon="5.65614">
        <ele>386.82421875</ele>
        <time>2020-09-13T09:51:41Z</time>
      </trkpt>
      <trkpt lat="43.23469" lon="5.65616">
        <ele>386.421875</ele>
        <time>2020-09-13T09:51:42Z</time>
      </trkpt>
      <trkpt lat="43.23467" lon="5.6562">
        <ele>386.04296875</ele>
        <time>2020-09-13T09:51:44Z</time>
      </trkpt>
      <trkpt lat="43.23467" lon="5.65621">
        <ele>386.2578125</ele>
        <time>2020-09-13T09:51:45Z</time>
      </trkpt>
      <trkpt lat="43.23471" lon="5.65618">
        <ele>387.43359375</ele>
        <time>2020-09-13T09:51:53Z</time>
      </trkpt>
      <trkpt lat="43.23478" lon="5.6561">
        <ele>389.02734375</ele>
        <time>2020-09-13T09:51:58Z</time>
      </trkpt>
      <trkpt lat="43.2348" lon="5.65611">
        <ele>389.578125</ele>
        <time>2020-09-13T09:51:59Z</time>
      </trkpt>
      <trkpt lat="43.23481" lon="5.65612">
        <ele>390.16015625</ele>
        <time>2020-09-13T09:52:00Z</time>
      </trkpt>
      <trkpt lat="43.23483" lon="5.65613">
        <ele>390.63671875</ele>
        <time>2020-09-13T09:52:01Z</time>
      </trkpt>
      <trkpt lat="43.23483" lon="5.65615">
        <ele>391.0078125</ele>
        <time>2020-09-13T09:52:02Z</time>
      </trkpt>
      <trkpt lat="43.23484" lon="5.65618">
        <ele>391.28515625</ele>
        <time>2020-09-13T09:52:03Z</time>
      </trkpt>
      <trkpt lat="43.23483" lon="5.6562">
        <ele>391.3671875</ele>
        <time>2020-09-13T09:52:04Z</time>
      </trkpt>
      <trkpt lat="43.23482" lon="5.65624">
        <ele>391.28515625</ele>
        <time>2020-09-13T09:52:05Z</time>
      </trkpt>
      <trkpt lat="43.23481" lon="5.65627">
        <ele>391.265625</ele>
        <time>2020-09-13T09:52:06Z</time>
      </trkpt>
      <trkpt lat="43.23477" lon="5.6565">
        <ele>391.734375</ele>
        <time>2020-09-13T09:52:14Z</time>
      </trkpt>
      <trkpt lat="43.23478" lon="5.65695">
        <ele>393.23828125</ele>
        <time>2020-09-13T09:52:29Z</time>
      </trkpt>
      <trkpt lat="43.2348" lon="5.65714">
        <ele>393.76953125</ele>
        <time>2020-09-13T09:52:37Z</time>
      </trkpt>
      <trkpt lat="43.2348" lon="5.65716">
        <ele>393.86328125</ele>
        <time>2020-09-13T09:52:38Z</time>
      </trkpt>
      <trkpt lat="43.23481" lon="5.65719">
        <ele>394.0859375</ele>
        <time>2020-09-13T09:52:39Z</time>
      </trkpt>
      <trkpt lat="43.23482" lon="5.65721">
        <ele>394.31640625</ele>
        <time>2020-09-13T09:52:40Z</time>
      </trkpt>
      <trkpt lat="43.23483" lon="5.65723">
        <ele>394.4140625</ele>
        <time>2020-09-13T09:52:41Z</time>
      </trkpt>
      <trkpt lat="43.23483" lon="5.65726">
        <ele>394.45703125</ele>
        <time>2020-09-13T09:52:42Z</time>
      </trkpt>
      <trkpt lat="43.23484" lon="5.65728">
        <ele>394.5390625</ele>
        <time>2020-09-13T09:52:43Z</time>
      </trkpt>
      <trkpt lat="43.23485" lon="5.65735">
        <ele>394.87890625</ele>
        <time>2020-09-13T09:52:47Z</time>
      </trkpt>
      <trkpt lat="43.23486" lon="5.65736">
        <ele>394.98828125</ele>
        <time>2020-09-13T09:52:48Z</time>
      </trkpt>
      <trkpt lat="43.23486" lon="5.65738">
        <ele>395.046875</ele>
        <time>2020-09-13T09:52:49Z</time>
      </trkpt>
      <trkpt lat="43.23487" lon="5.6574">
        <ele>395.1484375</ele>
        <time>2020-09-13T09:52:50Z</time>
      </trkpt>
      <trkpt lat="43.23487" lon="5.65742">
        <ele>395.203125</ele>
        <time>2020-09-13T09:52:51Z</time>
      </trkpt>
      <trkpt lat="43.23487" lon="5.65744">
        <ele>395.28125</ele>
        <time>2020-09-13T09:52:52Z</time>
      </trkpt>
      <trkpt lat="43.23488" lon="5.65746">
        <ele>395.33203125</ele>
        <time>2020-09-13T09:52:53Z</time>
      </trkpt>
      <trkpt lat="43.23488" lon="5.65749">
        <ele>395.34375</ele>
        <time>2020-09-13T09:52:54Z</time>
      </trkpt>
      <trkpt lat="43.23488" lon="5.65751">
        <ele>395.3671875</ele>
        <time>2020-09-13T09:52:55Z</time>
      </trkpt>
      <trkpt lat="43.23488" lon="5.65752">
        <ele>395.42578125</ele>
        <time>2020-09-13T09:52:56Z</time>
      </trkpt>
      <trkpt lat="43.23489" lon="5.65754">
        <ele>395.5625</ele>
        <time>2020-09-13T09:52:57Z</time>
      </trkpt>
      <trkpt lat="43.23489" lon="5.65755">
        <ele>395.6171875</ele>
        <time>2020-09-13T09:52:58Z</time>
      </trkpt>
      <trkpt lat="43.23489" lon="5.65757">
        <ele>395.625</ele>
        <time>2020-09-13T09:52:59Z</time>
      </trkpt>
      <trkpt lat="43.23495" lon="5.65784">
        <ele>396.71484375</ele>
        <time>2020-09-13T09:53:13Z</time>
      </trkpt>
      <trkpt lat="43.23504" lon="5.6582">
        <ele>397.82421875</ele>
        <time>2020-09-13T09:53:29Z</time>
      </trkpt>
      <trkpt lat="43.23509" lon="5.65847">
        <ele>398.7421875</ele>
        <time>2020-09-13T09:53:41Z</time>
      </trkpt>
      <trkpt lat="43.23516" lon="5.65884">
        <ele>400.1015625</ele>
        <time>2020-09-13T09:53:57Z</time>
      </trkpt>
      <trkpt lat="43.2352" lon="5.65906">
        <ele>400.859375</ele>
        <time>2020-09-13T09:54:06Z</time>
      </trkpt>
      <trkpt lat="43.23521" lon="5.65909">
        <ele>401.01171875</ele>
        <time>2020-09-13T09:54:07Z</time>
      </trkpt>
      <trkpt lat="43.23522" lon="5.65911">
        <ele>401.14453125</ele>
        <time>2020-09-13T09:54:08Z</time>
      </trkpt>
      <trkpt lat="43.23531" lon="5.65947">
        <ele>402.30859375</ele>
        <time>2020-09-13T09:54:23Z</time>
      </trkpt>
      <trkpt lat="43.23543" lon="5.65989">
        <ele>402.3828125</ele>
        <time>2020-09-13T09:54:40Z</time>
      </trkpt>
      <trkpt lat="43.2355" lon="5.6603">
        <ele>402.64453125</ele>
        <time>2020-09-13T09:54:55Z</time>
      </trkpt>
      <trkpt lat="43.23562" lon="5.66061">
        <ele>402.25390625</ele>
        <time>2020-09-13T09:55:07Z</time>
      </trkpt>
      <trkpt lat="43.2357" lon="5.66081">
        <ele>400.96484375</ele>
        <time>2020-09-13T09:55:15Z</time>
      </trkpt>
      <trkpt lat="43.2357" lon="5.66083">
        <ele>400.8828125</ele>
        <time>2020-09-13T09:55:16Z</time>
      </trkpt>
      <trkpt lat="43.23571" lon="5.66086">
        <ele>400.73828125</ele>
        <time>2020-09-13T09:55:17Z</time>
      </trkpt>
      <trkpt lat="43.23571" lon="5.66088">
        <ele>400.6328125</ele>
        <time>2020-09-13T09:55:18Z</time>
      </trkpt>
      <trkpt lat="43.23571" lon="5.66091">
        <ele>400.546875</ele>
        <time>2020-09-13T09:55:19Z</time>
      </trkpt>
      <trkpt lat="43.23571" lon="5.66093">
        <ele>400.44140625</ele>
        <time>2020-09-13T09:55:20Z</time>
      </trkpt>
      <trkpt lat="43.23572" lon="5.66095">
        <ele>400.3203125</ele>
        <time>2020-09-13T09:55:21Z</time>
      </trkpt>
      <trkpt lat="43.23572" lon="5.66097">
        <ele>400.23046875</ele>
        <time>2020-09-13T09:55:22Z</time>
      </trkpt>
      <trkpt lat="43.23572" lon="5.661">
        <ele>400.140625</ele>
        <time>2020-09-13T09:55:23Z</time>
      </trkpt>
      <trkpt lat="43.23572" lon="5.66103">
        <ele>400.0390625</ele>
        <time>2020-09-13T09:55:24Z</time>
      </trkpt>
      <trkpt lat="43.23572" lon="5.66105">
        <ele>399.94140625</ele>
        <time>2020-09-13T09:55:25Z</time>
      </trkpt>
      <trkpt lat="43.23572" lon="5.66108">
        <ele>399.82421875</ele>
        <time>2020-09-13T09:55:26Z</time>
      </trkpt>
      <trkpt lat="43.23573" lon="5.66111">
        <ele>399.6796875</ele>
        <time>2020-09-13T09:55:27Z</time>
      </trkpt>
      <trkpt lat="43.23573" lon="5.66114">
        <ele>399.54296875</ele>
        <time>2020-09-13T09:55:28Z</time>
      </trkpt>
      <trkpt lat="43.23573" lon="5.66117">
        <ele>399.43359375</ele>
        <time>2020-09-13T09:55:29Z</time>
      </trkpt>
      <trkpt lat="43.23573" lon="5.6612">
        <ele>399.30859375</ele>
        <time>2020-09-13T09:55:30Z</time>
      </trkpt>
      <trkpt lat="43.23574" lon="5.66124">
        <ele>399.12890625</ele>
        <time>2020-09-13T09:55:31Z</time>
      </trkpt>
      <trkpt lat="43.23575" lon="5.66127">
        <ele>398.9296875</ele>
        <time>2020-09-13T09:55:32Z</time>
      </trkpt>
      <trkpt lat="43.23576" lon="5.66132">
        <ele>398.6953125</ele>
        <time>2020-09-13T09:55:33Z</time>
      </trkpt>
      <trkpt lat="43.23577" lon="5.66136">
        <ele>398.46875</ele>
        <time>2020-09-13T09:55:34Z</time>
      </trkpt>
      <trkpt lat="43.23582" lon="5.66174">
        <ele>397.94140625</ele>
        <time>2020-09-13T09:55:41Z</time>
      </trkpt>
      <trkpt lat="43.23583" lon="5.66188">
        <ele>398.390625</ele>
        <time>2020-09-13T09:55:43Z</time>
      </trkpt>
      <trkpt lat="43.23586" lon="5.66213">
        <ele>399.16015625</ele>
        <time>2020-09-13T09:55:46Z</time>
      </trkpt>
      <trkpt lat="43.23585" lon="5.66221">
        <ele>399.41796875</ele>
        <time>2020-09-13T09:55:47Z</time>
      </trkpt>
      <trkpt lat="43.23585" lon="5.66227">
        <ele>399.63671875</ele>
        <time>2020-09-13T09:55:48Z</time>
      </trkpt>
      <trkpt lat="43.23586" lon="5.66233">
        <ele>399.8125</ele>
        <time>2020-09-13T09:55:49Z</time>
      </trkpt>
      <trkpt lat="43.23587" lon="5.66238">
        <ele>399.9921875</ele>
        <time>2020-09-13T09:55:50Z</time>
      </trkpt>
      <trkpt lat="43.23588" lon="5.66244">
        <ele>400</ele>
        <time>2020-09-13T09:55:51Z</time>
      </trkpt>
      <trkpt lat="43.23588" lon="5.66249">
        <ele>399.9765625</ele>
        <time>2020-09-13T09:55:52Z</time>
      </trkpt>
      <trkpt lat="43.23586" lon="5.66298">
        <ele>399.85546875</ele>
        <time>2020-09-13T09:56:01Z</time>
      </trkpt>
      <trkpt lat="43.23585" lon="5.66304">
        <ele>399.5859375</ele>
        <time>2020-09-13T09:56:02Z</time>
      </trkpt>
      <trkpt lat="43.23579" lon="5.66332">
        <ele>398.32421875</ele>
        <time>2020-09-13T09:56:06Z</time>
      </trkpt>
      <trkpt lat="43.23574" lon="5.66354">
        <ele>397.3203125</ele>
        <time>2020-09-13T09:56:10Z</time>
      </trkpt>
      <trkpt lat="43.23571" lon="5.66378">
        <ele>396.39453125</ele>
        <time>2020-09-13T09:56:14Z</time>
      </trkpt>
      <trkpt lat="43.23569" lon="5.66384">
        <ele>396.3203125</ele>
        <time>2020-09-13T09:56:15Z</time>
      </trkpt>
      <trkpt lat="43.23562" lon="5.66408">
        <ele>395.95703125</ele>
        <time>2020-09-13T09:56:19Z</time>
      </trkpt>
      <trkpt lat="43.23562" lon="5.66413">
        <ele>395.7578125</ele>
        <time>2020-09-13T09:56:20Z</time>
      </trkpt>
      <trkpt lat="43.23562" lon="5.66417">
        <ele>395.6171875</ele>
        <time>2020-09-13T09:56:21Z</time>
      </trkpt>
      <trkpt lat="43.23562" lon="5.66421">
        <ele>395.48828125</ele>
        <time>2020-09-13T09:56:22Z</time>
      </trkpt>
      <trkpt lat="43.23563" lon="5.66426">
        <ele>395.35546875</ele>
        <time>2020-09-13T09:56:23Z</time>
      </trkpt>
      <trkpt lat="43.23564" lon="5.66429">
        <ele>395.2578125</ele>
        <time>2020-09-13T09:56:24Z</time>
      </trkpt>
      <trkpt lat="43.23565" lon="5.66433">
        <ele>395.1796875</ele>
        <time>2020-09-13T09:56:25Z</time>
      </trkpt>
      <trkpt lat="43.23566" lon="5.66439">
        <ele>395.1640625</ele>
        <time>2020-09-13T09:56:26Z</time>
      </trkpt>
      <trkpt lat="43.23565" lon="5.66445">
        <ele>395.1015625</ele>
        <time>2020-09-13T09:56:27Z</time>
      </trkpt>
      <trkpt lat="43.23563" lon="5.6645">
        <ele>395.04296875</ele>
        <time>2020-09-13T09:56:28Z</time>
      </trkpt>
      <trkpt lat="43.23561" lon="5.66455">
        <ele>395.0078125</ele>
        <time>2020-09-13T09:56:29Z</time>
      </trkpt>
      <trkpt lat="43.2356" lon="5.6646">
        <ele>395</ele>
        <time>2020-09-13T09:56:30Z</time>
      </trkpt>
      <trkpt lat="43.2356" lon="5.66465">
        <ele>395</ele>
        <time>2020-09-13T09:56:31Z</time>
      </trkpt>
      <trkpt lat="43.23561" lon="5.6647">
        <ele>395</ele>
        <time>2020-09-13T09:56:32Z</time>
      </trkpt>
      <trkpt lat="43.23561" lon="5.66476">
        <ele>395</ele>
        <time>2020-09-13T09:56:33Z</time>
      </trkpt>
      <trkpt lat="43.2356" lon="5.66481">
        <ele>395</ele>
        <time>2020-09-13T09:56:34Z</time>
      </trkpt>
      <trkpt lat="43.23559" lon="5.66503">
        <ele>394.953125</ele>
        <time>2020-09-13T09:56:38Z</time>
      </trkpt>
      <trkpt lat="43.23562" lon="5.66528">
        <ele>395</ele>
        <time>2020-09-13T09:56:42Z</time>
      </trkpt>
      <trkpt lat="43.23561" lon="5.66534">
        <ele>395</ele>
        <time>2020-09-13T09:56:43Z</time>
      </trkpt>
      <trkpt lat="43.2356" lon="5.66541">
        <ele>395</ele>
        <time>2020-09-13T09:56:44Z</time>
      </trkpt>
      <trkpt lat="43.23559" lon="5.66547">
        <ele>394.96875</ele>
        <time>2020-09-13T09:56:45Z</time>
      </trkpt>
      <trkpt lat="43.23558" lon="5.66554">
        <ele>394.94140625</ele>
        <time>2020-09-13T09:56:46Z</time>
      </trkpt>
      <trkpt lat="43.23556" lon="5.6656">
        <ele>394.94140625</ele>
        <time>2020-09-13T09:56:47Z</time>
      </trkpt>
      <trkpt lat="43.23555" lon="5.66567">
        <ele>394.96875</ele>
        <time>2020-09-13T09:56:48Z</time>
      </trkpt>
      <trkpt lat="43.23552" lon="5.66581">
        <ele>395.10546875</ele>
        <time>2020-09-13T09:56:50Z</time>
      </trkpt>
      <trkpt lat="43.23551" lon="5.66589">
        <ele>395.20703125</ele>
        <time>2020-09-13T09:56:51Z</time>
      </trkpt>
      <trkpt lat="43.2355" lon="5.66596">
        <ele>395.32421875</ele>
        <time>2020-09-13T09:56:52Z</time>
      </trkpt>
      <trkpt lat="43.23547" lon="5.66617">
        <ele>395.48046875</ele>
        <time>2020-09-13T09:56:55Z</time>
      </trkpt>
      <trkpt lat="43.23546" lon="5.66623">
        <ele>395.49609375</ele>
        <time>2020-09-13T09:56:56Z</time>
      </trkpt>
      <trkpt lat="43.23546" lon="5.66629">
        <ele>395.59765625</ele>
        <time>2020-09-13T09:56:57Z</time>
      </trkpt>
      <trkpt lat="43.23542" lon="5.66665">
        <ele>396.6640625</ele>
        <time>2020-09-13T09:57:03Z</time>
      </trkpt>
      <trkpt lat="43.23541" lon="5.66672">
        <ele>396.6875</ele>
        <time>2020-09-13T09:57:04Z</time>
      </trkpt>
      <trkpt lat="43.23541" lon="5.66678">
        <ele>396.6875</ele>
        <time>2020-09-13T09:57:05Z</time>
      </trkpt>
      <trkpt lat="43.23541" lon="5.66683">
        <ele>396.69921875</ele>
        <time>2020-09-13T09:57:06Z</time>
      </trkpt>
      <trkpt lat="43.23542" lon="5.66688">
        <ele>396.79296875</ele>
        <time>2020-09-13T09:57:07Z</time>
      </trkpt>
      <trkpt lat="43.23543" lon="5.66693">
        <ele>396.85546875</ele>
        <time>2020-09-13T09:57:08Z</time>
      </trkpt>
      <trkpt lat="43.23542" lon="5.66713">
        <ele>397.33203125</ele>
        <time>2020-09-13T09:57:13Z</time>
      </trkpt>
      <trkpt lat="43.23543" lon="5.66716">
        <ele>397.30859375</ele>
        <time>2020-09-13T09:57:14Z</time>
      </trkpt>
      <trkpt lat="43.23544" lon="5.66718">
        <ele>397.3046875</ele>
        <time>2020-09-13T09:57:15Z</time>
      </trkpt>
      <trkpt lat="43.23541" lon="5.6676">
        <ele>398.234375</ele>
        <time>2020-09-13T09:57:25Z</time>
      </trkpt>
      <trkpt lat="43.23532" lon="5.66814">
        <ele>400</ele>
        <time>2020-09-13T09:57:36Z</time>
      </trkpt>
      <trkpt lat="43.23532" lon="5.66824">
        <ele>400</ele>
        <time>2020-09-13T09:57:38Z</time>
      </trkpt>
      <trkpt lat="43.23532" lon="5.66829">
        <ele>400</ele>
        <time>2020-09-13T09:57:39Z</time>
      </trkpt>
      <trkpt lat="43.23521" lon="5.66881">
        <ele>399.91796875</ele>
        <time>2020-09-13T09:57:49Z</time>
      </trkpt>
      <trkpt lat="43.23517" lon="5.66903">
        <ele>399.5703125</ele>
        <time>2020-09-13T09:57:53Z</time>
      </trkpt>
      <trkpt lat="43.23518" lon="5.66909">
        <ele>399.43359375</ele>
        <time>2020-09-13T09:57:54Z</time>
      </trkpt>
      <trkpt lat="43.23519" lon="5.66922">
        <ele>399.1796875</ele>
        <time>2020-09-13T09:57:56Z</time>
      </trkpt>
      <trkpt lat="43.23518" lon="5.66935">
        <ele>399</ele>
        <time>2020-09-13T09:57:58Z</time>
      </trkpt>
      <trkpt lat="43.23516" lon="5.66942">
        <ele>399</ele>
        <time>2020-09-13T09:57:59Z</time>
      </trkpt>
      <trkpt lat="43.23515" lon="5.66949">
        <ele>399</ele>
        <time>2020-09-13T09:58:00Z</time>
      </trkpt>
      <trkpt lat="43.23514" lon="5.66962">
        <ele>398.84765625</ele>
        <time>2020-09-13T09:58:02Z</time>
      </trkpt>
      <trkpt lat="43.23512" lon="5.66968">
        <ele>398.40234375</ele>
        <time>2020-09-13T09:58:03Z</time>
      </trkpt>
      <trkpt lat="43.2351" lon="5.66973">
        <ele>398.0703125</ele>
        <time>2020-09-13T09:58:04Z</time>
      </trkpt>
      <trkpt lat="43.2351" lon="5.66977">
        <ele>397.7734375</ele>
        <time>2020-09-13T09:58:05Z</time>
      </trkpt>
      <trkpt lat="43.23509" lon="5.66981">
        <ele>397.5</ele>
        <time>2020-09-13T09:58:06Z</time>
      </trkpt>
      <trkpt lat="43.23508" lon="5.66985">
        <ele>397.234375</ele>
        <time>2020-09-13T09:58:07Z</time>
      </trkpt>
      <trkpt lat="43.23507" lon="5.66989">
        <ele>396.9609375</ele>
        <time>2020-09-13T09:58:08Z</time>
      </trkpt>
      <trkpt lat="43.23506" lon="5.66993">
        <ele>396.8046875</ele>
        <time>2020-09-13T09:58:09Z</time>
      </trkpt>
      <trkpt lat="43.23506" lon="5.67037">
        <ele>395.22265625</ele>
        <time>2020-09-13T09:58:18Z</time>
      </trkpt>
      <trkpt lat="43.23506" lon="5.67037">
        <ele>395.234375</ele>
        <time>2020-09-13T09:58:30Z</time>
      </trkpt>
      <trkpt lat="43.23508" lon="5.67039">
        <ele>395.171875</ele>
        <time>2020-09-13T09:59:11Z</time>
      </trkpt>
      <trkpt lat="43.23506" lon="5.67038">
        <ele>395.1875</ele>
        <time>2020-09-13T09:59:49Z</time>
      </trkpt>
      <trkpt lat="43.23507" lon="5.6704">
        <ele>395.11328125</ele>
        <time>2020-09-13T10:00:15Z</time>
      </trkpt>
      <trkpt lat="43.23505" lon="5.67039">
        <ele>395.15234375</ele>
        <time>2020-09-13T10:00:48Z</time>
      </trkpt>
      <trkpt lat="43.23509" lon="5.67038">
        <ele>395.1796875</ele>
        <time>2020-09-13T10:01:21Z</time>
      </trkpt>
      <trkpt lat="43.23506" lon="5.67037">
        <ele>395.2265625</ele>
        <time>2020-09-13T10:01:34Z</time>
      </trkpt>
      <trkpt lat="43.23505" lon="5.67038">
        <ele>395.18359375</ele>
        <time>2020-09-13T10:02:15Z</time>
      </trkpt>
      <trkpt lat="43.23505" lon="5.67039">
        <ele>395.16015625</ele>
        <time>2020-09-13T10:02:48Z</time>
      </trkpt>
      <trkpt lat="43.23503" lon="5.67039">
        <ele>395.109375</ele>
        <time>2020-09-13T10:03:15Z</time>
      </trkpt>
      <trkpt lat="43.23504" lon="5.67037">
        <ele>395.22265625</ele>
        <time>2020-09-13T10:03:44Z</time>
      </trkpt>
      <trkpt lat="43.23505" lon="5.67035">
        <ele>395.296875</ele>
        <time>2020-09-13T10:04:06Z</time>
      </trkpt>
    </trkseg>
  </trk>
</gpx>